MPMG - Transparência

Contra-cheque - Remuneração de todos os servidores ativos - Pós Resolução CNMP 200/2019

Período: 2020 - Novembro

Ordem Matrícula Nome Cargo Efetivo Lotação Rendimentos Descontos Rendimento Líquido Total *14 Data de Referência
Remuneração básica Remuneração eventual ou Temporária Outras Remunerações Temporárias *7 Verbas Indenizatórias *8 Total de Rendimentos Brutos *9 Obrigatórios Legais Outros Descontos Eventuais Total de descontos *13
Remuneração do Cargo Efetivo *1 Outras Verbas Remuneratórias *2 Função de Confiança ou Cargo em Comissão *3 Gratificação Natalina *4 Férias 1/3 Constitucional *5 Abono de Permanência *6 Contribuição Previdenciária *10 Imposto de Renda *11 Retenção por Teto Constitucional *12
1 498900 ABDON MARCIO BARBOSA DA SILVA OFICIAL DO MP ABRE CAMPO - COMARCA; ABRE CAMPO-PJ-01PJ 6.123,79 612,38 0,00 0,00 0,00 0,00 613,04 1.858,76 9.207,97 887,72 1.001,53 0,00 0,00 1.889,25 7.318,72 30/11/2020
2 177800 ADALBERTO MENEZES FARIA SAMORA OFICIAL DO MP BELO HORIZONTE - COMARCA; DIR ESTRUTURA E PROCESSOS ORGANIZACIONAIS 15.272,02 6.108,81 0,00 0,00 7.308,77 0,00 1.937,32 1.550,00 32.176,92 2.848,46 7.324,09 0,00 0,00 10.172,55 22.004,37 30/11/2020
3 306400 ADALBERTO MOREIRA GONCALVES ANALISTA DO MP BELO HORIZONTE - COMARCA; BH-24PJ JUIZO REG BARREIRO-SECRETARIA 16.750,82 5.025,25 0,00 0,00 7.258,69 0,00 1.991,82 1.550,00 32.576,58 2.871,47 7.648,06 0,00 0,00 10.519,53 22.057,05 30/11/2020
4 179300 ADENISE AUXILIADORA SOUZA SAD OFICIAL DO MP BARBACENA - COMARCA; BARBACENA-PJ-06PJ 14.790,66 5.916,26 0,00 0,00 7.087,96 0,00 1.830,84 1.550,00 31.175,72 2.758,67 7.062,54 0,00 0,00 9.821,21 21.354,51 30/11/2020
5 272200 ADILSON BATISTA ORNELAS OFICIAL DO MP LAVRAS - COMARCA; LAVRAS-PJ-SECRETARIA 5.136,32 1.027,26 0,00 0,00 2.054,53 0,00 596,54 1.550,00 10.364,65 825,80 1.480,91 0,00 0,00 2.306,71 8.057,94 30/11/2020
6 380100 ADILSON GONCALVES DE MELO JUNIOR ANALISTA DO MP ARAXÁ - COMARCA; ARAXA-PJ-05PJ 10.736,08 2.147,22 0,00 0,00 4.294,43 0,00 1.226,80 2.319,39 20.723,92 1.756,51 4.232,12 0,00 0,00 5.988,63 14.735,29 30/11/2020
7 148800 ADILSON JANUARIO OFICIAL DO MP BELO HORIZONTE - COMARCA; BH-22PJ PES COM DEF E IDOSOS-SECRETARIA 18.820,14 13.174,10 0,00 0,00 10.916,59 0,00 2.738,50 1.550,00 47.199,33 4.312,89 11.607,48 0,00 0,00 15.920,37 31.278,96 30/11/2020
8 322601 ADMILSON SILVEIRA ANALISTA DO MP SAO JOAO DO PARAISO COMARCA; SAO JOAO DO PARAISO-PJ-UNPJ 9.146,93 914,69 0,00 0,00 3.362,42 0,00 914,74 1.550,00 15.888,78 1.417,64 3.272,12 0,00 0,00 4.689,76 11.199,02 30/11/2020
9 333700 ADRIANA ABRITTA TEIXEIRA OFICIAL DO MP BELO HORIZONTE - COMARCA; DIRET DE PESSOAL DO MINISTERIO PUBLICO - DPMP 10.069,62 3.020,89 0,00 0,00 4.363,50 0,00 1.183,40 1.550,00 20.187,41 1.729,73 4.179,24 0,00 0,00 5.908,97 14.278,44 30/11/2020
10 468500 ADRIANA APARECIDA FIRMINO ANALISTA DO MP CARATINGA - COMARCA; CARATINGA-PJ-04PJ 10.069,62 1.006,96 0,00 0,00 0,00 0,00 1.311,58 2.319,39 14.707,55 1.511,20 2.514,71 0,00 0,00 4.025,91 10.681,64 30/11/2020
11 326100 ADRIANA AUGUSTA AMARAL BELO OFICIAL DO MP BARBACENA - COMARCA; BARBACENA-PJ-08PJ 10.069,62 3.020,89 0,00 0,00 0,00 0,00 1.177,83 1.550,00 15.818,34 1.729,73 2.875,00 0,00 0,00 4.604,73 11.213,61 30/11/2020
12 605700 ADRIANA COSTA LIRA ASSESSOR/OFICIAL BELO HORIZONTE - COMARCA; COORD ESTADUAL DE DEFESA DA EDUCACAO 0,00 817,05 8.170,49 -20,55 2.995,85 0,00 880,52 1.550,00 14.393,36 933,15 2.693,39 0,00 45,69 3.672,23 10.721,13 30/11/2020
13 541100 ADRIANA CRISTINA DE OLIVEIRA OFICIAL DO MP GUAPÉ - COMARCA; GUAPE-PJ-UNPJ 5.387,19 538,72 0,00 0,00 0,00 0,00 489,81 2.319,39 8.735,11 783,07 857,29 0,00 0,00 1.640,36 7.094,75 30/11/2020
14 254800 ADRIANA DAS GRACAS FERNANDES ANALISTA DO MP UBERABA - COMARCA; UBERABA-PJ-07PJ 18.103,37 12.672,36 0,00 0,00 10.258,58 0,00 2.771,10 1.550,00 45.355,41 4.095,25 11.011,54 0,00 0,00 15.106,79 30.248,62 30/11/2020
15 217400 ADRIANA DE CARVALHO CATAO BRAGA ASSESSOR BELO HORIZONTE - COMARCA; DIV FISCAL ADM CONT TERCEIRIZACAO 0,00 3.268,20 8.170,49 0,00 0,00 0,00 942,22 1.550,00 13.930,91 713,09 3.019,47 0,00 0,00 3.732,56 10.198,35 30/11/2020
16 434600 ADRIANA FERREIRA DA SILVA ANALISTA DO MP BELO HORIZONTE - COMARCA; BH-14PJ DEFESA CONSUMIDOR-GAB 112PJ 12.601,30 2.520,26 0,00 0,00 135,44 0,00 1.225,82 1.550,00 18.032,82 2.014,56 3.613,05 0,00 0,00 5.627,61 12.405,21 30/11/2020
17 499800 ADRIANA FERREIRA TIAGO OFICIAL DO MP SALINAS - COMARCA; SALINAS-PJ-02PJ 7.421,79 742,18 0,00 0,00 0,00 0,00 937,79 1.550,00 10.651,76 1.125,38 1.684,01 0,00 0,00 2.809,39 7.842,37 30/11/2020
18 543400 ADRIANA GUIMARAES NUNES DE PAULA ANALISTA DO MP PATROCÍNIO - COMARCA; PATROCINIO-PJ-01PJ 9.146,93 914,69 0,00 0,00 3.353,87 0,00 929,97 1.550,00 15.895,46 1.329,32 3.010,70 0,00 0,00 4.340,02 11.555,44 30/11/2020
19 471500 ADRIANA HORTA DE CARVALHO RODRIGUES DE SOUSA ANALISTA DO MP BELO HORIZONTE - COMARCA; GRUPO ESP PROM JUST DEF PROB ADM PAT PUB 10.069,62 1.006,96 0,00 0,00 0,00 0,00 973,76 1.550,00 13.600,34 1.484,05 2.380,51 0,00 0,00 3.864,56 9.735,78 30/11/2020
20 86400 ADRIANA MOREIRA CALDEIRA BRANT OFICIAL DO MP BELO HORIZONTE - COMARCA; BH-21PJ TUTELA FUNDACOES-SECRETARIA 15.272,02 10.690,41 0,00 306,06 0,00 4.024,69 2.209,85 1.550,00 34.053,03 3.539,73 7.979,96 0,00 0,00 11.519,69 22.533,34 30/11/2020
21 480700 ADRIANA MOREIRA DE AVELLAR CEZILIO OFICIAL DO MP BELO HORIZONTE - COMARCA; BH-18PJ VIOLENCIA DOMESTICA-SECRETARIA 6.123,79 612,38 0,00 0,00 59,12 0,00 587,21 1.550,00 8.932,50 965,48 1.174,56 0,00 0,00 2.140,04 6.792,46 30/11/2020
22 326000 ADRIANA PEREIRA CARNEIRO RESENDE OFICIAL DO MP BELO HORIZONTE - COMARCA; BH-25PJ DEFESA DA EDUCACAO-SECRETARIA 9.752,14 2.925,64 0,00 0,00 4.324,08 0,00 1.047,42 1.550,00 19.599,28 1.772,30 4.236,14 0,00 0,00 6.008,44 13.590,84 30/11/2020
23 502200 ADRIANA PETRUCCI DAVINA OFICIAL DO MP PATROCÍNIO - COMARCA; PATROCINIO-PJ-01PJ 7.663,37 766,34 0,00 0,00 2.881,54 0,00 718,40 2.319,39 14.349,04 1.199,37 2.571,95 0,00 0,00 3.771,32 10.577,72 30/11/2020
24 201900 ADRIANA REIS PIMENTA OFICIAL DO MP TEÓFILO OTONI - COMARCA; TEOFILO OTONI-PJ-03PJ 14.790,66 5.916,26 0,00 0,00 0,00 0,00 1.929,01 1.550,00 24.185,93 2.758,67 5.402,27 0,00 0,00 8.160,94 16.024,99 30/11/2020
25 278700 ADRIANA RODRIGUES PINTO COELHO AMARAL ANALISTA DO MP BELO HORIZONTE - COMARCA; ASSESS TECNICA DA CORREGEDORIA-GERAL DO MP 17.413,92 5.224,18 0,00 0,00 0,00 0,00 2.020,24 1.550,00 26.208,34 3.012,40 5.926,15 0,00 0,00 8.938,55 17.269,79 30/11/2020
26 468000 ADRIANA SANTOS DE SANTANA MOREIRA ANALISTA DO MP ARAÇUAÍ - COMARCA; ARACUAI-PJ-02PJ 10.069,62 4.027,85 0,00 0,00 4.699,16 0,00 1.317,28 1.550,00 21.663,91 1.880,74 4.509,99 0,00 0,00 6.390,73 15.273,18 30/11/2020
27 194700 ADRIANA TSUKIDE OFICIAL DO MP UBERABA - COMARCA; COORD REG BACIAS PARANAIBA BAIXO RIO GRANDE 14.790,66 5.916,26 0,00 0,00 0,00 0,00 2.381,86 7.347,94 30.436,72 2.758,67 5.216,54 0,00 0,00 7.975,21 22.461,51 30/11/2020
28 465500 ADRIANO CASSIANO MATOS ANALISTA DO MP ARAXÁ - COMARCA; ARAXA-PJ-02PJ 10.069,62 1.006,96 0,00 0,00 0,00 0,00 985,78 1.550,00 13.612,36 1.484,05 2.432,64 0,00 0,00 3.916,69 9.695,67 30/11/2020
29 500500 ADRIANO DE ALMEIDA SILVA OFICIAL DO MP UBERABA - COMARCA; UBERABA-PJ-12PJ 7.663,37 766,34 0,00 0,00 2.881,54 0,00 1.127,27 2.319,39 14.757,91 1.246,00 2.244,65 0,00 0,00 3.490,65 11.267,26 30/11/2020
30 187200 ADRIANO DE FREITAS MARON OFICIAL DO MP PONTE NOVA - COMARCA; PONTE NOVA-PJ-03PJ 12.601,30 11.341,17 0,00 393,89 8.173,61 4.068,99 3.052,38 1.550,00 41.181,34 3.477,19 10.018,34 0,00 0,00 13.495,53 27.685,81 30/11/2020
31 477900 ADRIANO FERREIRA DE ALMEIDA OFICIAL DO MP TAIOBEIRAS - COMARCA; TAIOBEIRAS-PJ-UNPJ 7.663,37 766,34 0,00 0,00 2.809,90 0,00 807,57 1.550,00 13.597,18 1.123,05 2.297,88 0,00 0,00 3.420,93 10.176,25 30/11/2020
32 269101 ADRIANO PEREIRA SILVA ANALISTA DO MP UBERABA - COMARCA; UBERABA-PJ-02PJ 10.069,62 1.006,96 0,00 0,00 0,00 0,00 1.110,51 2.319,39 14.506,48 1.484,05 2.276,23 0,00 0,00 3.760,28 10.746,20 30/11/2020
33 414200 ADRIANO RODRIGUES FERNANDES ANALISTA DO MP CARANDAÍ - COMARCA; CARANDAI-PJ-UNPJ 10.069,62 2.013,92 0,00 0,00 4.134,09 0,00 1.068,59 1.550,00 18.836,22 1.657,82 3.822,68 0,00 0,00 5.480,50 13.355,72 30/11/2020
34 536700 ADRIELLE COSTA MARIA MOURAO FIGUEIREDO OFICIAL DO MP SERRO - COMARCA; SERRO-PJ-SECRETARIA 5.387,19 538,72 0,00 0,00 0,00 0,00 541,07 2.319,39 8.786,37 783,07 872,97 0,00 0,00 1.656,04 7.130,33 30/11/2020
35 514300 ADRIENE DAMASCENO BRAGA ANALISTA DO MP ALFENAS - COMARCA; ALFENAS-PJ-03PJ 10.069,62 1.006,96 0,00 0,00 3.692,19 0,00 1.576,10 2.319,39 18.664,26 1.546,36 3.586,64 0,00 0,00 5.133,00 13.531,26 30/11/2020
36 254600 ADRIENE DOMINGUES COSTA ANALISTA DO MP BELO HORIZONTE - COMARCA; SUPERINTENDENCIA DE RECURSOS HUMANOS 16.750,82 5.025,25 0,00 0,00 7.258,69 0,00 1.805,66 0,00 30.840,42 2.979,06 7.755,18 0,00 0,00 10.734,24 20.106,18 30/11/2020
37 252001 ADRIENE GOMES BARRETO ANALISTA DO MP BELO HORIZONTE - COMARCA; BH-19PJ SAUDE-SECRETARIA 047PJ 14.324,23 5.729,69 0,00 0,00 0,00 0,00 1.722,28 1.550,00 23.326,20 2.701,35 5.262,48 0,00 0,00 7.963,83 15.362,37 30/11/2020
38 645000 AFONSO CELSO GUIMARAES JUNIOR OFICIAL DO MP PIRAPORA - COMARCA; PIRAPORA-PJ-01PJ 4.376,03 262,56 0,00 0,00 0,00 0,00 407,29 1.550,00 6.595,88 617,98 505,64 0,00 0,00 1.123,62 5.472,26 30/11/2020
39 302500 AGENOR JOSE DA SILVA JUNIOR ANALISTA DO MP JUIZ DE FORA - COMARCA; JUIZ DE FORA-PJ-14PJ 16.750,82 5.025,25 0,00 0,00 7.258,69 0,00 1.793,06 1.550,00 32.377,82 2.834,85 7.330,04 0,00 0,00 10.164,89 22.212,93 30/11/2020
40 357500 AILSON WAGNER DE ALENCAR SILVA OFICIAL DO MP BELO HORIZONTE - COMARCA; BH-12PJ JUIZO CRIMINAL-SECRETARIA 10.069,62 4.027,85 0,00 0,00 4.811,76 0,00 1.257,27 1.550,00 21.716,50 1.899,01 4.491,79 0,00 0,00 6.390,80 15.325,70 30/11/2020
41 366400 AILTON ALEXSSANDRO ALVES OFICIAL DO MP PARÁ DE MINAS - COMARCA; PARA DE MINAS-PJ-05PJ 9.444,70 3.777,88 0,00 0,00 0,00 0,00 1.004,64 1.550,00 15.777,22 1.762,87 3.133,03 0,00 0,00 4.895,90 10.881,32 30/11/2020
42 318900 AILTON DE CASTRO RIBEIRO JUNIOR OFICIAL DO MP ITAJUBA - COMARCA; ITAJUBA-PJ-01PJ 10.069,62 3.020,89 0,00 0,00 4.470,94 0,00 1.155,83 2.319,39 21.036,67 1.773,88 4.068,94 0,00 0,00 5.842,82 15.193,85 30/11/2020
43 464400 ALAN MONTEIRO GASPAR ANALISTA DO MP SETE LAGOAS - COMARCA; SETE LAGOAS-PJ-08PJ 10.069,62 1.006,96 0,00 0,00 3.692,19 0,00 1.520,33 1.550,00 17.839,10 1.529,13 3.548,30 0,00 0,00 5.077,43 12.761,67 30/11/2020
44 670200 ALANA ARAUJO AGUIAR ASSESSOR BELO HORIZONTE - COMARCA; ASSESS EXECUTIVA DO CONSELHO SUPERIOR DO MP 0,00 0,00 3.076,28 0,00 2.050,86 0,00 49,27 1.550,00 6.726,41 586,57 866,22 0,00 0,00 1.452,79 5.273,62 30/11/2020
45 492000 ALANA DE CASTRO FREITAS OFICIAL DO MP ITUMIRIM - COMARCA; ITUMIRIM-PJ-SECRETARIA 6.123,79 612,38 0,00 0,00 0,00 0,00 584,20 1.550,00 8.870,37 902,51 1.138,73 0,00 0,00 2.041,24 6.829,13 30/11/2020
46 306700 ALANA MARCIA DE OLIVEIRA OFICIAL DO MP BELO HORIZONTE - COMARCA; DIRETORIA DE ADMINISTRACAO FINANCEIRA 9.752,14 2.925,64 0,00 0,00 4.225,93 0,00 1.189,49 1.550,00 19.643,20 1.688,99 4.050,78 0,00 0,00 5.739,77 13.903,43 30/11/2020
47 324500 ALANMAR COUTINHO COSTA OFICIAL DO MP LEOPOLDINA - COMARCA; LEOPOLDINA-PJ-02PJ 9.444,70 2.833,41 0,00 0,00 4.092,70 0,00 1.116,92 1.550,00 19.037,73 1.613,81 3.742,59 0,00 0,00 5.356,40 13.681,33 30/11/2020
48 407300 ALBERTO LUIZ SOARES DE OLIVEIRA ANALISTA DO MP BELO HORIZONTE - COMARCA; DIRETORIA DE PROJETOS DE EDIFICACOES 12.601,30 2.520,26 0,00 0,00 0,00 0,00 2.049,64 1.550,00 18.721,20 2.014,56 3.613,05 0,00 0,00 5.627,61 13.093,59 30/11/2020
49 118200 ALBERTO PEREIRA DA COSTA OFICIAL DO MP DORES DO INDAIÁ - COMARCA; DORES DO INDAIA-PJ-UNPJ 16.750,82 15.075,74 0,00 226,67 10.608,85 4.568,47 2.700,77 1.550,00 51.481,32 4.160,14 12.579,41 0,00 0,00 16.739,55 34.741,77 30/11/2020
50 282400 ALCILENE MARISE DE ARAUJO ANALISTA DO MP BELO HORIZONTE - COMARCA; BH-23PJ INF-FISC MED SOC FEC 17.413,92 5.224,18 0,00 0,00 0,00 0,00 2.009,58 1.550,00 26.197,68 3.012,40 5.874,01 0,00 0,00 8.886,41 17.311,27 30/11/2020
51 112600 ALCIONE DA MOTA JARDIM OFICIAL DO MP BELO HORIZONTE - COMARCA; CAO-CRIANCAS E ADOLESCENTES-SECRETARIA 13.872,60 9.710,82 0,00 0,00 8.027,33 0,00 1.682,31 1.550,00 34.843,06 3.168,68 8.307,42 0,00 0,00 11.476,10 23.366,96 30/11/2020
52 396400 ALCIONE DE FREITAS E SILVA ANALISTA DO MP BELO HORIZONTE - COMARCA; ASSESS JUR DO CONS SUPERIOR DO MINISTERIO PUB 14.324,23 5.729,69 0,00 0,00 0,00 0,00 1.656,99 1.550,00 23.260,91 2.701,35 5.141,14 0,00 0,00 7.842,49 15.418,42 30/11/2020
53 657400 ALCIONE MARIA FERREIRA ASSESSOR BELO HORIZONTE - COMARCA; PROC JUST RECURSOS ESP E EXTRAORD CRIMINAIS 0,00 0,00 10.397,52 0,00 0,00 0,00 924,32 1.550,00 12.871,84 713,09 2.719,71 0,00 0,00 3.432,80 9.439,04 30/11/2020
54 161600 ALCIONE NERY SOUZA ASSESSOR BELO HORIZONTE - COMARCA; BH-18PJ DIREITOS HUMANOS-SECRETARIA 0,00 4.085,25 8.170,49 0,00 0,00 0,00 1.033,21 1.550,00 14.838,95 713,09 3.342,12 0,00 0,00 4.055,21 10.783,74 30/11/2020
55 376000 ALDA GOMES LANA OFICIAL DO MP BELO HORIZONTE - COMARCA; BH-18PJ VIOLENCIA DOMESTICA-SECRETARIA 8.858,43 1.771,69 0,00 0,00 94,65 0,00 1.576,03 1.550,00 13.850,80 1.476,33 2.363,33 0,00 0,00 3.839,66 10.011,14 30/11/2020
56 148000 ALDA MARTINS SIMOES OFICIAL DO MP BELO HORIZONTE - COMARCA; BH-23PJ CIVEL- FISC ENT AB POL 17.413,92 8.706,96 0,00 0,00 0,00 0,00 2.178,90 1.550,00 29.849,78 3.475,84 7.031,77 0,00 0,00 10.507,61 19.342,17 30/11/2020
57 318400 ALDO CREPALDI JUNIOR OFICIAL DO MP BELO HORIZONTE - COMARCA; DIVISAO DE MATERIAIS 9.752,14 2.925,64 0,00 0,00 4.329,94 0,00 1.108,86 1.550,00 19.666,58 1.803,78 4.248,58 0,00 6,99 6.059,35 13.607,23 30/11/2020
58 604500 ALENIZE APARECIDA RODRIGUES HENRIQUE OFICIAL DO MP RIO NOVO - COMARCA; RIO NOVO-PJ-UNPJ 5.387,19 538,72 0,00 0,00 50,82 0,00 555,53 1.550,00 8.082,26 800,67 912,13 0,00 0,00 1.712,80 6.369,46 30/11/2020
59 197900 ALESSA DE SOUSA E SILVA OFICIAL DO MP OLIVEIRA - COMARCA; OLIVEIRA-PJ-02PJ 15.272,02 6.108,81 0,00 0,00 7.308,77 0,00 1.938,49 1.658,00 32.286,09 2.848,46 7.324,09 0,00 0,00 10.172,55 22.113,54 30/11/2020
60 428500 ALESSANDRA ALVES DINIZ OFICIAL DO MP BELO HORIZONTE - COMARCA; CENTRAL DE APOIO TECNICO-SECRETARIA 6.123,79 3.061,90 0,00 0,00 0,00 0,00 799,17 1.550,00 11.534,86 1.217,03 1.895,93 0,00 0,00 3.112,96 8.421,90 30/11/2020
61 286801 ALESSANDRA BOTELHO JUNQUEIRA DE MENEZES ANALISTA DO MP PASSOS - COMARCA; PASSOS-PJ-05PJ 13.011,52 5.204,61 0,00 0,00 0,00 0,00 3.569,92 2.781,02 24.567,07 2.622,87 4.766,37 0,00 0,00 7.389,24 17.177,83 30/11/2020
62 307000 ALESSANDRA CRISTINA SANTOS MENDES ANALISTA DO MP BELO HORIZONTE - COMARCA; BH-18PJ VIOLENCIA DOMESTICA-SECRETARIA 12.204,02 3.661,21 0,00 0,00 0,00 0,00 1.297,15 1.550,00 18.712,38 2.113,63 3.883,69 0,00 0,00 5.997,32 12.715,06 30/11/2020
63 264400 ALESSANDRA DE SOUZA SANTOS ANALISTA DO MP BELO HORIZONTE - COMARCA; OUVIDORIA DO MPMG 18.103,37 7.241,35 0,00 0,00 0,00 0,00 2.181,04 1.550,00 29.075,76 3.372,56 6.634,58 0,00 0,00 10.007,14 19.068,62 30/11/2020
64 441500 ALESSANDRA DRUMMOND DE FIGUEIREDO ROSSI ANALISTA DO MP BELO HORIZONTE - COMARCA; DIRETORIA DE PROJETOS DE EDIFICACOES 10.069,62 2.013,92 0,00 0,00 0,00 0,00 1.075,23 1.550,00 14.708,77 1.618,96 2.732,82 0,00 0,00 4.351,78 10.356,99 30/11/2020
65 524000 ALESSANDRA LUCIOLI DE BARROS GUERRA ANALISTA DO MP BELO HORIZONTE - COMARCA; BH-19PJ SAUDE--SECRETARIA 10.069,62 1.006,96 0,00 0,00 0,00 0,00 1.107,36 1.550,00 13.733,94 1.484,05 2.350,02 0,00 0,00 3.834,07 9.899,87 30/11/2020
66 479900 ALESSANDRA MARA ANDRADE DE FARIA OFICIAL DO MP UBERABA - COMARCA; UBERABA-PJ-09PJ 7.663,37 766,34 0,00 0,00 2.809,90 0,00 813,50 1.550,00 13.603,11 1.123,05 2.402,15 0,00 0,00 3.525,20 10.077,91 30/11/2020
67 226700 ALESSANDRA MARA VASCONCELOS REZENDE OFICIAL DO MP CONSELHEIRO LAFAIETE - COMARCA; CONSELHEIRO LAFAIETE-PJ-07PJ 10.397,52 3.119,26 0,00 0,00 0,00 0,00 1.312,59 1.550,00 16.379,37 1.800,77 3.224,55 0,00 0,00 5.025,32 11.354,05 30/11/2020
68 112100 ALESSANDRA MARCIA FERREIRA OFICIAL DO MP BELO HORIZONTE - COMARCA; BELO HORIZONTE- SECRETARIA DAS PROMOTORIAS 10.069,62 7.048,73 0,00 0,00 5.706,12 0,00 1.327,91 1.550,00 25.702,38 2.245,23 5.695,47 0,00 0,00 7.940,70 17.761,68 30/11/2020
69 196500 ALESSANDRA MARIA RIBEIRO LUCIANO OFICIAL DO MP RIO PARANAÍBA - COMARCA; RIO PARANAIBA-PJ-UNPJ 15.272,02 6.108,81 0,00 0,00 192,34 0,00 1.864,93 1.550,00 24.988,10 2.915,07 5.512,39 0,00 0,00 8.427,46 16.560,64 30/11/2020
70 91400 ALESSANDRA MENDES VASCONCELOS DE SOUZA OFICIAL DO MP BELO HORIZONTE - COMARCA; BH-23PJ INF-FISC MED SOC AB 18.820,14 13.174,10 0,00 255,75 0,00 4.714,21 2.806,08 1.550,00 41.320,28 4.286,61 9.847,17 0,00 0,00 14.133,78 27.186,50 30/11/2020
71 651700 ALESSANDRA PROFIRIO SOUZA OFICIAL DO MP NOVA ERA - COMARCA; NOVA ERA-PJ-UNPJ 4.376,03 262,56 0,00 0,00 4,35 0,00 354,84 1.550,00 6.547,78 657,60 541,66 0,00 0,00 1.199,26 5.348,52 30/11/2020
72 384900 ALESSANDRA RODRIGUES ANALISTA DO MP VISCONDE DO RIO BRANCO - COMARCA; VISCONDE DO RIO BRANCO-PJ-03PJ 14.324,23 2.864,85 0,00 0,00 133,21 0,00 1.521,92 3.088,78 21.932,99 2.315,44 4.178,22 0,00 0,00 6.493,66 15.439,33 30/11/2020
73 390000 ALESSANDRA SPADANO MASSARA VASCONCELOS OFICIAL DO MP BETIM - COMARCA; BETIM-PJ-10PJ 8.858,43 1.771,69 0,00 0,00 3.543,37 0,00 863,87 1.550,00 16.587,36 1.497,74 3.437,55 0,00 0,00 4.935,29 11.652,07 30/11/2020
74 426500 ALESSANDRO CAMPOS DE PAIVA ANALISTA DO MP BELO HORIZONTE - COMARCA; CENTRO PUBLICIDADE E DESIGN GRAFICO 13.011,52 2.602,30 0,00 0,00 0,00 0,00 1.329,63 1.550,00 18.493,45 2.128,77 3.963,67 0,00 0,00 6.092,44 12.401,01 30/11/2020
75 623400 ALESSANDRO DE OLIVEIRA REZENDE ANALISTA DO MP BELO HORIZONTE - COMARCA; DIRET DE INFORMACAO E CONHECIMENTO-DINC/CEAF 8.436,53 843,65 0,00 0,00 0,00 0,00 850,39 1.550,00 11.680,57 1.236,35 1.882,24 0,00 122,13 3.240,72 8.439,85 30/11/2020
76 420600 ALESSANDRO SILVA OFICIAL DO MP VISCONDE DO RIO BRANCO - COMARCA; VISCONDE DO RIO BRANCO-PJ-02PJ 8.436,53 2.530,96 0,00 0,00 3.655,83 0,00 1.061,97 1.550,00 17.235,29 1.461,14 2.317,91 0,00 0,00 3.779,05 13.456,24 30/11/2020
77 375301 ALETHEIA PATRICIA ASSIS MORAIS MOREIRA ANALISTA DO MP ITABIRA - COMARCA; ITABIRA-PJ-02PJ 10.069,62 1.006,96 0,00 0,00 0,00 0,00 1.001,42 3.088,78 15.166,78 1.459,71 2.393,38 0,00 0,00 3.853,09 11.313,69 30/11/2020
78 382300 ALEX CARVALHO LIMA ANALISTA DO MP UBERLÂNDIA - COMARCA; UBERLANDIA-PJ-14PJ 14.324,23 2.864,85 0,00 0,00 0,00 0,00 1.531,60 1.550,00 20.270,68 2.315,44 4.282,50 0,00 0,00 6.597,94 13.672,74 30/11/2020
79 195201 ALEX DE CASTRO PEREIRA ANALISTA DO MP UBERABA - COMARCA; UBERABA-PJ-09PJ 17.413,92 6.965,57 0,00 0,00 8.342,97 0,00 2.081,45 1.550,00 36.353,91 3.244,12 8.583,60 0,00 0,00 11.827,72 24.526,19 30/11/2020
80 358900 ALEX DE PAULA LANZA ASSESSOR BELO HORIZONTE - COMARCA; CENTRO JORNALISMO 0,00 0,00 10.397,52 0,00 0,00 0,00 888,08 2.319,39 13.604,99 713,09 2.788,97 0,00 0,00 3.502,06 10.102,93 30/11/2020
81 178400 ALEX RODRIGO SALDANHA GUIMARAES OFICIAL DO MP BELO HORIZONTE - COMARCA; DIRETORIA DE SISTEMAS DE INFORMACAO 6.123,79 2.449,52 0,00 0,00 0,00 0,00 706,89 1.550,00 10.830,20 1.148,65 1.743,51 0,00 0,00 2.892,16 7.938,04 30/11/2020
82 413500 ALEX VILELA OLIVEIRA ANALISTA DO MP GOVERNADOR VALADARES - COMARCA; COORD REG PJ DEF EDU DIR CRIANCA ADOL RIODOCE 13.011,52 2.602,30 0,00 0,00 5.204,61 0,00 1.489,88 1.550,00 23.858,31 2.080,14 5.190,23 0,00 0,00 7.270,37 16.587,94 30/11/2020
83 264300 ALEXANDRA FATIMA SARAIVA SOARES ANALISTA DO MP BELO HORIZONTE - COMARCA; CENTRAL DE APOIO TECN-SETOR DE MEIO AMBIENTE 18.103,37 5.431,01 0,00 0,00 0,00 0,00 1.973,07 1.550,00 27.057,45 3.131,66 6.098,59 0,00 0,00 9.230,25 17.827,20 30/11/2020
84 488000 ALEXANDRA LARA PAIS DE CARVALHO ANALISTA DO MP SERRO - COMARCA; SERRO-PJ-UNPJ 10.069,62 1.006,96 0,00 0,00 0,00 0,00 940,76 1.550,00 13.567,34 1.467,56 2.239,55 0,00 0,00 3.707,11 9.860,23 30/11/2020
85 256300 ALEXANDRA SANTOS GOMES OFICIAL DO MP BELO HORIZONTE - COMARCA; DIRETORIA GESTAO COMPRAS LICITACOES 10.069,62 3.020,89 0,00 0,00 0,00 0,00 1.031,60 1.550,00 15.672,11 1.725,11 2.969,02 0,00 0,00 4.694,13 10.977,98 30/11/2020
86 403300 ALEXANDRE AUGUSTO RODRIGUES ANALISTA DO MP ÁGUAS FORMOSAS - COMARCA; AGUAS FORMOSAS-PJ-UNPJ 10.069,62 2.013,92 0,00 0,00 0,00 0,00 1.049,31 2.319,39 15.452,24 1.618,96 2.732,82 0,00 0,00 4.351,78 11.100,46 30/11/2020
87 640900 ALEXANDRE BARBOSA MASCARENHAS ANALISTA DO MP BETIM - COMARCA; BETIM-PJ-02PJ 6.741,63 404,50 0,00 0,00 0,00 0,00 555,47 1.550,00 9.251,60 671,12 849,14 0,00 0,00 1.520,26 7.731,34 30/11/2020
88 311700 ALEXANDRE BARCELOS RESENDE OFICIAL DO MP BELO HORIZONTE - COMARCA; BH-19PJ SAUDE-SECRETARIA 047PJ 7.912,85 1.582,57 0,00 0,00 0,00 0,00 873,45 2.319,39 12.688,26 1.294,60 2.072,37 0,00 0,00 3.366,97 9.321,29 30/11/2020
89 285600 ALEXANDRE CAMPOS DE OLIVEIRA OFICIAL DO MP UBERABA - COMARCA; COORD REG BACIAS PARANAIBA BAIXO RIO GRANDE 10.069,62 3.020,89 0,00 0,00 0,00 0,00 1.356,75 1.550,00 15.997,26 1.753,88 2.963,81 0,00 0,00 4.717,69 11.279,57 30/11/2020
90 509200 ALEXANDRE CAPUANO DE REZENDE ANALISTA DO MP BELO HORIZONTE - COMARCA; GABINETE DE PROCURADOR DE JUSTIÇA - SALA 715 10.069,62 1.006,96 0,00 0,00 0,00 0,00 1.007,76 1.550,00 13.634,34 1.484,05 2.454,29 0,00 0,00 3.938,34 9.696,00 30/11/2020
91 229400 ALEXANDRE CARLOS BOTREL DIRETOR/OFICIAL BELO HORIZONTE - COMARCA; SUPERINTENDENCIA DOS ORGAOS COLEGIADOS 0,00 5.224,18 17.413,92 0,00 7.546,03 0,00 2.211,33 1.550,00 33.945,46 2.403,53 8.122,97 0,00 5,80 10.532,30 23.413,16 30/11/2020
92 411900 ALEXANDRE CARVALHO SANTOS RIBEIRO ANALISTA DO MP OLIVEIRA - COMARCA; OLIVEIRA-PJ-02PJ 13.011,52 2.602,30 0,00 0,00 5.345,07 0,00 1.507,85 2.498,91 24.965,65 2.128,77 5.298,43 0,00 0,00 7.427,20 17.538,45 30/11/2020
93 641600 ALEXANDRE DA SILVA ASSUNCAO OFICIAL DO MP BELO HORIZONTE - COMARCA; SERVICO MEDICO-DEPTO PERIC MEDICA SAUDE OCUP 4.817,57 289,05 0,00 0,00 0,00 0,00 442,87 1.550,00 7.099,49 671,12 628,49 0,00 0,00 1.299,61 5.799,88 30/11/2020
94 201200 ALEXANDRE DE ALENCAR CORDEIRO OFICIAL DO MP ÁGUAS FORMOSAS - COMARCA; AGUAS FORMOSAS-PJ-UNPJ 6.123,79 3.061,90 0,00 0,00 0,00 0,00 807,70 1.550,00 11.543,39 1.230,70 1.868,95 0,00 0,00 3.099,65 8.443,74 30/11/2020
95 288200 ALEXANDRE DE VASCONCELOS COSTA KER ANALISTA DO MP BELO HORIZONTE - COMARCA; BH-03PJ EMPRESARIAL-SECRETARIA 16.750,82 5.025,25 0,00 0,00 0,00 0,00 1.914,57 1.550,00 25.240,64 2.887,79 5.503,84 0,00 0,00 8.391,63 16.849,01 30/11/2020
96 445000 ALEXANDRE DIOGENES OLIVEIRA ANALISTA DO MP SALINAS - COMARCA; SALINAS-PJ-02PJ 10.069,62 2.013,92 0,00 0,00 4.027,85 0,00 1.428,00 2.319,39 19.858,78 1.658,27 3.927,94 0,00 0,00 5.586,21 14.272,57 30/11/2020
97 463400 ALEXANDRE LEAL WINKELSTROTER ANALISTA DO MP TEÓFILO OTONI - COMARCA; TEOFILO OTONI-PJ-04PJ 10.069,62 1.006,96 0,00 0,00 3.789,47 0,00 944,49 1.550,00 17.360,54 1.554,17 3.604,01 0,00 0,00 5.158,18 12.202,36 30/11/2020
98 615700 ALEXANDRE LUIZ DE CASTRO MACIEL ANALISTA DO MP IBIRITÉ - COMARCA; IBIRITE-PJ-02PJ 8.436,53 843,65 0,00 0,00 0,00 0,00 780,41 1.550,00 11.610,59 1.236,35 1.881,51 0,00 0,00 3.117,86 8.492,73 30/11/2020
99 356900 ALEXANDRE MOISES MENDONCA E ARAUJO OFICIAL DO MP UBERABA - COMARCA; UBERABA-PJ-13PJ 7.421,79 1.484,36 0,00 0,00 0,00 0,00 718,53 1.550,00 11.174,68 1.199,70 1.853,85 0,00 0,00 3.053,55 8.121,13 30/11/2020
100 633300 ALEXANDRE NONATO MARTINS OFICIAL DO MP IGARAPÉ - COMARCA; IGARAPE-PJ-02PJ 4.817,57 481,76 0,00 0,00 1.807,26 0,00 443,32 1.550,00 9.099,91 696,96 1.116,18 0,00 0,00 1.813,14 7.286,77 30/11/2020
101 469900 ALEXANDRE PEREIRA GUEDES ANALISTA DO MP CATAGUASES - COMARCA; CATAGUASES-PJ-03PJ 10.069,62 1.006,96 0,00 0,00 3.692,19 0,00 1.092,22 1.550,00 17.410,99 1.484,05 3.521,78 0,00 0,00 5.005,83 12.405,16 30/11/2020
102 208700 ALEXANDRE RESENDE FRAGA ANALISTA DO MP BELO HORIZONTE - COMARCA; BH-19PJ SAUDE-SECRETARIA 130PJ 18.820,14 7.528,06 0,00 0,00 0,00 0,00 2.200,52 1.550,00 30.098,72 3.530,15 7.004,33 0,00 0,00 10.534,48 19.564,24 30/11/2020
103 216401 ALEXANDRE RIBEIRO DE LIMA MAIORINO ANALISTA DO MP UBERABA - COMARCA; UBERABA-PJ-03PJ 16.750,82 6.700,33 0,00 0,00 0,00 0,00 1.981,84 1.550,00 26.982,99 3.092,35 5.958,99 0,00 0,00 9.051,34 17.931,65 30/11/2020
104 475100 ALEXANDRE TEOTONIO COSTA ANALISTA DO MP ARAGUARI - COMARCA; ARAGUARI-PJ-01PJ 10.069,62 1.006,96 0,00 0,00 3.692,19 0,00 1.001,84 1.550,00 17.320,61 1.484,05 3.343,72 0,00 0,00 4.827,77 12.492,84 30/11/2020
105 339000 ALEXANDRE VITOR CARDOSO OFICIAL DO MP BELO HORIZONTE - COMARCA; PROMOT ESTADUAL DE DEF PATRI CULT E TUR DE MG 6.123,79 1.224,76 0,00 0,00 2.449,52 0,00 737,91 1.550,00 12.085,98 984,56 1.838,50 0,00 0,00 2.823,06 9.262,92 30/11/2020
106 678900 ALEXIA DUARTE TORRES ASSESSOR PROCURADOR JUSTICA BELO HORIZONTE - COMARCA; GABINETE DE PROCURADOR DE JUSTIÇA - SALA 502 0,00 0,00 7.187,72 0,00 0,00 0,00 0,00 1.550,00 8.737,72 713,09 1.213,66 0,00 0,00 1.926,75 6.810,97 30/11/2020
107 623100 ALEXSANDER BATISTA AGUIAR ANALISTA DO MP BELO HORIZONTE - COMARCA; DIRETORIA DE SUPORTE E MANUTENCAO 8.436,53 843,65 0,00 0,00 83,45 0,00 865,05 2.319,39 12.548,07 1.236,35 1.725,10 0,00 0,00 2.961,45 9.586,62 30/11/2020
108 513300 ALFSON MIRANDA BRAGA ANALISTA DO MP BELO HORIZONTE - COMARCA; BH-12PJ JUIZO CRIMINAL-GAB 092PJ 10.069,62 1.006,96 0,00 0,00 0,00 0,00 1.036,13 1.550,00 13.662,71 1.484,05 2.432,64 0,00 0,00 3.916,69 9.746,02 30/11/2020
109 618400 ALICE MAGALHAES MACEDO DE CARVALHO ANALISTA DO MP IPATINGA - COMARCA; IPATINGA-PJ-10PJ 8.436,53 843,65 0,00 0,00 0,00 0,00 756,76 2.319,39 12.356,33 1.236,35 1.881,51 0,00 0,00 3.117,86 9.238,47 30/11/2020
110 471000 ALICE TITONELI MOREIRA ANALISTA DO MP MIRADOURO - COMARCA; MIRADOURO-PJ-UNPJ 10.069,62 1.006,96 0,00 0,00 3.692,19 0,00 1.277,24 4.614,39 20.660,40 1.484,05 3.395,86 0,00 0,00 4.879,91 15.780,49 30/11/2020
111 622400 ALINE BALBINO PORTUGAL LOPES ANALISTA DO MP TRÊS PONTAS - COMARCA; TRES PONTAS-PJ-03PJ 8.436,53 843,65 0,00 0,00 0,00 0,00 766,20 2.319,39 12.365,77 1.236,35 1.881,51 0,00 0,00 3.117,86 9.247,91 30/11/2020
112 373000 ALINE BOTELHO RESENDE OFICIAL DO MP JUIZ DE FORA - COMARCA; JUIZ DE FORA-PJ-22PJ 8.579,10 1.715,82 0,00 0,00 3.431,64 0,00 901,37 1.550,00 16.177,93 1.375,22 3.134,21 0,00 0,00 4.509,43 11.668,50 30/11/2020
113 407700 ALINE CRISTINA RODRIGUES PEREIRA COORDENADOR/ANALISTA BELO HORIZONTE - COMARCA; DIRETORIA DE PROJETOS DE EDIFICACOES 0,00 2.687,03 13.435,16 0,00 0,00 0,00 1.548,24 2.319,39 19.989,82 1.715,81 4.058,94 0,00 0,00 5.774,75 14.215,07 30/11/2020
114 193100 ALINE CRISTINA SENA OLIVEIRA OFICIAL DO MP UBERLÂNDIA - COMARCA; UBERLANDIA-PJ-03PJ 14.790,66 5.916,26 0,00 0,00 19,11 0,00 1.749,47 2.319,39 24.794,89 2.932,74 5.737,45 0,00 0,00 8.670,19 16.124,70 30/11/2020
115 554200 ALINE CRISTINA SILVA SOUZA OFICIAL DO MP TIROS - COMARCA; TIROS-PJ-UNPJ 5.930,75 593,08 0,00 0,00 0,00 0,00 1.207,03 1.550,00 9.280,86 933,54 1.207,78 0,00 0,00 2.141,32 7.139,54 30/11/2020
116 505500 ALINE DA CUNHA MARREIROS OLIVEIRA ANALISTA DO MP CARANGOLA - COMARCA; CARANGOLA-PJ-03PJ 10.069,62 1.006,96 0,00 0,00 0,00 0,00 1.004,56 2.319,39 14.400,53 1.484,05 2.380,51 0,00 0,00 3.864,56 10.535,97 30/11/2020
117 433500 ALINE DE MELO QUEIROZ ASSESSOR/OFICIAL BELO HORIZONTE - COMARCA; ASSESSORIA TECNICA DO PROCON-MG 0,00 2.079,50 10.397,52 -32,93 4.159,01 0,00 1.125,55 2.319,39 20.048,04 1.431,65 4.036,65 0,00 65,86 5.534,16 14.513,88 30/11/2020
118 691100 ALINE DE MELO SOUZA ASSESSOR PROCURADOR JUSTICA BELO HORIZONTE - COMARCA; GABINETE DE PROCURADOR DE JUSTIÇA - SALA 401 0,00 0,00 6.708,54 0,00 0,00 0,00 0,00 1.550,00 8.258,54 713,09 1.081,89 0,00 0,00 1.794,98 6.463,56 30/11/2020
119 542700 ALINE DE SOUSA ALBINO ANALISTA DO MP CONTAGEM - COMARCA; CONTAGEM-PJ-09PJ 9.146,93 914,69 0,00 0,00 0,00 0,00 817,89 1.550,00 12.429,51 1.329,32 2.150,20 0,00 0,00 3.479,52 8.949,99 30/11/2020
120 330000 ALINE DIORIO MAYRINK OFICIAL DO MP BELO HORIZONTE - COMARCA; BH-18PJ DIREITOS HUMANOS-SECRETARIA 7.187,72 1.437,54 0,00 0,00 4,05 0,00 807,69 1.550,00 10.987,00 1.175,95 1.802,78 0,00 0,00 2.978,73 8.008,27 30/11/2020
121 499000 ALINE FERREIRA LOPES ANALISTA DO MP TEÓFILO OTONI - COMARCA; COORD. DE DEF. DO PAT. PUBLICO-JEQUIT./MUCURI 10.069,62 1.006,96 0,00 0,00 3.692,19 0,00 1.029,59 1.550,00 17.348,36 1.484,05 3.448,00 0,00 0,00 4.932,05 12.416,31 30/11/2020
122 405300 ALINE LAIA CARDOZO DIRETOR/ANALISTA BELO HORIZONTE - COMARCA; SUPERINTENDENCIA LOGISTICA SERVICOS 0,00 3.482,78 17.413,92 -54,14 0,00 0,00 1.903,05 1.550,00 24.295,61 2.391,92 5.440,31 0,00 108,28 7.940,51 16.355,10 30/11/2020
123 278200 ALINE MARCIA FARIA BARBOSA FERNANDES OFICIAL DO MP BARBACENA - COMARCA; BARBACENA-PJ-SECRETARIA 7.421,79 2.226,54 0,00 0,00 3.216,11 0,00 844,72 1.550,00 15.259,16 1.299,67 2.750,42 0,00 0,00 4.050,09 11.209,07 30/11/2020
124 389000 ALINE NERI NOBRE ANALISTA DO MP MONTES CLAROS - COMARCA; COORD REG PJ DEF EDUC DIR CRIANCA ADOL NORTE 14.324,23 4.297,27 0,00 0,00 0,00 0,00 1.633,40 1.550,00 21.804,90 2.454,00 4.703,46 0,00 0,00 7.157,46 14.647,44 30/11/2020
125 294600 ALINE PATRICIA SILVA VIEIRA OFICIAL DO MP UBERLÂNDIA - COMARCA; UBERLANDIA-PJ-03PJ 10.069,62 3.020,89 0,00 0,00 4.845,26 0,00 2.887,18 1.550,00 22.372,95 1.753,88 4.842,12 0,00 0,00 6.596,00 15.776,95 30/11/2020
126 420000 ALINE RODRIGUES CAMOROPIN ANALISTA DO MP SABARÁ - COMARCA; SABARA-PJ-02PJ 13.011,52 2.602,30 0,00 0,00 0,00 0,00 1.465,44 1.550,00 18.629,26 2.128,77 3.867,16 0,00 0,00 5.995,93 12.633,33 30/11/2020
127 408300 ALINE SILVA ARAUJO DE PAULA ANALISTA DO MP SÃO SEBASTIÃO DO PARAÍSO - COMARCA; SAO SEBASTIAO DO PARAISO-PJ-02PJ 13.011,52 2.602,30 0,00 0,00 5.204,61 0,00 1.433,88 2.319,39 24.571,70 2.080,14 5.190,23 0,00 0,00 7.270,37 17.301,33 30/11/2020
128 425400 ALINE TRINDADE DE FREITAS CAMPOS OFICIAL DO MP BELO HORIZONTE - COMARCA; BH-14PJ DEFESA CONSUMIDOR-SECRETARIA 8.579,10 1.715,82 0,00 0,00 3.431,64 0,00 942,73 1.550,00 16.219,29 1.360,14 3.163,92 0,00 0,00 4.524,06 11.695,23 30/11/2020
129 517200 ALISSOM PEREIRA DA SILVA ANALISTA DO MP BORDA DA MATA - COMARCA; BORDA DA MATA-PJ-UNPJ 10.069,62 1.006,96 0,00 0,00 0,00 0,00 1.155,06 1.550,00 13.781,64 1.484,05 2.506,43 0,00 0,00 3.990,48 9.791,16 30/11/2020
130 442400 ALISSON LABRE ANALISTA DO MP VARGINHA - COMARCA; VARGINHA-PJ-03PJ 10.069,62 2.013,92 0,00 0,00 0,00 0,00 1.759,19 2.319,39 16.162,12 1.685,42 2.961,20 0,00 0,00 4.646,62 11.515,50 30/11/2020
131 643800 ALLAN PAUL FONSECA DE CASTRO ASSESSOR/OFICIAL CONTAGEM - COMARCA; CONTAGEM-PJ-SECRETARIA 0,00 623,85 10.397,52 0,00 0,00 0,00 444,15 2.319,39 13.784,91 671,12 2.273,45 0,00 0,00 2.944,57 10.840,34 30/11/2020
132 612900 ALLAN VINICIUS VIEIRA ARAUJO COORDENADOR/OFICIAL BELO HORIZONTE - COMARCA; DIVISAO TRANSPORTES 0,00 1.181,92 11.819,15 0,00 4.333,69 0,00 1.719,20 1.550,00 20.603,96 894,34 4.567,57 0,00 0,00 5.461,91 15.142,05 30/11/2020
133 349000 ALLEC RODRIGUES VIEIRA OFICIAL DO MP BELO HORIZONTE - COMARCA; COORD EST DEF DIR FAM PESSOAS DEFICI IDOSOS 10.069,62 2.013,92 0,00 0,00 0,00 0,00 1.152,81 1.550,00 14.786,35 1.627,72 2.747,05 0,00 6,75 4.381,52 10.404,83 30/11/2020
134 297300 ALLYSON SALIBA MONTEIRO LAIZO ANALISTA DO MP CONSELHEIRO LAFAIETE - COMARCA; CONSELHEIRO LAFAIETE-PJ-03PJ 18.820,14 5.646,04 0,00 0,00 0,00 0,00 2.061,65 3.088,78 29.616,61 3.298,09 6.468,89 0,00 0,00 9.766,98 19.849,63 30/11/2020
135 303700 ALMIR LOPES LOURES ANALISTA DO MP BELO HORIZONTE - COMARCA; CENTRAL DE APOIO TECN-SETOR DE MEIO AMBIENTE 18.820,14 5.646,04 0,00 0,00 8.155,39 0,00 2.061,16 1.550,00 36.232,73 3.213,49 8.668,44 0,00 0,00 11.881,93 24.350,80 30/11/2020
136 515900 ALTAIR NEVES JUNIOR OFICIAL DO MP BELO HORIZONTE - COMARCA; BH-01PJ FAZENDA PUBLICA-SECRETARIA 7.421,79 742,18 0,00 0,00 65,19 0,00 739,54 1.550,00 10.518,70 1.099,72 1.577,52 0,00 0,00 2.677,24 7.841,46 30/11/2020
137 233300 ALVARINDO BATISTA ANALISTA DO MP BELO HORIZONTE - COMARCA; NUCLEO APOIO TECNICO ESP COMUNICACAO 18.820,14 5.646,04 0,00 0,00 0,00 0,00 2.239,44 2.319,39 29.025,01 3.278,00 6.372,05 0,00 0,00 9.650,05 19.374,96 30/11/2020
138 274100 ALYSSON CARVALHO VIDAL DE LACERDA OFICIAL DO MP MANHUAÇU - COMARCA; MANHUACU-PJ-01PJ 10.069,62 3.020,89 0,00 0,00 4.363,50 0,00 1.173,03 1.550,00 20.177,04 1.753,88 4.232,98 0,00 0,00 5.986,86 14.190,18 30/11/2020
139 621000 AMANDA BASTOS ALVES ANALISTA DO MP BELO HORIZONTE - COMARCA; ASSESS TECNICO-JUR JUNTO AS PROC. DE JUST 8.436,53 843,65 0,00 0,00 0,00 0,00 756,45 1.550,00 11.586,63 1.236,35 1.881,51 0,00 0,00 3.117,86 8.468,77 30/11/2020
140 521700 AMANDA CRISTINA AGUIAR MACHADO OFICIAL DO MP CONGONHAS - COMARCA; CONGONHAS-PJ-01PJ 5.562,64 556,26 0,00 0,00 0,00 0,00 524,21 1.550,00 8.193,11 815,19 931,77 0,00 0,00 1.746,96 6.446,15 30/11/2020
141 613400 AMANDA DE ASSIS IUNES SANTOS ANALISTA DO MP CONGONHAS - COMARCA; CONGONHAS-PJ-01PJ 8.436,53 843,65 0,00 0,00 0,00 0,00 769,38 1.550,00 11.599,56 1.236,35 1.941,38 0,00 0,00 3.177,73 8.421,83 30/11/2020
142 520800 AMANDA DE SOUZA MACHADO ANALISTA DO MP BAEPENDI - COMARCA; BAEPENDI-PJ-UNPJ 10.069,62 1.006,96 0,00 0,00 3.692,19 0,00 1.115,04 1.550,00 17.433,81 1.484,05 3.343,72 0,00 0,00 4.827,77 12.606,04 30/11/2020
143 663900 AMANDA DENISE GONCALVES DA SILVA ASSESSOR BELO HORIZONTE - COMARCA; DIRET DE FORMACAO, APERFEIC. E POS-GRADUACAO 0,00 0,00 3.076,28 0,00 0,00 0,00 173,28 1.550,00 4.799,56 611,72 316,79 0,00 0,00 928,51 3.871,05 30/11/2020
144 677000 AMANDA LETICIA MESSIAS PEGO ASSESSOR PROMOTOR JUSTICA SÃO JOÃO DA PONTE - COMARCA; SAO JOAO DA PONTE-PJ-SECRETARIA 0,00 0,00 7.187,72 0,00 0,00 0,00 0,00 1.550,00 8.737,72 713,09 1.213,66 0,00 0,00 1.926,75 6.810,97 30/11/2020
145 543100 AMANDA VIEIRA FREITAS BRESSANE ANALISTA DO MP VARGINHA - COMARCA; COORD REG DEF ORDEM ECONOMICA TRIB SUL MINAS 9.146,93 914,69 0,00 0,00 0,00 0,00 813,66 1.550,00 12.425,28 1.329,32 2.088,39 0,00 0,00 3.417,71 9.007,57 30/11/2020
146 434400 AMARILIS ASSIS SIMAO CURCIO ANALISTA DO MP MANHUAÇU - COMARCA; MANHUACU-PJ-SECRETARIA 10.069,62 2.013,92 0,00 0,00 0,00 0,00 1.028,92 1.550,00 14.662,46 1.618,96 2.732,82 0,00 0,00 4.351,78 10.310,68 30/11/2020
147 652000 AMAURI SILVA ALVES OFICIAL DO MP BELO HORIZONTE - COMARCA; BH-23PJ INFRACIONAL-SEC EXP 4.376,03 262,56 0,00 0,00 4,35 0,00 598,98 1.550,00 6.791,92 671,12 679,50 0,00 0,00 1.350,62 5.441,30 30/11/2020
148 273700 AMBROLINA CARNEIRO DE VASCONCELOS OFICIAL DO MP FRUTAL - COMARCA; FRUTAL-PJ-01PJ 11.085,56 7.759,90 0,00 0,00 6.442,44 0,00 1.781,99 1.550,00 28.619,89 2.510,68 6.392,27 0,00 0,00 8.902,95 19.716,94 30/11/2020
149 58000 AMELIA GUARIZE DE CASTRO OFICIAL DO MP JUIZ DE FORA - COMARCA; JUIZ DE FORA-PJ-SECRETARIA 6.741,63 6.741,63 0,00 107,78 0,00 1.989,58 1.271,21 1.550,00 18.401,83 1.806,50 3.736,69 0,00 0,00 5.543,19 12.858,64 30/11/2020
150 324301 AMERICA SUELI FERREIRA DA SILVA ANALISTA DO MP MONTE CARMELO - COMARCA; MONTE CARMELO-PJ-02PJ 10.069,62 1.006,96 0,00 0,00 0,00 0,00 1.110,14 2.319,39 14.506,11 1.484,05 2.380,51 0,00 0,00 3.864,56 10.641,55 30/11/2020
151 273300 AMUJACY DE BRITO ASSIZ OFICIAL DO MP BELO HORIZONTE - COMARCA; BH-12PJ JUIZO CRIMINAL-SECRETARIA 10.069,62 3.020,89 0,00 0,00 0,00 0,00 1.232,43 1.550,00 15.872,94 1.753,88 2.911,67 0,00 0,00 4.665,55 11.207,39 30/11/2020
152 482200 ANA ALICE LOPES ACHTSCHIN ANALISTA DO MP BELO HORIZONTE - COMARCA; PROC JUST RECURSOS ESP E EXTRAORD CRIMINAIS 10.736,08 1.073,61 0,00 0,00 4.034,14 0,00 1.131,14 1.550,00 18.524,97 1.610,13 3.795,74 0,00 0,00 5.405,87 13.119,10 30/11/2020
153 490400 ANA AMELIA PAULINO GARCIA OFICIAL DO MP CONTAGEM - COMARCA; CONTAGEM-PJ-SECRETARIA 7.663,37 766,34 0,00 0,00 0,00 0,00 678,17 1.550,00 10.657,88 1.199,37 1.799,23 0,00 0,00 2.998,60 7.659,28 30/11/2020
154 690400 ANA ANGELICA MOREIRA DA CUNHA ASSESSOR PROMOTOR JUSTICA TIMÓTEO - COMARCA; TIMOTEO-PJ-02PJ 0,00 0,00 7.187,72 0,00 0,00 0,00 0,00 1.550,00 8.737,72 713,09 1.213,66 0,00 0,00 1.926,75 6.810,97 30/11/2020
155 279100 ANA CAROLINA ARAUJO PEREIRA ANALISTA DO MP BELO HORIZONTE - COMARCA; DIRETORIA DE PROJETOS DE EDIFICACOES 18.820,14 5.646,04 0,00 0,00 0,00 0,00 1.884,55 1.550,00 27.900,73 3.298,09 6.561,81 0,00 0,00 9.859,90 18.040,83 30/11/2020
156 653300 ANA CAROLINA CYRNE DINIZ ASSESSOR BELO HORIZONTE - COMARCA; CENTRAL DE APOIO TECNICO-SETOR CONTABIL 0,00 0,00 8.170,49 0,00 0,00 0,00 722,20 1.550,00 10.442,69 713,09 1.973,76 0,00 0,00 2.686,85 7.755,84 30/11/2020
157 359400 ANA CAROLINA DE ABREU FARIA ASSESSOR BELO HORIZONTE - COMARCA; SUPERINTENDÊNCIA DE ENGENHARIA E ARQUITETURA 0,00 0,00 12.597,52 0,00 0,00 0,00 895,65 -650,00 12.843,17 713,09 2.719,71 0,00 0,00 3.432,80 9.410,37 30/11/2020
158 408500 ANA CAROLINA DE CASTRO CARVALHO ANALISTA DO MP BARBACENA - COMARCA; BARBACENA - SECRETARIA DAS PJS CRIMINAIS 13.011,52 2.602,30 0,00 0,00 5.204,61 0,00 1.922,03 1.550,00 24.290,46 2.126,52 5.293,40 0,00 0,00 7.419,92 16.870,54 30/11/2020
159 688000 ANA CAROLINA DE OLIVEIRA PINTO ASSESSOR PROCURADOR JUSTICA BELO HORIZONTE - COMARCA; GABINETE DE PROCURADOR DE JUSTIÇA - SALA 1014 0,00 0,00 7.187,72 0,00 0,00 0,00 0,00 1.550,00 8.737,72 713,09 1.213,66 0,00 0,00 1.926,75 6.810,97 30/11/2020
160 420200 ANA CAROLINA FERNANDES SILVA ANALISTA DO MP BELO HORIZONTE - COMARCA; GABINETE DE PROCURADOR DE JUSTIÇA - SALA 704 12.601,30 2.520,26 0,00 0,00 0,00 0,00 1.180,17 1.550,00 17.851,73 2.151,47 3.917,67 0,00 0,00 6.069,14 11.782,59 30/11/2020
161 522100 ANA CAROLINA FERNANDINO VIDAL PEREIRA SANTOS OFICIAL DO MP BELO HORIZONTE - COMARCA; SECRETARIA DO PROCON-MG 7.421,79 742,18 0,00 0,00 65,19 0,00 646,33 1.550,00 10.425,49 1.099,72 1.577,52 0,00 0,00 2.677,24 7.748,25 30/11/2020
162 502400 ANA CAROLINA GONCALVES FERNANDES ANALISTA DO MP IPATINGA - COMARCA; IPATINGA-PJ-01PJ 10.069,62 1.006,96 0,00 0,00 3.692,19 0,00 1.139,71 2.319,39 18.227,87 1.484,05 3.521,78 0,00 0,00 5.005,83 13.222,04 30/11/2020
163 529900 ANA CAROLINA GONCALVES PECANHA CHEQUER ANALISTA DO MP MANHUAÇU - COMARCA; MANHUACU-PJ-04PJ 9.146,93 914,69 0,00 0,00 0,00 0,00 811,23 3.088,78 13.961,63 1.329,32 2.150,20 0,00 0,00 3.479,52 10.482,11 30/11/2020
164 431900 ANA CAROLINA MOTTA GUATIMOSIM ANALISTA DO MP BELO HORIZONTE - COMARCA; ASSESSORIA JURIDICO-ADMINISTRATIVA 12.601,30 2.520,26 0,00 0,00 0,00 0,00 1.157,82 2.319,39 18.598,77 2.151,47 3.917,67 0,00 0,00 6.069,14 12.529,63 30/11/2020
165 490600 ANA CAROLINA XAVIER GODOY ANALISTA DO MP BELO HORIZONTE - COMARCA; GABINETE DE PROCURADOR DE JUSTIÇA - SALA 1006 10.069,62 1.006,96 0,00 0,00 0,00 0,00 1.123,47 3.088,78 15.288,83 1.484,05 2.402,16 0,00 0,00 3.886,21 11.402,62 30/11/2020
166 600300 ANA CAROLINE PEREIRA DINIZ ANALISTA DO MP BELO HORIZONTE - COMARCA; COMB CRIMES PRAT POR AG POL MUN-SECRETARIA 9.146,93 914,69 0,00 0,00 0,00 0,00 935,26 2.319,39 13.316,27 1.329,32 2.088,39 0,00 0,00 3.417,71 9.898,56 30/11/2020
167 615800 ANA CAROLINE PEREIRA OLIVEIRA OFICIAL DO MP ALFENAS - COMARCA; ALFENAS-PJ-06PJ 5.387,19 538,72 0,00 0,00 0,00 0,00 559,96 1.550,00 8.035,87 789,47 887,22 0,00 0,00 1.676,69 6.359,18 30/11/2020
168 324800 ANA CECILIA MENDES DA SILVA OFICIAL DO MP OURO FINO - COMARCA; OURO FINO-PJ-01PJ 10.069,62 3.020,89 0,00 0,00 4.363,50 0,00 1.112,55 1.550,00 20.116,56 1.753,88 4.180,84 0,00 0,00 5.934,72 14.181,84 30/11/2020
169 441300 ANA CLAUDIA ALKIMIM MIRANDA BOMTEMPO ANALISTA DO MP MONTES CLAROS - COMARCA; MONTES CLAROS-PJ-11PJ 12.601,30 2.520,26 0,00 0,00 0,00 0,00 1.644,15 6.993,76 23.759,47 2.151,47 3.813,40 0,00 0,00 5.964,87 17.794,60 30/11/2020
170 642500 ANA CLAUDIA DA COSTA NAVES OFICIAL DO MP MONTE CARMELO - COMARCA; MONTE CARMELO-PJ-02PJ 4.376,03 262,56 0,00 0,00 41,64 0,00 383,36 2.319,39 7.382,98 617,98 505,64 0,00 0,00 1.123,62 6.259,36 30/11/2020
171 604900 ANA CLAUDIA OLIVEIRA DE MIRANDA OFICIAL DO MP PONTE NOVA - COMARCA; PONTE NOVA-PJ-04PJ 5.387,19 538,72 0,00 0,00 5,41 0,00 505,79 1.550,00 7.987,11 800,67 859,99 0,00 0,00 1.660,66 6.326,45 30/11/2020
172 379300 ANA CRISTINA ALVES FLAVIO ANALISTA DO MP SÃO GOTARDO - COMARCA; SAO GOTARDO-PJ-01PJ 14.324,23 2.864,85 0,00 0,00 0,00 0,00 1.445,81 2.319,39 20.954,28 2.315,44 4.230,36 0,00 0,00 6.545,80 14.408,48 30/11/2020
173 461200 ANA CRISTINA ALVES PASCHOAL ANALISTA DO MP SANTA LUZIA - COMARCA; SANTA LUZIA-PJ-03PJ 10.069,62 1.006,96 0,00 0,00 0,00 0,00 959,56 1.550,00 13.586,14 1.484,05 2.380,51 0,00 0,00 3.864,56 9.721,58 30/11/2020
174 514100 ANA CRISTINA ARAUJO ASSUNCAO ANALISTA DO MP BELO HORIZONTE - COMARCA; ASSESS JUR DO CONS SUPERIOR DO MINISTERIO PUB 10.069,62 1.006,96 0,00 0,00 0,00 0,00 1.148,45 2.319,39 14.544,42 1.484,05 2.380,51 0,00 0,00 3.864,56 10.679,86 30/11/2020
175 113400 ANA CRISTINA BRAGA ALBUQUERQUE ASSESSOR/ANALISTA BELO HORIZONTE - COMARCA; ASSESS ESP ADM E FINANCEIRA DO PGJ ADJ ADM 30.090,04 21.063,02 0,00 0,00 11.820,74 39.363,06 0,00 1.550,00 103.886,86 3.900,84 13.571,78 15.690,84 0,00 33.163,46 70.723,40 30/11/2020
176 233800 ANA CRISTINA BRAGA SOARES OFICIAL DO MP CONTAGEM - COMARCA; CONTAGEM-PJ-SECRETARIA 10.736,08 3.220,82 0,00 0,00 4.652,30 0,00 1.204,39 1.550,00 21.363,59 1.859,40 4.532,97 0,00 0,00 6.392,37 14.971,22 30/11/2020
177 186400 ANA CRISTINA DE AZEVEDO LOPES OFICIAL DO MP UBÁ - COMARCA; UBA-PJ-01PJ 14.790,66 5.916,26 0,00 0,00 7.087,96 0,00 1.835,99 1.550,00 31.180,87 2.758,67 7.166,82 0,00 0,00 9.925,49 21.255,38 30/11/2020
178 693000 ANA CRISTINA DE MELO SILVEIRA ASSESSOR PROCURADOR JUSTICA BELO HORIZONTE - COMARCA; PROCURADORIA-GERAL DE JUSTICA 0,00 0,00 6.708,54 0,00 0,00 0,00 0,00 1.550,00 8.258,54 713,09 1.081,89 0,00 0,00 1.794,98 6.463,56 30/11/2020
179 465100 ANA CRISTINA DE OLIVEIRA GUIMARAES ANALISTA DO MP ITAJUBA - COMARCA; ITAJUBA-PJ-05PJ 10.069,62 1.006,96 0,00 0,00 0,00 0,00 1.108,05 3.088,78 15.273,41 1.484,05 2.402,16 0,00 0,00 3.886,21 11.387,20 30/11/2020
180 500600 ANA CRISTINA LATADO SUDARIO ANALISTA DO MP UBERLÂNDIA - COMARCA; UBERLANDIA-PJ-09PJ 10.069,62 1.006,96 0,00 0,00 0,00 0,00 1.079,97 1.550,00 13.706,55 1.484,05 2.432,64 0,00 0,00 3.916,69 9.789,86 30/11/2020
181 331400 ANA CRISTINA RIBEIRO ALVES OFICIAL DO MP BAMBUÍ - COMARCA; BAMBUI-PJ-UNPJ 9.146,93 2.744,08 0,00 0,00 3.963,67 0,00 1.673,44 1.550,00 19.078,12 1.625,53 3.856,14 0,00 0,00 5.481,67 13.596,45 30/11/2020
182 249300 ANA ELOINA MARTINS OFICIAL DO MP BETIM - COMARCA; BETIM-PJ-02PJ 12.601,30 5.040,52 0,00 0,00 17,53 0,00 1.587,08 1.550,00 20.796,43 2.510,05 4.829,32 0,00 0,00 7.339,37 13.457,06 30/11/2020
183 257400 ANA FLAVIA CAMBRAIA ANALISTA DO MP BELO HORIZONTE - COMARCA; BH-19PJ SAUDE-SECRETARIA 150PJ 18.103,37 5.431,01 0,00 0,00 7.844,79 0,00 2.100,56 1.560,60 35.040,33 3.131,66 8.203,77 0,00 0,00 11.335,43 23.704,90 30/11/2020
184 248201 ANA FLAVIA DE MORAIS SOUZA ANALISTA DO MP DIVINÓPOLIS - COMARCA; DIVINOPOLIS-PJ-01PJ 10.069,62 3.020,89 0,00 0,00 4.363,50 0,00 1.302,97 2.319,39 21.076,37 1.753,88 4.215,91 0,00 0,00 5.969,79 15.106,58 30/11/2020
185 621100 ANA FLAVIA DINIZ TEODORO OFICIAL DO MP SANTA LUZIA - COMARCA; SANTA LUZIA-PJ-06PJ 5.387,19 538,72 0,00 0,00 0,00 0,00 499,95 1.550,00 7.975,86 789,47 887,22 0,00 0,00 1.676,69 6.299,17 30/11/2020
186 238600 ANA FLAVIA FRANCO OFICIAL DO MP BELO HORIZONTE - COMARCA; DIRETORIA DE PESSOAL ADMINISTRATIVO - DPAD 13.011,52 3.903,46 0,00 0,00 5.790,49 0,00 1.626,20 1.550,00 25.881,67 2.306,18 5.812,42 0,00 0,00 8.118,60 17.763,07 30/11/2020
187 690000 ANA FLAVIA LURIAN DE PAIVA ASSESSOR PROCURADOR JUSTICA BELO HORIZONTE - COMARCA; GABINETE DE PROCURADOR DE JUSTIÇA - SALA 609 0,00 0,00 7.187,72 0,00 0,00 0,00 0,00 1.550,00 8.737,72 713,09 1.213,66 0,00 0,00 1.926,75 6.810,97 30/11/2020
188 402900 ANA FLAVIA PORTES DE CARVALHO ANALISTA DO MP BELO HORIZONTE - COMARCA; DIRET DE PLANOS PROJETOS E PROGRAMAS INST 14.324,23 2.864,85 0,00 0,00 5.729,69 0,00 1.509,16 1.550,00 25.977,93 2.315,44 5.910,03 0,00 0,00 8.225,47 17.752,46 30/11/2020
189 382700 ANA KARENINA SALDANHA GONTIJO ANALISTA DO MP BELO HORIZONTE - COMARCA; ASSESS TECNICO-JUR JUNTO AS PROC. DE JUST 13.872,60 2.774,52 0,00 0,00 0,00 0,00 1.358,09 2.319,39 20.324,60 2.368,50 4.507,95 0,00 0,00 6.876,45 13.448,15 30/11/2020
190 620500 ANA KARINE DE ANDRADE OLIVEIRA ANALISTA DO MP RIBEIRÃO DAS NEVES - COMARCA; SEC PJ EXECUCAO PENAL RIBEIRAO NEVES 7.663,37 766,34 0,00 0,00 0,00 0,00 729,04 1.550,00 10.708,75 1.123,05 1.683,81 0,00 0,00 2.806,86 7.901,89 30/11/2020
191 462200 ANA LUCIA ANDRADE TOMICH OTTONI ANALISTA DO MP TEÓFILO OTONI - COMARCA; TEOFILO OTONI-PJ-07PJ 10.069,62 1.006,96 0,00 0,00 3.692,19 0,00 958,38 1.550,00 17.277,15 1.484,05 3.395,86 0,00 0,00 4.879,91 12.397,24 30/11/2020
192 504100 ANA LUCIA CATAO DE CARVALHO OFICIAL DO MP BELO HORIZONTE - COMARCA; BH-09PJ AUDITORIA MILITAR-SECRETARIA 7.663,37 766,34 0,00 0,00 71,64 0,00 782,44 2.319,39 11.603,18 1.199,37 1.747,09 0,00 0,00 2.946,46 8.656,72 30/11/2020
193 274700 ANA LUCIA DE ALENCAR BRAGATO OFICIAL DO MP UBERABA - COMARCA; UBERABA-PJ-07PJ 10.069,62 3.020,89 0,00 0,00 4.478,70 0,00 1.267,72 1.550,00 20.386,93 1.753,88 4.232,98 0,00 0,00 5.986,86 14.400,07 30/11/2020
194 509400 ANA LUCIA DORNELAS MALLOSTO ANALISTA DO MP JUIZ DE FORA - COMARCA; JUIZ DE FORA-PJ-25PJ 10.069,62 1.006,96 0,00 0,00 0,00 0,00 987,72 1.550,00 13.614,30 1.467,56 2.413,03 0,00 0,00 3.880,59 9.733,71 30/11/2020
195 302600 ANA LUCIA LOPES SANTOS OFICIAL DO MP BELO HORIZONTE - COMARCA; DIVISÃO DE FISCALIZAÇÃO DAS RELAÇÕES DE CONSU 10.069,62 3.020,89 0,00 0,00 0,00 0,00 2.690,50 1.578,34 17.359,35 1.753,88 3.561,81 0,00 0,00 5.315,69 12.043,66 30/11/2020
196 493400 ANA LUISA NOGUEIRA MOREIRA ANALISTA DO MP BELO HORIZONTE - COMARCA; BH-19PJ SAUDE-SECRETARIA 130PJ 10.069,62 1.006,96 0,00 0,00 0,00 0,00 1.013,04 1.550,00 13.639,62 1.484,05 2.432,64 0,00 0,00 3.916,69 9.722,93 30/11/2020
197 389300 ANA LUISA REUTER LIMA ANALISTA DO MP BELO HORIZONTE - COMARCA; DIRETORIA DE SISTEMAS DE INFORMACAO 11.819,15 2.363,83 0,00 0,00 113,28 0,00 1.122,44 1.550,00 16.968,70 1.910,52 3.381,55 0,00 0,00 5.292,07 11.676,63 30/11/2020
198 480600 ANA LUIZA FERNANDES FRAGA E GRECO OFICIAL DO MP BELO HORIZONTE - COMARCA; BH-23PJ CIVEL-SEC EXP CIVEIS 7.421,79 742,18 0,00 0,00 0,00 0,00 660,88 1.550,00 10.374,85 1.099,72 1.617,12 0,00 0,00 2.716,84 7.658,01 30/11/2020
199 481400 ANA MARCIA CANDIDA FERREIRA OFICIAL DO MP BRUMADINHO - COMARCA; BRUMADINHO-PJ-02PJ 6.123,79 612,38 0,00 0,00 59,12 0,00 918,79 1.550,00 9.264,08 1.000,84 1.357,50 0,00 0,00 2.358,34 6.905,74 30/11/2020
200 643100 ANA MARIA LOPES MIRANDA ANALISTA DO MP BELO HORIZONTE - COMARCA; CAO-FUNDACOES 7.421,79 445,31 0,00 0,00 0,00 0,00 645,33 1.550,00 10.062,43 671,12 1.566,31 0,00 0,00 2.237,43 7.825,00 30/11/2020
201 556400 ANA MARIA OLIVEIRA SOUZA OFICIAL DO MP ITAPECERICA - COMARCA; ITAPECERICA-PJ-UNPJ 5.930,75 593,08 0,00 0,00 0,00 0,00 821,70 1.550,00 8.895,53 891,72 1.114,70 0,00 0,00 2.006,42 6.889,11 30/11/2020
202 409600 ANA OLIVIA FARIA ROSENBURG ANALISTA DO MP BELO HORIZONTE - COMARCA; DIRETORIA DO COLEGIO E DA CAMARA DE PJ 13.011,52 3.903,46 0,00 0,00 5.638,33 0,00 2.812,70 1.550,00 26.916,01 2.253,49 6.173,79 0,00 0,00 8.427,28 18.488,73 30/11/2020
203 461500 ANA PAULA ALVES CARVALHO ANALISTA DO MP UBERLÂNDIA - COMARCA; UBERLANDIA-PJ-25PJ 10.069,62 1.006,96 0,00 0,00 0,00 0,00 1.072,18 2.319,39 14.468,15 1.484,05 2.506,43 0,00 0,00 3.990,48 10.477,67 30/11/2020
204 523200 ANA PAULA ALVES DA SILVA OFICIAL DO MP GOVERNADOR VALADARES - COMARCA; GOVERNADOR VALADARES-PJ-10PJ 7.421,79 742,18 0,00 0,00 0,00 0,00 652,09 4.626,47 13.442,53 1.099,72 1.522,65 0,00 0,00 2.622,37 10.820,16 30/11/2020
205 381200 ANA PAULA BARROS PEREIRA RIGHI ANALISTA DO MP BELO HORIZONTE - COMARCA; PROC JUST RECURSOS ESP E EXTRAORD CRIMINAIS 14.324,23 2.864,85 0,00 0,00 0,00 0,00 1.477,03 2.319,39 20.985,50 2.315,44 4.334,37 0,00 0,00 6.649,81 14.335,69 30/11/2020
206 227200 ANA PAULA DA SILVA CAMPOLINA ANALISTA DO MP BELO HORIZONTE - COMARCA; DIRETORIA DE ORCAMENTO-DIOR/SPC 18.820,14 9.410,07 0,00 0,00 9.410,07 0,00 2.630,95 1.550,00 41.821,23 3.782,30 10.134,03 0,00 0,00 13.916,33 27.904,90 30/11/2020
207 84200 ANA PAULA DE SOUZA ROCHA OFICIAL DO MP BELO HORIZONTE - COMARCA; DIRETORIA DE CONTABILIDADE 28.280,68 19.796,48 0,00 0,00 11.820,74 0,00 0,00 1.550,00 61.447,90 3.900,84 12.217,09 12.614,94 0,00 28.732,87 32.715,03 30/11/2020
208 278500 ANA PAULA DIAS CAPANEMA OFICIAL DO MP BELO HORIZONTE - COMARCA; DIRETORIA DE SEGURANCA 10.069,62 3.020,89 0,00 0,00 4.363,50 0,00 1.421,05 1.550,00 20.425,06 1.753,88 4.231,19 0,00 2,29 5.987,36 14.437,70 30/11/2020
209 327300 ANA PAULA GARCIA MAXIMO OFICIAL DO MP UNAÍ - COMARCA; UNAI-PJ-01PJ 11.085,56 4.434,22 0,00 0,00 5.316,43 0,00 1.576,12 1.550,00 23.962,33 2.115,97 5.104,91 0,00 0,00 7.220,88 16.741,45 30/11/2020
210 270000 ANA PAULA GOULART CRUZ DE MAGALHAES ANALISTA DO MP BELO HORIZONTE - COMARCA; COMB CRIMES PRAT POR AG POL MUN-ASSESSORIA 13.872,60 4.161,78 0,00 0,00 0,00 0,00 1.548,36 1.550,00 21.132,74 2.458,80 4.601,47 0,00 0,00 7.060,27 14.072,47 30/11/2020
211 262100 ANA PAULA KOMATSUZAKI ABIJAUDI ANALISTA DO MP BELO HORIZONTE - COMARCA; BH-17PJ PATRIMONIO PUBLICO-SECRETARIA 18.103,37 7.241,35 0,00 0,00 8.448,24 0,00 2.200,10 1.550,00 37.543,06 3.372,56 8.853,57 0,00 0,00 12.226,13 25.316,93 30/11/2020
212 278900 ANA PAULA MOREIRA GURGEL ANALISTA DO MP BELO HORIZONTE - COMARCA; DIRETORIA-GERAL 18.820,14 7.528,06 0,00 0,00 8.782,73 0,00 2.330,16 1.550,00 39.011,09 3.460,68 9.245,91 0,00 0,00 12.706,59 26.304,50 30/11/2020
213 425701 ANA PAULA ROCHA ANALISTA DO MP BELO HORIZONTE - COMARCA; ASSESSORIA DE COMUNICACAO INTEGRADA 8.858,43 885,84 0,00 0,00 0,00 0,00 765,10 2.319,39 12.828,76 1.279,56 1.977,67 0,00 0,00 3.257,23 9.571,53 30/11/2020
214 692700 ANA PAULA RODRIGUES GOMES GONCALVES ASSESSOR PROCURADOR JUSTICA BELO HORIZONTE - COMARCA; PROCURADORIAS DE JUSTIÇA 0,00 0,00 6.708,54 0,00 0,00 0,00 0,00 1.550,00 8.258,54 713,09 1.029,75 0,00 0,00 1.742,84 6.515,70 30/11/2020
215 395601 ANA PAULA SALGE OLIVEIRA ANALISTA DO MP UBERABA - COMARCA; COORD REG PP TRIANGULO MINEIRO UBERABA 10.069,62 3.020,89 0,00 0,00 0,00 0,00 1.348,81 1.550,00 15.989,32 1.753,88 3.033,02 0,00 0,00 4.786,90 11.202,42 30/11/2020
216 473200 ANA PAULA SCOTTON BRASIL ANALISTA DO MP JUIZ DE FORA - COMARCA; JUIZ DE FORA-PJ-07PJ 10.069,62 1.006,96 0,00 0,00 3.692,19 0,00 1.067,03 2.319,39 18.155,19 1.484,05 3.448,00 0,00 0,00 4.932,05 13.223,14 30/11/2020
217 633600 ANA PAULA SILVA FERNANDES OFICIAL DO MP CATAGUASES - COMARCA; CATAGUASES-PJ-04PJ 5.217,34 521,73 0,00 0,00 0,00 0,00 431,70 1.550,00 7.720,77 756,84 849,91 0,00 0,00 1.606,75 6.114,02 30/11/2020
218 470900 ANA PAULA VALADARES ANALISTA DO MP PITANGUI - COMARCA; PITANGUI-PJ-01PJ 10.069,62 1.006,96 0,00 0,00 0,00 0,00 978,66 1.550,00 13.605,24 1.484,05 2.328,37 0,00 0,00 3.812,42 9.792,82 30/11/2020
219 447000 ANA PAULA VALENTIM DE ARAUJO ANALISTA DO MP BELO HORIZONTE - COMARCA; COMB CRIMES PRAT POR AG POL MUN-ASSESSORIA 10.069,62 2.013,92 0,00 0,00 0,00 0,00 975,54 1.550,00 14.609,08 1.618,96 2.732,82 0,00 0,00 4.351,78 10.257,30 30/11/2020
220 604200 ANA PAULA VIANA E SILVA OFICIAL DO MP BELO HORIZONTE - COMARCA; BH-17PJ PATRIMONIO PUBLICO-SECRETARIA 5.930,75 593,08 0,00 0,00 2.228,91 0,00 522,64 2.037,28 11.312,66 878,79 1.683,95 0,00 0,00 2.562,74 8.749,92 30/11/2020
221 505400 ANA PAULA VIEIRA SOUTO OFICIAL DO MP ALMENARA - COMARCA; ALMENARA-PJ-01PJ 6.123,79 1.837,14 0,00 0,00 0,00 0,00 676,20 1.550,00 10.187,13 1.049,12 1.412,79 0,00 0,00 2.461,91 7.725,22 30/11/2020
222 280200 ANA RACHEL BRANDAO LADEIRA ROLAND DIRETOR/ANALISTA BELO HORIZONTE - COMARCA; SUPRIN DE FORMACAO E APERFEICOAMENTO-SFA/CEAF 17.413,92 5.224,18 3.482,78 0,00 0,00 0,00 2.134,52 1.550,00 29.805,40 3.012,40 6.999,79 0,00 0,00 10.012,19 19.793,21 30/11/2020
223 691000 ANA RACHEL DOS REIS E SENA COSTA ASSESSOR PROMOTOR JUSTICA BELO HORIZONTE - COMARCA; GABINETE DE PROCURADOR DE JUSTIÇA - SALA 601 0,00 0,00 6.708,54 0,00 0,00 0,00 0,00 1.550,00 8.258,54 713,09 1.081,89 0,00 0,00 1.794,98 6.463,56 30/11/2020
224 601200 ANA REGINA RIBEIRO COORDENADOR/ANALISTA BELO HORIZONTE - COMARCA; DIV FISCAL ADM CONT TERCEIRIZACAO 0,00 1.181,92 11.819,15 0,00 0,00 0,00 1.131,95 1.550,00 15.683,02 1.418,55 3.075,99 0,00 24,70 4.519,24 11.163,78 30/11/2020
225 384700 ANA RODRIGUES PEREIRA MARRA ANALISTA DO MP COROMANDEL - COMARCA; COROMANDEL-PJ-UNPJ 10.069,62 2.013,92 0,00 0,00 0,00 0,00 1.180,15 2.319,39 15.583,08 1.618,96 2.628,55 0,00 0,00 4.247,51 11.335,57 30/11/2020
226 232700 ANA SILVIA SEMBLANO NAKAMURA ASSESSOR/OFICIAL BELO HORIZONTE - COMARCA; CENT DE APOIO TEC-SETOR DEF,IDOSO E INFANC 0,00 3.119,26 10.397,52 0,00 4.505,59 0,00 1.324,52 1.550,00 20.896,89 1.764,10 4.412,03 0,00 0,00 6.176,13 14.720,76 30/11/2020
227 602100 ANACLETO FRANCISCO MARCIER PIMENTA OFICIAL DO MP SÃO JOÃO DEL REI - COMARCA; SAO JOAO DEL REI-PJ-03PJ 5.387,19 538,72 0,00 0,00 0,00 0,00 538,20 3.088,78 9.552,89 783,07 648,74 0,00 0,00 1.431,81 8.121,08 30/11/2020
228 310400 ANADEJE DO CARMO DINIZ ARAUJO OFICIAL DO MP BELO HORIZONTE - COMARCA; DIRETORIA DE PESSOAL ADMINISTRATIVO - DPAD 10.069,62 3.020,89 0,00 0,00 4.363,50 0,00 1.011,36 1.550,00 20.015,37 1.725,11 4.248,19 0,00 0,00 5.973,30 14.042,07 30/11/2020
229 337000 ANAILDES MARIA MENDES OFICIAL DO MP JANAÚBA - COMARCA; JANAUBA-PJ-02PJ 9.444,70 1.888,94 0,00 0,00 0,00 0,00 1.117,86 2.883,61 15.335,11 1.509,92 2.490,22 0,00 0,00 4.000,14 11.334,97 30/11/2020
230 192900 ANATALIA CERQUEIRA LIMA PERES OFICIAL DO MP UBERABA - COMARCA; COORD REG SAUDE MACROR SANIT TRIANGULO SUL 11.085,56 4.434,22 0,00 0,00 5.305,24 0,00 1.429,09 1.550,00 23.804,11 2.067,62 5.153,74 0,00 0,00 7.221,36 16.582,75 30/11/2020
231 377400 ANDEIRSON DA MATTA BARBOSA ANALISTA DO MP POUSO ALEGRE - COMARCA; POUSO ALEGRE-PJ-01PJ 10.069,62 2.013,92 0,00 0,00 0,00 0,00 1.211,81 1.550,00 14.845,35 1.618,96 2.732,82 0,00 0,00 4.351,78 10.493,57 30/11/2020
232 317400 ANDERSON DA SILVA BICALHO OFICIAL DO MP CONTAGEM - COMARCA; CONTAGEM-PJ-SECRETARIA 9.146,93 1.829,39 0,00 0,00 3.747,86 0,00 893,16 1.550,00 17.167,34 1.450,18 3.207,03 0,00 0,00 4.657,21 12.510,13 30/11/2020
233 506900 ANDERSON DE SOUZA DAMIANI ANALISTA DO MP BELO HORIZONTE - COMARCA; DIRETORIA DE PAGAMENTO DE PESSOAL-DPAG 10.069,62 3.020,89 0,00 0,00 0,00 0,00 1.344,35 2.319,39 16.754,25 1.753,88 2.928,74 0,00 0,00 4.682,62 12.071,63 30/11/2020
234 410000 ANDERSON DE SOUZA NETO ASSESSOR BELO HORIZONTE - COMARCA; DIRETORIA DE ADMINISTRACAO FINANCEIRA 0,00 0,00 5.136,32 0,00 0,00 0,00 516,69 1.550,00 7.203,01 713,09 957,46 0,00 0,00 1.670,55 5.532,46 30/11/2020
235 181900 ANDERSON FLAVIO DE OLIVEIRA OFICIAL DO MP ITAGUARA - COMARCA; ITAGUARA-PJ-SECRETARIA 13.011,52 5.204,61 0,00 0,00 0,00 0,00 1.492,90 1.550,00 21.259,03 2.426,84 4.530,35 0,00 0,00 6.957,19 14.301,84 30/11/2020
236 333200 ANDERSON JOSE DE FREITAS OFICIAL DO MP IPATINGA - COMARCA; IPATINGA-PJ-04PJ 9.444,70 2.833,41 0,00 0,00 0,00 0,00 2.714,93 1.550,00 16.543,04 1.613,81 3.049,06 0,00 0,00 4.662,87 11.880,17 30/11/2020
237 462100 ANDERSON LUIZ GUIMARAES CARDOSO ANALISTA DO MP BARBACENA - COMARCA; BARBACENA-PJ-02PJ 10.736,08 1.073,61 0,00 0,00 4.034,14 0,00 1.133,24 1.550,00 18.527,07 1.610,13 3.795,74 0,00 0,00 5.405,87 13.121,20 30/11/2020
238 429700 ANDERSON MELO DE SOUZA ASSESSOR/OFICIAL BELO HORIZONTE - COMARCA; DIRET DE ESTAGIOS E CONVENIOS ACADEMICOS 0,00 2.079,50 10.397,52 0,00 4.159,01 0,00 1.083,53 1.550,00 19.269,56 1.107,55 4.148,99 0,00 0,00 5.256,54 14.013,02 30/11/2020
239 545600 ANDERSON MENDES PROCOPIO FERREIRA ANALISTA DO MP BELO HORIZONTE - COMARCA; BH-12PJ JUIZO CRIMINAL-GAB 089PJ 9.146,93 914,69 0,00 0,00 0,00 0,00 929,10 1.550,00 12.540,72 1.329,32 2.150,20 0,00 0,00 3.479,52 9.061,20 30/11/2020
240 519900 ANDERSON MOREIRA DOEHLER ANALISTA DO MP TEÓFILO OTONI - COMARCA; COORD REG SAUDE MACRORREGIAO SANIT NORDESTE 10.069,62 3.020,89 0,00 0,00 0,00 0,00 1.181,85 1.550,00 15.822,36 1.773,88 3.159,32 0,00 0,00 4.933,20 10.889,16 30/11/2020
241 103000 ANDERSON TADEU DE DEUS ASSESSOR BELO HORIZONTE - COMARCA; BH-26 CRIME CONT CRIAN ADOL-SECRETARIA 0,00 3.595,42 5.136,32 0,00 0,00 0,00 876,11 1.550,00 11.157,85 713,09 2.161,75 0,00 0,00 2.874,84 8.283,01 30/11/2020
242 309200 ANDITYAS SOARES DE MOURA COSTA MATOS ANALISTA DO MP BELO HORIZONTE - COMARCA; GABINETE DE PROCURADOR DE JUSTIÇA - SALA 304 14.790,66 4.437,20 0,00 0,00 6.572,71 0,00 1.552,96 1.550,00 28.903,53 2.735,70 6.980,12 0,00 0,00 9.715,82 19.187,71 30/11/2020
243 519200 ANDRE BORJA LANA ANALISTA DO MP BELO HORIZONTE - COMARCA; CENTRO JORNALISMO 10.069,62 1.006,96 0,00 0,00 0,00 0,00 1.314,24 1.550,00 13.940,82 1.545,27 2.564,41 0,00 5,72 4.115,40 9.825,42 30/11/2020
244 637200 ANDRE FERNANDES DA CUNHA OFICIAL DO MP MORADA NOVA DE MINAS - COMARCA; MORADA NOVA DE MINAS-PJ-UNPJ 5.217,34 521,73 0,00 0,00 0,00 0,00 451,70 1.550,00 7.740,77 671,12 830,48 0,00 0,00 1.501,60 6.239,17 30/11/2020
245 651500 ANDRE GONCALVES MARANHAO OFICIAL DO MP JACINTO - COMARCA; JACINTO-PJ-SECRETARIA 4.376,03 262,56 0,00 0,00 4,35 0,00 352,57 1.550,00 6.545,51 657,60 593,80 0,00 0,00 1.251,40 5.294,11 30/11/2020
246 521900 ANDRE LUIS GOMES SILVA ANALISTA DO MP FORMIGA - COMARCA; FORMIGA-PJ-02PJ 10.069,62 1.006,96 0,00 0,00 0,00 0,00 1.096,67 2.319,39 14.492,64 1.484,05 1.712,69 0,00 0,00 3.196,74 11.295,90 30/11/2020
247 304300 ANDRE LUIZ AVELAR ANALISTA DO MP BELO HORIZONTE - COMARCA; DIRETORIA DE REDES E BANCOS DE DADOS 8.436,53 2.530,96 0,00 0,00 0,00 0,00 921,57 1.550,00 13.439,06 1.469,43 2.347,99 0,00 0,00 3.817,42 9.621,64 30/11/2020
248 397400 ANDRE PATARO MYRRHA DE PAULA E SILVA ANALISTA DO MP BELO HORIZONTE - COMARCA; ASSESSORIA JURIDICO-ADMINISTRATIVA 14.324,23 2.864,85 0,00 0,00 8,27 0,00 1.425,90 2.319,39 20.942,64 2.315,44 4.282,50 0,00 0,00 6.597,94 14.344,70 30/11/2020
249 650100 ANDRE THOME VARGAS OFICIAL DO MP LEOPOLDINA - COMARCA; LEOPOLDINA-PJ-04PJ 4.817,57 289,05 0,00 0,00 4,79 0,00 451,77 1.550,00 7.113,18 671,12 795,41 0,00 0,00 1.466,53 5.646,65 30/11/2020
250 548500 ANDRE VINICIUS CARVALHO MEIRA ANALISTA DO MP JUIZ DE FORA - COMARCA; JUIZ DE FORA-PJ-24PJ 9.146,93 914,69 0,00 0,00 0,00 0,00 953,42 1.550,00 12.565,04 1.329,32 2.088,39 0,00 0,00 3.417,71 9.147,33 30/11/2020
251 297200 ANDRE WILLE ROSARIO ANALISTA DO MP BELO HORIZONTE - COMARCA; ASSESSORIA ESPECIAL DO PGJ 17.413,92 5.224,18 0,00 0,00 7.546,03 0,00 2.046,59 1.550,00 33.780,72 3.012,40 7.804,11 0,00 0,00 10.816,51 22.964,21 30/11/2020
252 423600 ANDREA COSTA GUALBERTO ALVES ANALISTA DO MP GOVERNADOR VALADARES - COMARCA; COORD REG PJ DEF EDU DIR CRIANCA ADOL RIODOCE 12.601,30 8.820,91 0,00 0,00 0,00 0,00 2.004,17 1.550,00 24.976,38 2.853,97 5.428,58 0,00 0,00 8.282,55 16.693,83 30/11/2020
253 198600 ANDREA CRISTINA ANDRADE COSTA E SOUZA OFICIAL DO MP MONTES CLAROS - COMARCA; MONTES CLAROS-PJ-15PJ 15.272,02 6.108,81 0,00 0,00 190,82 0,00 4.171,03 1.550,00 27.292,68 3.156,99 6.102,80 0,00 0,00 9.259,79 18.032,89 30/11/2020
254 467300 ANDREA DE CASSIA PENNA ALVERNAZ ANALISTA DO MP PONTE NOVA - COMARCA; PONTE NOVA-PJ-01PJ 10.069,62 1.006,96 0,00 0,00 3.692,19 0,00 1.029,79 1.550,00 17.348,56 1.484,05 3.395,86 0,00 0,00 4.879,91 12.468,65 30/11/2020
255 308000 ANDREA DE CASSIA SANTOS OLIVEIRA ANALISTA DO MP BELO HORIZONTE - COMARCA; COORD DE GABINETE DO PGJ 16.750,82 5.025,25 0,00 0,00 7.258,69 0,00 1.768,17 1.550,00 32.352,93 2.871,47 7.463,67 0,00 0,00 10.335,14 22.017,79 30/11/2020
256 349500 ANDREA DE OLIVEIRA LOIOLA REGIS OFICIAL DO MP IGUATAMA - COMARCA; IGUATAMA-PJ-UNPJ 9.752,14 1.950,43 0,00 0,00 0,00 0,00 924,30 1.550,00 14.176,87 1.665,03 2.783,19 0,00 0,00 4.448,22 9.728,65 30/11/2020
257 287900 ANDREA FERNANDES PENA MARTINS OFICIAL DO MP MONTES CLAROS - COMARCA; MONTES CLAROS-PJ-09PJ 10.069,62 3.020,89 0,00 0,00 4.363,50 0,00 1.318,60 1.550,00 20.322,61 1.753,88 4.128,71 0,00 0,00 5.882,59 14.440,02 30/11/2020
258 300800 ANDREA FERREIRA ANALISTA DO MP LAVRAS - COMARCA; LAVRAS-PJ-04PJ 15.272,02 4.581,61 0,00 0,00 6.617,88 0,00 1.883,56 1.550,00 29.905,07 2.645,00 6.835,68 0,00 0,00 9.480,68 20.424,39 30/11/2020
259 316700 ANDREA FRANCISCA DIAS DE SOUZA ASSESSOR BELO HORIZONTE - COMARCA; ASSESSORIA JURIDICA DO PROCON-MG 0,00 0,00 3.076,28 0,00 0,00 0,00 272,88 2.319,39 5.668,55 621,37 331,39 0,00 0,00 952,76 4.715,79 30/11/2020
260 395100 ANDREA LANNA MENDES NOVAIS ANALISTA DO MP BELO HORIZONTE - COMARCA; PROMOT ESTADUAL DE DEF PATRI CULT E TUR DE MG 14.324,23 2.864,85 0,00 0,00 5.867,10 0,00 1.375,66 1.550,00 25.981,84 2.265,23 5.694,30 0,00 0,00 7.959,53 18.022,31 30/11/2020
261 67300 ANDREA LEAO MAGALHAES ROQUE ASSESSOR BELO HORIZONTE - COMARCA; COORD ESTADUAL COMBATE CRIMES CIBERNETICOS 0,00 7.278,26 10.397,52 0,00 0,00 0,00 1.678,36 1.550,00 20.904,14 713,09 5.105,44 0,00 0,00 5.818,53 15.085,61 30/11/2020
262 335700 ANDREA LOPES PEREIRA ANALISTA DO MP GOVERNADOR VALADARES - COMARCA; COORD REG DO MA DA BACIA DO RIO DOCE 16.750,82 5.025,25 0,00 0,00 156,35 0,00 1.790,02 1.550,00 25.272,44 2.893,77 5.569,28 0,00 0,00 8.463,05 16.809,39 30/11/2020
263 389200 ANDREA TUPINI DOS SANTOS TRISTAO DA ROCHA COORDENADOR/OFICIAL BELO HORIZONTE - COMARCA; BH-13ª PJ JUÍZO DE TÓXICOS-SECRETARIA 0,00 2.363,83 11.819,15 113,37 0,00 2.093,33 1.288,96 1.550,00 19.228,64 1.900,25 3.878,85 0,00 4,76 5.783,86 13.444,78 30/11/2020
264 419000 ANDREIA BARBOSA DE ALMEIDA ANALISTA DO MP BELO HORIZONTE - COMARCA; GABINETE DE PROCURADOR DE JUSTIÇA - SALA 705 12.601,30 2.520,26 0,00 0,00 0,00 0,00 1.416,63 1.550,00 18.088,19 2.014,56 3.710,60 0,00 0,00 5.725,16 12.363,03 30/11/2020
265 281501 ANDREIA CARLA COSTA ANALISTA DO MP UBÁ - COMARCA; UBA-PJ-02PJ 13.011,52 2.602,30 0,00 0,00 5.204,61 0,00 1.490,50 1.550,00 23.858,93 2.080,14 5.190,23 0,00 0,00 7.270,37 16.588,56 30/11/2020
266 477100 ANDREIA DE ALMEIDA RIBEIRO MELO OFICIAL DO MP CONTAGEM - COMARCA; CONTAGEM-PJ-SECRETARIA 7.663,37 1.532,67 0,00 0,00 0,00 0,00 798,66 1.550,00 11.544,70 1.308,40 2.041,83 0,00 0,00 3.350,23 8.194,47 30/11/2020
267 619000 ANDREIA FERREIRA NORONHA COORDENADOR/OFICIAL BELO HORIZONTE - COMARCA; DIRETORIA DE SERVICO CRIMINAL 0,00 1.343,52 13.435,16 0,00 0,00 0,00 1.430,98 1.550,00 17.759,66 1.006,25 3.894,13 0,00 10,73 4.911,11 12.848,55 30/11/2020
268 424000 ANDREIA LUCIA COUTO ANALISTA DO MP BELO HORIZONTE - COMARCA; BH-18PJ DIREITOS HUMANOS-SECRETARIA 13.011,52 2.602,30 0,00 0,00 0,00 0,00 1.386,98 1.550,00 18.550,80 2.092,58 3.887,36 0,00 0,00 5.979,94 12.570,86 30/11/2020
269 370100 ANDREIA MARIA SILVA PINTO OFICIAL DO MP CORONEL FABRICIANO - COMARCA; CORONEL FABRICIANO-PJ-01PJ 9.146,93 1.829,39 0,00 0,00 0,00 0,00 967,19 2.319,39 14.262,90 1.496,51 2.531,19 0,00 0,00 4.027,70 10.235,20 30/11/2020
270 382100 ANDREIA NATALI PEREIRA DE OLIVEIRA OFICIAL DO MP PRADOS - COMARCA; PRADOS-PJ-UNPJ 8.858,43 1.771,69 0,00 0,00 0,00 0,00 1.079,72 1.550,00 13.259,84 1.436,24 2.326,27 0,00 0,00 3.762,51 9.497,33 30/11/2020
271 275200 ANDREIA RIBEIRO FREITAS OFICIAL DO MP VIÇOSA - COMARCA; VICOSA-PJ-04PJ 10.069,62 3.020,89 0,00 0,00 0,00 0,00 1.228,42 1.550,00 15.868,93 1.753,88 2.980,88 0,00 0,00 4.734,76 11.134,17 30/11/2020
272 352200 ANDREIA XAVIER PEREIRA OFICIAL DO MP CLÁUDIO - COMARCA; CLAUDIO-PJ-UNPJ 9.752,14 1.950,43 0,00 0,00 98,15 0,00 1.081,01 1.550,00 14.431,73 1.665,03 2.835,33 0,00 0,00 4.500,36 9.931,37 30/11/2020
273 638500 ANDRESA ALVES FEITOSA CASAGRANDE ANALISTA DO MP LAVRAS - COMARCA; COORD REG DO MA DA BACIA DO RIO GRANDE 8.170,49 817,05 0,00 0,00 0,00 0,00 725,23 1.550,00 11.262,77 671,12 1.889,31 0,00 0,00 2.560,43 8.702,34 30/11/2020
274 383700 ANDRESSA EDUARDO SOUZA ANALISTA DO MP OURO BRANCO - COMARCA; OURO BRANCO-PJ-SECRETARIA 14.324,23 2.864,85 0,00 0,00 133,21 0,00 2.302,96 2.319,39 21.944,64 2.315,44 4.282,50 0,00 0,00 6.597,94 15.346,70 30/11/2020
275 678400 ANDRESSA LUIZA SILVA LOPES ASSESSOR PROMOTOR JUSTICA CARMO DO PARANAÍBA - COMARCA; CARMO DO PARANAIBA-PJ-02PJ 0,00 0,00 7.187,72 0,00 0,00 0,00 0,00 1.550,00 8.737,72 713,09 1.213,66 0,00 0,00 1.926,75 6.810,97 30/11/2020
276 426200 ANDRESSA MENDES CASAL OFICIAL DO MP BELO HORIZONTE - COMARCA; DIR ESTRUTURA E PROCESSOS ORGANIZACIONAIS 7.421,79 1.484,36 0,00 0,00 0,00 0,00 701,38 1.550,00 11.157,53 1.173,68 1.795,97 0,00 0,00 2.969,65 8.187,88 30/11/2020
277 390100 ANDRESSA RIBEIRO PUCCI OFICIAL DO MP UBERABA - COMARCA; UBERABA-PJ-14PJ 6.741,63 1.348,33 0,00 0,00 0,00 0,00 644,14 1.550,00 10.284,10 1.062,13 1.493,87 0,00 0,00 2.556,00 7.728,10 30/11/2020
278 462500 ANDREZA APARECIDA COSTA E SILVA ANALISTA DO MP CONSELHEIRO LAFAIETE - COMARCA; CONSELHEIRO LAFAIETE-PJ-02PJ 10.069,62 1.006,96 0,00 0,00 0,00 0,00 1.043,11 1.550,00 13.669,69 1.484,05 2.432,64 0,00 0,00 3.916,69 9.753,00 30/11/2020
279 677700 ANDREZA DE LOURDES FERREIRA DE PAIVA ASSESSOR PROMOTOR JUSTICA ABRE CAMPO - COMARCA; ABRE CAMPO-PJ-01PJ 0,00 0,00 7.187,72 0,00 0,00 0,00 0,00 1.550,00 8.737,72 713,09 1.213,66 0,00 0,00 1.926,75 6.810,97 30/11/2020
280 537800 ANDREZZA LUZIA DE OLIVEIRA ALVES ANALISTA DO MP PATOS DE MINAS - COMARCA; COORD REG PJ DEF EDU DIR CRI ADO AL PAR NOROE 9.146,93 914,69 0,00 0,00 3.353,87 0,00 917,28 1.550,00 15.882,77 1.329,32 2.958,56 0,00 0,00 4.287,88 11.594,89 30/11/2020
281 491600 ANE PATRICIA RIBEIRO ANALISTA DO MP SETE LAGOAS - COMARCA; SETE LAGOAS-PJ-11PJ 10.069,62 1.006,96 0,00 0,00 0,00 0,00 1.017,34 1.550,00 13.643,92 1.484,05 2.380,51 0,00 0,00 3.864,56 9.779,36 30/11/2020
282 465800 ANELISE GAMA ASSESSOR BELO HORIZONTE - COMARCA; BH-18PJ VIOLENCIA DOMESTICA-SECRETARIA 0,00 0,00 8.170,49 0,00 0,00 0,00 629,11 1.550,00 10.349,60 713,09 1.973,76 0,00 0,00 2.686,85 7.662,75 30/11/2020
283 535200 ANELIZE FERNANDA ALVES VILARINHO OFICIAL DO MP CAPINÓPOLIS - COMARCA; CAPINOPOLIS-PJ-UNPJ 5.387,19 538,72 0,00 0,00 0,00 0,00 828,16 2.319,39 9.073,46 815,38 981,32 0,00 0,00 1.796,70 7.276,76 30/11/2020
284 197200 ANGELA COELHO SALDANHA OFICIAL DO MP PARÁ DE MINAS - COMARCA; PARA DE MINAS-PJ-03PJ 15.272,02 6.108,81 0,00 0,00 0,00 0,00 2.059,03 1.550,00 24.989,86 2.848,46 5.606,39 0,00 0,00 8.454,85 16.535,01 30/11/2020
285 307400 ANGELA CRISTINA GONCALVES MUNIZ ANALISTA DO MP UBERLÂNDIA - COMARCA; UBERLANDIA-PJ-SEC FAMILIA 17.413,92 6.965,57 0,00 0,00 202,18 0,00 1.885,77 2.319,39 28.786,83 3.203,95 6.207,30 0,00 0,00 9.411,25 19.375,58 30/11/2020
286 191800 ANGELA MARIA DE OLIVEIRA OFICIAL DO MP GUARANÉSIA - COMARCA; GUARANESIA-PJ-SECRETARIA 15.272,02 10.690,41 0,00 0,00 0,00 0,00 2.253,80 1.550,00 29.766,23 3.458,85 6.826,57 0,00 0,00 10.285,42 19.480,81 30/11/2020
287 497400 ANGELA MARIA HENRIQUES ANALISTA DO MP BELO HORIZONTE - COMARCA; COORD REG BACIAS RIO VELHAS E PARAOPEBA 10.069,62 1.006,96 0,00 0,00 0,00 0,00 1.151,10 1.550,00 13.777,68 1.484,05 2.506,43 0,00 0,00 3.990,48 9.787,20 30/11/2020
288 260700 ANGELICA CRISTINA AZEVEDO MOREIRA MOUCO OFICIAL DO MP UBÁ - COMARCA; UBA-PJ-05PJ 12.601,30 3.780,39 0,00 0,00 135,35 0,00 1.422,81 1.550,00 19.489,85 2.330,76 4.316,59 0,00 0,00 6.647,35 12.842,50 30/11/2020
289 334600 ANGELICA PANISSA DE FREITAS GALLATI OFICIAL DO MP GUAXUPÉ - COMARCA; GUAXUPE-PJ-02PJ 10.069,62 3.020,89 0,00 0,00 4.471,45 0,00 1.222,91 2.319,39 21.104,26 1.773,88 4.225,35 0,00 0,00 5.999,23 15.105,03 30/11/2020
290 521100 ANGELICA SALES MOREIRA OFICIAL DO MP BELO HORIZONTE - COMARCA; BH-02PJ FAMILIA-SECRETARIA 7.421,79 742,18 0,00 0,00 0,00 0,00 651,84 1.550,00 10.365,81 1.099,72 1.577,52 0,00 0,00 2.677,24 7.688,57 30/11/2020
291 466500 ANGELLO MARQUES AGRELLI ANALISTA DO MP MAR DE ESPANHA - COMARCA; MAR DE ESPANHA-PJ-UNPJ 10.069,62 1.006,96 0,00 0,00 3.692,19 0,00 957,23 1.550,00 17.276,00 1.484,05 3.448,00 0,00 0,00 4.932,05 12.343,95 30/11/2020
292 363300 ANGELO VERDOLIN HENRIQUES ANALISTA DO MP SETE LAGOAS - COMARCA; SETE LAGOAS-PJ-04PJ 15.272,02 6.108,81 0,00 0,00 0,00 0,00 1.983,14 2.319,39 25.683,36 2.915,07 5.754,60 0,00 0,00 8.669,67 17.013,69 30/11/2020
293 250900 ANISIO APARECIDO SANTOS OFICIAL DO MP MARIANA - COMARCA; MARIANA-PJ-02PJ 6.123,79 2.449,52 0,00 0,00 0,00 0,00 791,24 1.550,00 10.914,55 1.148,65 773,07 0,00 0,00 1.921,72 8.992,83 30/11/2020
294 651200 ANITA MARIA SANT ANA DE MATTOS FONTES OFICIAL DO MP ERVÁLIA - COMARCA; ERVALIA-PJ-UNPJ 4.817,57 3.372,30 0,00 0,00 0,00 0,00 657,01 1.550,00 10.396,88 1.165,23 1.723,98 0,00 0,00 2.889,21 7.507,67 30/11/2020
295 253400 ANNA FLAVIA LEHMAN BATTAGLIA ANALISTA DO MP BELO HORIZONTE - COMARCA; CAO-PATRIMONIO PUBLICO 18.103,37 5.431,01 0,00 0,00 7.844,79 0,00 2.225,88 1.550,00 35.155,05 3.131,66 8.099,49 0,00 0,00 11.231,15 23.923,90 30/11/2020
296 688800 ANNA LUIZA MATTOS DUARTE ASSESSOR PROCURADOR JUSTICA BELO HORIZONTE - COMARCA; GABINETE DE PROCURADOR DE JUSTIÇA - SALA 305 0,00 0,00 7.187,72 0,00 0,00 0,00 0,00 1.550,00 8.737,72 713,09 1.213,66 0,00 0,00 1.926,75 6.810,97 30/11/2020
297 447600 ANNGELUCE ALCANTARA DE CAMPOS OFICIAL DO MP DIVINÓPOLIS - COMARCA; DIVINOPOLIS-PJ-SECRETARIA 7.421,79 1.484,36 0,00 -13,80 3.037,61 0,00 860,10 1.550,00 14.340,06 2.149,08 4.728,74 0,00 0,00 6.877,82 7.462,24 30/11/2020
298 119600 ANSELMO BORGES PARREIRAS OFICIAL DO MP BONFIM - COMARCA; BONFIM-PJ-UNPJ 7.912,85 6.330,29 0,00 120,38 128,47 2.172,05 1.176,64 1.550,00 19.390,68 1.897,54 3.822,35 0,00 0,00 5.719,89 13.670,79 30/11/2020
299 630300 ANTONIA GOMES RAMALHO OFICIAL DO MP NOVO CRUZEIRO - COMARCA; NOVO CRUZEIRO-PJ-UNPJ 5.387,19 538,72 0,00 0,00 48,83 0,00 470,92 3.088,78 9.534,44 834,33 987,03 0,00 0,00 1.821,36 7.713,08 30/11/2020
300 332400 ANTONIA MARIA MAMEDE OFICIAL DO MP UBERLÂNDIA - COMARCA; COORD REG PP TRIANGULO MINEIRO UBERLANDIA 9.752,14 2.925,64 0,00 98,90 4.225,93 1.855,92 1.131,44 1.550,00 21.539,97 1.666,34 4.458,63 0,00 0,00 6.124,97 15.415,00 30/11/2020
301 401600 ANTONIO CARLOS GUEDES AROUCA ANALISTA DO MP BELO HORIZONTE - COMARCA; COORD EST DEF DIR FAM PESSOAS DEFICI IDOSOS 11.819,15 2.363,83 0,00 0,00 0,00 0,00 1.166,38 1.550,00 16.899,36 1.889,52 3.334,82 0,00 0,00 5.224,34 11.675,02 30/11/2020
302 333900 ANTONIO GONCALVES DE SOUZA FILHO OFICIAL DO MP BELO HORIZONTE - COMARCA; DIRETORIA DE CONTABILIDADE 9.752,14 2.925,64 0,00 0,00 0,00 0,00 935,79 1.550,00 15.163,57 1.772,30 3.074,01 0,00 0,00 4.846,31 10.317,26 30/11/2020
303 176100 ANTONIO MARCELO CAMPOS CAMPANELLA OFICIAL DO MP BELO HORIZONTE - COMARCA; COORD DE GABINETE DO PGJ 15.272,02 7.636,01 0,00 0,00 0,00 0,00 2.100,60 1.550,00 26.558,63 3.016,45 5.980,17 0,00 0,00 8.996,62 17.562,01 30/11/2020
304 321001 ANTONIO OLINTO VIEIRA MACHADO ANALISTA DO MP BELO HORIZONTE - COMARCA; CENTRAL DE APOIO TECN-SETOR DE MEIO AMBIENTE 14.324,23 2.864,85 0,00 0,00 5.729,69 0,00 1.545,58 1.550,00 26.014,35 2.265,23 5.746,17 0,00 0,00 8.011,40 18.002,95 30/11/2020
305 356200 ANTONIO PAULA DA SILVA OFICIAL DO MP JUIZ DE FORA - COMARCA; JUIZ DE FORA-PJ-20PJ 8.579,10 2.573,73 0,00 0,00 0,00 0,00 2.140,84 1.550,00 14.843,67 1.616,01 2.799,33 0,00 0,00 4.415,34 10.428,33 30/11/2020
306 119900 ANTONIO RODRIGUES DE PINHO OFICIAL DO MP GUANHÃES - COMARCA; GUANHAES-PJ-01PJ 14.790,66 10.353,46 0,00 0,00 0,00 0,00 2.378,16 2.319,39 29.841,67 3.349,81 6.479,70 0,00 0,00 9.829,51 20.012,16 30/11/2020
307 373300 ANTONIO SERGIO ANANIAS OFICIAL DO MP AIURUOCA - COMARCA; AIURUOCA-PJ-UNPJ 8.579,10 1.715,82 0,00 0,00 83,48 0,00 827,29 1.550,00 12.755,69 1.390,69 2.120,64 0,00 0,00 3.511,33 9.244,36 30/11/2020
308 608100 ANTONIO SIDINEY VIEIRA LEMOS ANALISTA DO MP PIRAPORA - COMARCA; PIRAPORA-PJ-01PJ 8.436,53 3.374,61 0,00 0,00 3.937,05 0,00 1.788,30 1.550,00 19.086,49 1.643,32 3.945,92 0,00 0,00 5.589,24 13.497,25 30/11/2020
309 374700 ANTONIO SILVA NETO OFICIAL DO MP BELO HORIZONTE - COMARCA; GAECO - SECRETARIA 8.858,43 1.771,69 0,00 0,00 0,00 0,00 863,40 1.550,00 13.043,52 1.497,74 2.531,70 0,00 0,00 4.029,44 9.014,08 30/11/2020
310 636700 ANTONIUS VITORIANO FERNANDES OFICIAL DO MP BELO HORIZONTE - COMARCA; ASSESSORIA JURIDICA DO PROCON-MG 4.817,57 481,76 0,00 0,00 0,00 0,00 411,51 1.550,00 7.260,84 671,12 681,49 0,00 0,00 1.352,61 5.908,23 30/11/2020
311 413200 ANY PEREIRA SILVA ANALISTA DO MP TRÊS PONTAS - COMARCA; TRES PONTAS-PJ-01PJ 12.601,30 2.520,26 0,00 0,00 5.169,04 0,00 1.368,16 1.550,00 23.208,76 2.151,47 5.303,82 0,00 0,00 7.455,29 15.753,47 30/11/2020
312 151401 APARECIDA DE FATIMA MENDES DE ALMEIDA ASSESSOR JUIZ DE FORA - COMARCA; JUIZ DE FORA-PJ-SECRETARIA 0,00 0,00 5.136,32 0,00 0,00 0,00 451,79 1.550,00 7.138,11 713,09 957,46 0,00 0,00 1.670,55 5.467,56 30/11/2020
313 329300 APARECIDA MARIA MELO DE ASSIS OFICIAL DO MP BELO HORIZONTE - COMARCA; BH-18PJ DIREITOS HUMANOS-SECRETARIA 10.069,62 3.020,89 0,00 0,00 0,00 0,00 1.026,26 1.550,00 15.666,77 1.729,73 2.979,28 0,00 0,00 4.709,01 10.957,76 30/11/2020
314 475300 APARECIDA MARLENE FREIRE ROSA ANALISTA DO MP BELO HORIZONTE - COMARCA; BH-02PJ FAMILIA-SECRETARIA 12.204,02 10.983,62 0,00 173,68 0,00 3.360,15 1.871,90 1.550,00 30.143,37 3.055,74 6.910,28 0,00 0,00 9.966,02 20.177,35 30/11/2020
315 653000 APARECIDA ROSA DE LIMA ASSESSOR BELO HORIZONTE - COMARCA; SECRETARIA PROCESSOS DISCIPES ADMINISTRATIVOS 0,00 0,00 8.170,49 0,00 0,00 0,00 675,40 1.550,00 10.395,89 713,09 2.028,19 0,00 0,00 2.741,28 7.654,61 30/11/2020
316 354500 APARECIDA VIEIRA DE CARVALHO OFICIAL DO MP BELO HORIZONTE - COMARCA; DIVISÃO DE EDUCAÇÃO PARA O CONSUMO 7.663,37 1.532,67 0,00 0,00 3.065,35 0,00 890,98 1.550,00 14.702,37 1.225,14 2.699,56 0,00 0,00 3.924,70 10.777,67 30/11/2020
317 551000 ARACELES BICALHO FELIX ANALISTA DO MP MANHUAÇU - COMARCA; MANHUACU-PJ-02PJ 9.146,93 914,69 0,00 0,00 0,00 0,00 826,92 2.319,39 13.207,93 1.329,32 2.088,39 0,00 0,00 3.417,71 9.790,22 30/11/2020
318 286200 ARACELI MEDRADO DOS SANTOS LIMA OFICIAL DO MP PARACATU - COMARCA; PARACATU-PJ-03PJ 6.123,79 1.837,14 0,00 0,00 2.653,64 0,00 754,61 1.658,00 13.027,18 1.066,61 2.233,59 0,00 0,00 3.300,20 9.726,98 30/11/2020
319 112200 ARAQUEM AUGUSTO DE MATOS AGENTE DO MP BELO HORIZONTE - COMARCA; BH-23PJ CIVEL-SEC EXP CIVEIS 8.858,43 7.086,74 0,00 142,05 0,00 2.307,87 1.163,23 1.550,00 21.108,32 2.084,00 4.265,06 0,00 0,00 6.349,06 14.759,26 30/11/2020
320 280600 ARDUINO FRATTEZI ANALISTA DO MP BELO HORIZONTE - COMARCA; CENTRAL DE APOIO TECNICO-SETOR CONTABIL 17.413,92 5.224,18 0,00 0,00 7.546,03 0,00 2.030,39 1.550,00 33.764,52 3.012,40 7.908,39 0,00 0,00 10.920,79 22.843,73 30/11/2020
321 520201 ARIANE DE FATIMA CARVALHO ALMEIDA RODRIGUES ANALISTA DO MP VESPASIANO - COMARCA; VESPASIANO-PJ-04PJ 8.436,53 843,65 0,00 0,00 0,00 0,00 766,48 2.319,39 12.366,05 1.236,35 1.725,10 0,00 0,00 2.961,45 9.404,60 30/11/2020
322 537600 ARIELA FREIRE MONTIJO ANALISTA DO MP ARCOS - COMARCA; ARCOS-PJ-01PJ 9.146,93 914,69 0,00 0,00 81,67 0,00 815,00 2.319,39 13.277,68 1.329,32 1.984,11 0,00 0,00 3.313,43 9.964,25 30/11/2020
323 182000 ARILSON ALEXANDRE MARTINS MAGALHAES OFICIAL DO MP JOÃO MONLEVADE - COMARCA; JOAO MONLEVADE-PJ-01PJ 14.790,66 7.395,33 0,00 0,00 7.571,32 0,00 1.875,30 3.088,78 34.721,39 3.143,18 7.958,93 0,00 0,00 11.102,11 23.619,28 30/11/2020
324 511000 ARISLANE CAROLINA DA SILVA ANALISTA DO MP CAMPINA VERDE - COMARCA; CAMPINA VERDE-PJ-UNPJ 10.069,62 1.006,96 0,00 0,00 103,16 0,00 1.011,56 3.088,78 15.280,08 1.484,05 2.432,64 0,00 0,00 3.916,69 11.363,39 30/11/2020
325 170000 ARLEY BRITES DA SILVA ASSESSOR BELO HORIZONTE - COMARCA; BH-14PJ DEFESA CONSUMIDOR-SECRETARIA 0,00 2.054,53 5.136,32 0,00 0,00 0,00 657,50 1.550,00 9.398,35 713,09 798,15 0,00 0,00 1.511,24 7.887,11 30/11/2020
326 120400 ARLINDO CASSIO DA CRUZ OFICIAL DO MP SÃO GONÇALO DO SAPUCAÍ - COMARCA; SAO GONCALO DO SAPUCAI-PJ-01PJ 18.820,14 15.056,11 0,00 270,79 0,00 4.941,21 2.046,65 1.550,00 42.684,90 4.538,77 10.598,95 0,00 0,00 15.137,72 27.547,18 30/11/2020
327 243700 ARLINDO MARCIO LACERDA OFICIAL DO MP CONTAGEM - COMARCA; CONTAGEM-PJ-SECRETARIA 12.601,30 5.040,52 0,00 0,00 0,00 0,00 3.231,62 1.550,00 22.423,44 2.350,32 4.844,21 0,00 0,00 7.194,53 15.228,91 30/11/2020
328 392100 ARNALDO DE ANDRADE OFICIAL DO MP DIVINÓPOLIS - COMARCA; DIVINOPOLIS-PJ-02PJ 8.858,43 1.771,69 0,00 0,00 0,00 0,00 2.558,49 2.319,39 15.508,00 1.416,20 2.791,84 0,00 0,00 4.208,04 11.299,96 30/11/2020
329 642400 ARTANE INARDE DE SIQUEIRA DAMASCENO ANALISTA DO MP BELO HORIZONTE - COMARCA; PROC JUST RECURSOS ESP E EXTRAORD CRIMINAIS -490,23 490,23 0,00 0,00 0,00 0,00 702,57 2.319,39 3.021,96 671,12 1.799,43 0,00 0,00 2.470,55 551,41 30/11/2020
330 302100 AUGUSTO ROUSSEAU DE CASTRO ANALISTA DO MP CATAGUASES - COMARCA; CATAGUASES-PJ-02PJ 18.820,14 5.646,04 0,00 0,00 0,00 0,00 2.006,38 1.550,00 28.022,56 3.213,49 6.425,71 0,00 0,00 9.639,20 18.383,36 30/11/2020
331 540200 AUREA AVELAR BITTENCOURT OFICIAL DO MP BELO HORIZONTE - COMARCA; GRUPO ESP PROM JUST DEF PROB ADM PAT PUB 5.387,19 538,72 0,00 0,00 1.975,30 0,00 479,80 1.550,00 9.931,01 783,07 1.311,91 0,00 0,00 2.094,98 7.836,03 30/11/2020
332 183200 AURELIANO MAGELA DE REZENDE COORDENADOR/OFICIAL BELO HORIZONTE - COMARCA; COORD DE GABINETE DO PGJ 15.499,20 6.199,68 2.687,03 0,00 9,86 0,00 2.116,33 1.550,00 28.062,10 2.932,28 6.760,22 0,00 0,00 9.692,50 18.369,60 30/11/2020
333 629400 AYESKA DA COSTA VAL MOURA DABIEN OFICIAL DO MP BELO HORIZONTE - COMARCA; SUPERINTENDENCIA DE RECURSOS HUMANOS 5.387,19 538,72 0,00 0,00 0,00 0,00 473,03 1.550,00 7.948,94 834,33 987,03 0,00 0,00 1.821,36 6.127,58 30/11/2020
334 691900 BARBARA COUTINHO REIS ASSESSOR PROCURADOR JUSTICA BELO HORIZONTE - COMARCA; GABINETE DE PROCURADOR DE JUSTIÇA - SALA 912 0,00 0,00 6.708,54 0,00 0,00 0,00 0,00 1.550,00 8.258,54 713,09 1.081,89 0,00 0,00 1.794,98 6.463,56 30/11/2020
335 692200 BARBARA CRISTINA MENDES BANDEIRA DE MELO ASSESSOR PROCURADOR JUSTICA BELO HORIZONTE - COMARCA; GABINETE DE PROCURADOR DE JUSTIÇA - SALA 1009 0,00 0,00 6.708,54 0,00 0,00 0,00 0,00 1.550,00 8.258,54 713,09 1.081,89 0,00 0,00 1.794,98 6.463,56 30/11/2020
336 652800 BARBARA JULIANNE MOREIRA CASTRO ASSESSOR BELO HORIZONTE - COMARCA; ASSESS TECNICO-JUR JUNTO AS PROC. DE JUST 0,00 0,00 8.170,49 0,00 0,00 0,00 774,17 1.550,00 10.494,66 713,09 1.973,76 0,00 0,00 2.686,85 7.807,81 30/11/2020
337 663600 BARBARA REGINA PEREIRA DE PINHO MAGALHAES ASSESSOR BELO HORIZONTE - COMARCA; CAO-DH CONT EXT ATIV POLIC E AP COMUNIT-REC 0,00 0,00 8.170,49 0,00 0,00 0,00 568,41 1.550,00 10.288,90 713,09 1.973,76 0,00 0,00 2.686,85 7.602,05 30/11/2020
338 692400 BARBARA SOUZA OLIVEIRA ASSESSOR PROMOTOR JUSTICA DIVINO - COMARCA; DIVINO-PJ-UNPJ 0,00 0,00 6.708,54 0,00 0,00 0,00 0,00 1.550,00 8.258,54 713,09 1.081,89 0,00 0,00 1.794,98 6.463,56 30/11/2020
339 546500 BARBARA ZACARONI GOULART OFICIAL DO MP BETIM - COMARCA; BETIM-PJ-08PJ 5.387,19 538,72 0,00 0,00 1.975,30 0,00 543,36 1.550,00 9.994,57 783,07 1.416,18 0,00 0,00 2.199,25 7.795,32 30/11/2020
340 316500 BEATRIZ ABILVIA DA SILVA ANALISTA DO MP GOVERNADOR VALADARES - COMARCA; GOVERNADOR VALADARES-PJ-07PJ 16.750,82 5.025,25 0,00 0,00 7.258,69 0,00 4.085,69 1.550,00 34.670,45 3.117,85 8.064,00 0,00 0,00 11.181,85 23.488,60 30/11/2020
341 311800 BEATRIZ APARECIDA SOARES GANEM OFICIAL DO MP ITAMBACURI - COMARCA; ITAMBACURI-PJ-02PJ 10.069,62 3.020,89 0,00 0,00 4.363,50 0,00 1.292,63 1.550,00 20.296,64 1.795,98 4.257,44 0,00 0,00 6.053,42 14.243,22 30/11/2020
342 266800 BEATRIZ AUGUSTA VILACA GOMES DE HUBER OFICIAL DO MP BELO HORIZONTE - COMARCA; BH-05PJ-JUÍZO SUCESSÕES-SEC 9.146,93 2.744,08 0,00 0,00 98,25 0,00 1.143,00 1.550,00 14.682,26 1.621,22 2.737,85 0,00 0,00 4.359,07 10.323,19 30/11/2020
343 235200 BEATRIZ BOTELHO BATISTA OFICIAL DO MP BELO HORIZONTE - COMARCA; BH-21PJ TUTELA FUNDACOES-SECRETARIA 10.069,62 4.027,85 0,00 0,00 0,00 0,00 1.186,05 1.550,00 16.833,52 1.880,74 3.409,20 0,00 0,00 5.289,94 11.543,58 30/11/2020
344 182300 BEATRIZ PAULA SOUSA RAMOS OFICIAL DO MP MARIANA - COMARCA; MARIANA-PJ-01PJ 14.790,66 7.395,33 0,00 0,00 0,00 0,00 1.686,82 1.550,00 25.422,81 3.143,18 6.215,21 0,00 0,00 9.358,39 16.064,42 30/11/2020
345 507000 BELCHIOR FRANKLIN AMARAL LEITE ANALISTA DO MP BELO HORIZONTE - COMARCA; CENTRAL DE APOIO TECNICO 10.069,62 1.006,96 0,00 0,00 0,00 0,00 1.717,59 2.319,39 15.113,56 1.546,71 2.415,65 0,00 0,00 3.962,36 11.151,20 30/11/2020
346 345100 BENITO ELIAS RODRIGUES ANALISTA DO MP BARBACENA - COMARCA; BARBACENA - SECRETARIA DAS PJS CRIMINAIS 15.272,02 3.054,40 0,00 0,00 6.265,01 0,00 2.089,43 1.550,00 28.230,86 2.476,09 6.319,87 0,00 0,00 8.795,96 19.434,90 30/11/2020
347 207300 BENITO VIEIRA DOS SANTOS ANALISTA DO MP BELO HORIZONTE - COMARCA; COMB CRIMES PRAT POR AG POL MUN-ASSESSORIA 18.820,14 7.528,06 0,00 210,62 8.782,73 3.893,56 2.581,18 1.550,00 43.366,29 3.530,15 7.052,66 0,00 0,00 10.582,81 32.783,48 30/11/2020
348 480200 BERNADETE NUNES DOS SANTOS ANALISTA DO MP GUANHÃES - COMARCA; GUANHAES-PJ-02PJ 10.069,62 3.020,89 0,00 0,00 0,00 0,00 1.195,30 1.550,00 15.835,81 1.753,88 3.033,02 0,00 0,00 4.786,90 11.048,91 30/11/2020
349 378400 BETANIA FARNESI DE SOUZA E SILVA OFICIAL DO MP SETE LAGOAS - COMARCA; SETE LAGOAS-PJ-SEC CRIMINAIS 8.858,43 3.543,37 0,00 0,00 0,00 0,00 1.013,74 1.580,47 14.996,01 1.747,37 3.046,40 0,00 0,00 4.793,77 10.202,24 30/11/2020
350 387400 BETANIA MENDONCA DE ASSIS CARVALHO ANALISTA DO MP JUIZ DE FORA - COMARCA; JUIZ DE FORA-PJ-03PJ 14.324,23 2.864,85 0,00 0,00 5.866,97 0,00 1.412,25 2.319,39 26.787,69 2.315,44 5.806,02 0,00 0,00 8.121,46 18.666,23 30/11/2020
351 450300 BIANCA OLIVEIRA DE ALBUQUERQUE ANALISTA DO MP BELO HORIZONTE - COMARCA; BH-10PJ EXECUÇÃO PENAL-SECRETARIA 10.069,62 2.013,92 0,00 0,00 0,00 0,00 971,28 1.550,00 14.604,82 1.594,81 2.752,89 0,00 0,00 4.347,70 10.257,12 30/11/2020
352 535400 BIANCA SALOTO ROSSI ANALISTA DO MP SANTOS DUMONT - COMARCA; SANTOS DUMONT-PJ-01PJ 9.146,93 914,69 0,00 0,00 0,00 0,00 810,11 1.550,00 12.421,73 1.329,32 2.088,39 0,00 0,00 3.417,71 9.004,02 30/11/2020
353 120800 BRAS MARQUES DE SOUZA ANALISTA DO MP BELO HORIZONTE - COMARCA; SUPERINTENDENCIA DE GESTAO ADMINISTRATIVA 23.757,25 19.005,81 0,00 0,00 11.820,74 3.900,84 0,00 1.550,00 60.034,64 3.900,84 12.698,42 7.300,84 0,00 23.900,10 36.134,54 30/11/2020
354 460900 BRENO CRISTIANO DE SOUZA REZENDE ANALISTA DO MP ITAÚNA - COMARCA; ITAUNA-PJ-02PJ 9.752,14 975,21 0,00 0,00 89,97 0,00 1.964,92 1.550,00 14.332,24 1.647,65 2.796,66 0,00 0,00 4.444,31 9.887,93 30/11/2020
355 239000 BRENO VENANCIO ROMANINI OFICIAL DO MP BELO HORIZONTE - COMARCA; BH-20PJ ORD ECON TRIBUTARIA-SECRETARIA 10.069,62 3.020,89 0,00 0,00 0,00 0,00 1.582,27 5.215,34 19.888,12 1.753,88 3.033,02 0,00 0,00 4.786,90 15.101,22 30/11/2020
356 202201 BRIGITTE AMARALINA DE CALDAS LIMA OFICIAL DO MP NANUQUE - COMARCA; NANUQUE-PJ-03PJ 10.069,62 4.027,85 0,00 0,00 4.699,16 0,00 1.402,36 1.550,00 21.748,99 1.888,79 4.364,78 0,00 0,00 6.253,57 15.495,42 30/11/2020
357 642300 BRUNA IZABELITA DE FATIMA OLIVEIRA COSTA OFICIAL DO MP BELO HORIZONTE - COMARCA; BH-02PJ FAMILIA-SECRETARIA 5.217,34 313,04 0,00 0,00 44,94 0,00 458,75 1.550,00 7.584,07 730,80 756,68 0,00 0,00 1.487,48 6.096,59 30/11/2020
358 513600 BRUNA KARLA MARTINS CARVALHO ANALISTA DO MP GOVERNADOR VALADARES - COMARCA; GOVERNADOR VALADARES-PJ-14PJ 10.069,62 1.006,96 0,00 0,00 3.692,19 0,00 1.150,99 1.550,00 17.469,76 1.484,05 3.448,00 0,00 0,00 4.932,05 12.537,71 30/11/2020
359 415100 BRUNA MARIA SOARES OLIVEIRA COSTA RAMOS ANALISTA DO MP UBÁ - COMARCA; COORD REG BACIA DO RIO PARAIBA DO SUL 13.011,52 2.602,30 0,00 0,00 0,00 0,00 1.428,68 1.550,00 18.592,50 2.080,14 3.758,96 0,00 0,00 5.839,10 12.753,40 30/11/2020
360 692900 BRUNA MENDES COELHO ASSESSOR PROCURADOR JUSTICA BELO HORIZONTE - COMARCA; GABINETE DE PROCURADOR DE JUSTIÇA - SALA 811 0,00 0,00 6.708,54 0,00 0,00 0,00 0,00 1.550,00 8.258,54 713,09 1.081,89 0,00 0,00 1.794,98 6.463,56 30/11/2020
361 470000 BRUNA MORAES ANALISTA DO MP TOMBOS - COMARCA; TOMBOS-PJ-UNPJ 12.204,02 1.220,40 0,00 0,00 4.474,81 0,00 1.262,03 1.703,88 20.865,14 1.769,11 4.141,07 0,00 0,00 5.910,18 14.954,96 30/11/2020
362 614700 BRUNA NATTANY DE LIMA OFICIAL DO MP MANTENA - COMARCA; MANTENA-PJ-01PJ 5.387,19 538,72 0,00 0,00 2.027,88 0,00 574,54 1.550,00 10.078,33 789,47 1.430,43 0,00 0,00 2.219,90 7.858,43 30/11/2020
363 693300 BRUNA RAMONY ROCHA DA CRUZ ASSESSOR PROMOTOR JUSTICA JAIBA - COMARCA; JAIBA-PJ-SECRETARIA 0,00 0,00 6.708,54 0,00 0,00 0,00 0,00 1.550,00 8.258,54 713,09 1.081,89 0,00 0,00 1.794,98 6.463,56 30/11/2020
364 631800 BRUNA RAPOSO JORGE OFICIAL DO MP JUIZ DE FORA - COMARCA; JUIZ DE FORA-PJ-06PJ 5.387,19 538,72 0,00 0,00 0,00 0,00 472,71 1.550,00 7.948,62 832,70 983,40 0,00 0,00 1.816,10 6.132,52 30/11/2020
365 463800 BRUNO ALVES TEIXEIRA ANALISTA DO MP UBERLÂNDIA - COMARCA; UBERLANDIA-PJ-04PJ 10.069,62 1.006,96 0,00 0,00 3.692,19 0,00 1.111,02 1.550,00 17.429,79 1.484,05 3.448,00 0,00 0,00 4.932,05 12.497,74 30/11/2020
366 538500 BRUNO AUGUSTO DA SILVA OFICIAL DO MP SANTA LUZIA - COMARCA; SANTA LUZIA-PJ-03PJ 5.930,75 593,08 0,00 0,00 0,00 0,00 511,89 1.550,00 8.585,72 859,73 1.043,54 0,00 0,00 1.903,27 6.682,45 30/11/2020
367 318200 BRUNO BARROS DE SOUZA OFICIAL DO MP UBÁ - COMARCA; UBA-PJ-04PJ 10.069,62 3.020,89 0,00 0,00 0,00 0,00 1.203,22 1.550,00 15.843,73 1.753,88 2.378,24 0,00 0,00 4.132,12 11.711,61 30/11/2020
368 459600 BRUNO CASTELAR LUGAO MENDES OFICIAL DO MP GOVERNADOR VALADARES - COMARCA; GOVERNADOR VALADARES-PJ-01PJ 7.912,85 791,29 0,00 0,00 2.979,68 0,00 860,76 1.550,00 14.094,58 1.186,71 2.568,96 0,00 0,00 3.755,67 10.338,91 30/11/2020
369 427400 BRUNO CESAR RIBEIRO DE PAIVA ANALISTA DO MP BELO HORIZONTE - COMARCA; ASSESS JUR DO CONS SUPERIOR DO MINISTERIO PUB 13.011,52 2.602,30 0,00 0,00 0,00 0,00 1.327,52 1.550,00 18.491,34 2.080,14 3.758,96 0,00 0,00 5.839,10 12.652,24 30/11/2020
370 380900 BRUNO CIRILO ANTUNES OFICIAL DO MP VARGINHA - COMARCA; VARGINHA-PJ-05PJ 8.579,10 1.715,82 0,00 0,00 3.525,68 0,00 1.024,85 1.550,00 16.395,45 1.407,79 3.206,66 0,00 0,00 4.614,45 11.781,00 30/11/2020
371 329000 BRUNO DE MELO REIS ANALISTA DO MP PATROCÍNIO - COMARCA; PATROCINIO-PJ-02PJ 16.750,82 5.025,25 0,00 0,00 7.433,24 0,00 1.927,69 3.088,78 34.225,78 2.935,30 7.553,56 0,00 0,00 10.488,86 23.736,92 30/11/2020
372 378300 BRUNO HERDY LOPES DE OLIVEIRA ANALISTA DO MP GOVERNADOR VALADARES - COMARCA; GOVERNADOR VALADARES-PJ-03PJ 14.324,23 2.864,85 0,00 0,00 0,00 0,00 1.516,41 1.550,00 20.255,49 2.315,44 4.386,50 0,00 0,00 6.701,94 13.553,55 30/11/2020
373 529700 BRUNO JOSE BUENO DIAS OFICIAL DO MP SÃO SEBASTIÃO DO PARAÍSO - COMARCA; SAO SEBASTIAO DO PARAISO-PJ-02PJ 5.930,75 593,08 0,00 0,00 0,00 0,00 607,11 1.550,00 8.680,94 859,73 991,40 0,00 0,00 1.851,13 6.829,81 30/11/2020
374 691600 BRUNO JOSE RIBEIRO ASSESSOR PROMOTOR JUSTICA CLÁUDIO - COMARCA; CLAUDIO-PJ-UNPJ 0,00 0,00 6.708,54 0,00 0,00 0,00 0,00 1.550,00 8.258,54 713,09 1.081,89 0,00 0,00 1.794,98 6.463,56 30/11/2020
375 350100 BRUNO LAUD SERRANO DOS REIS OFICIAL DO MP UBÁ - COMARCA; UBA-PJ-02PJ 9.444,70 2.833,41 0,00 0,00 4.092,70 0,00 1.160,71 1.550,00 19.081,52 1.618,05 3.804,15 0,00 0,00 5.422,20 13.659,32 30/11/2020
376 373800 BRUNO MARTINO DE ALBUQUERQUE ANALISTA DO MP PONTE NOVA - COMARCA; PONTE NOVA-PJ-03PJ 14.324,23 2.864,85 0,00 0,00 5.866,97 0,00 2.703,40 1.550,00 27.309,45 2.445,36 6.042,96 0,00 0,00 8.488,32 18.821,13 30/11/2020
377 470400 BRUNO NOVAIS CABRAL ANALISTA DO MP MUTUM - COMARCA; MUTUM-PJ-UNPJ 10.069,62 1.006,96 0,00 0,00 3.692,19 0,00 1.110,46 2.319,39 18.198,62 1.484,05 3.343,72 0,00 0,00 4.827,77 13.370,85 30/11/2020
378 648600 BRUNO RIBEIRO E MELO ASSESSOR BELO HORIZONTE - COMARCA; CENTRO CERIMONIAL 0,00 0,00 8.170,49 0,00 0,00 0,00 715,36 1.550,00 10.435,85 713,09 2.028,19 0,00 0,00 2.741,28 7.694,57 30/11/2020
379 369200 BRUNO ROBERTO DIAS DE OLIVEIRA OFICIAL DO MP BELO HORIZONTE - COMARCA; BH-22PJ PES COM DEF E IDOSOS-SECRETARIA 9.146,93 1.829,39 0,00 0,00 3.658,77 0,00 1.081,22 1.550,00 17.266,31 1.462,32 3.390,46 0,00 0,00 4.852,78 12.413,53 30/11/2020
380 547700 BRUNO ROBERTO SOUZA GONCALVES ANALISTA DO MP PARACATU - COMARCA; PARACATU-PJ-03PJ 9.146,93 914,69 0,00 0,00 0,00 0,00 923,55 3.088,78 14.073,95 1.329,32 2.150,20 0,00 0,00 3.479,52 10.594,43 30/11/2020
381 546100 BRUNO SA VIEIRA ANALISTA DO MP CORONEL FABRICIANO - COMARCA; CORONEL FABRICIANO-PJ-03PJ 9.146,93 914,69 0,00 0,00 0,00 0,00 855,44 1.550,00 12.467,06 1.329,32 2.036,25 0,00 0,00 3.365,57 9.101,49 30/11/2020
382 438200 BRUNO SALES PEREIRA ANALISTA DO MP BELO HORIZONTE - COMARCA; CENTRAL DE APOIO TECNICO-SETOR CONTABIL 12.204,02 2.440,80 0,00 0,00 0,00 0,00 1.252,77 2.319,39 18.216,98 1.972,72 3.556,42 0,00 0,00 5.529,14 12.687,84 30/11/2020
383 537400 BRUNO SANT'ANA CESAR ANALISTA DO MP CONTAGEM - COMARCA; CONTAGEM-PJ-21PJ 9.146,93 914,69 0,00 0,00 0,00 0,00 935,29 1.550,00 12.546,91 1.329,32 2.088,39 0,00 0,00 3.417,71 9.129,20 30/11/2020
384 679000 BRUNO WILLIANS PAULINO DE MELLO ASSESSOR PROCURADOR JUSTICA BELO HORIZONTE - COMARCA; GABINETE DE PROCURADOR DE JUSTIÇA - SALA 1006 0,00 0,00 7.187,72 0,00 0,00 0,00 0,00 1.550,00 8.737,72 713,09 1.213,66 0,00 0,00 1.926,75 6.810,97 30/11/2020
385 405800 CAIO FERNANDO RODRIGUES DE OLIVEIRA ANALISTA DO MP BELO HORIZONTE - COMARCA; ASSESS TECNICO-JUR JUNTO AS PROC. DE JUST 13.011,52 2.602,30 0,00 0,00 5.204,61 0,00 1.493,95 1.550,00 23.862,38 2.080,14 5.290,96 0,00 0,00 7.371,10 16.491,28 30/11/2020
386 530000 CAIO GUEDES DE OLIVEIRA ANALISTA DO MP DIAMANTINA - COMARCA; DIAMANTINA-PJ-02PJ 10.069,62 1.006,96 0,00 0,00 0,00 0,00 822,92 2.319,39 14.218,89 1.440,97 2.284,66 0,00 0,00 3.725,63 10.493,26 30/11/2020
387 491400 CAIO MIRANDA JUNQUEIRA ANALISTA DO MP BUENO BRANDAO - COMARCA; BUENO BRANDAO-PJ-UNPJ 10.069,62 1.006,96 0,00 0,00 0,00 0,00 1.061,54 2.319,39 14.457,51 1.467,56 2.291,69 0,00 0,00 3.759,25 10.698,26 30/11/2020
388 415800 CAMILA ALVES DA SILVA ANALISTA DO MP CAETÉ - COMARCA; CAETE-PJ-01PJ 13.011,52 2.602,30 0,00 0,00 0,00 0,00 1.440,89 1.550,00 18.604,71 2.128,77 3.967,89 0,00 0,00 6.096,66 12.508,05 30/11/2020
389 555800 CAMILA CAROLINE ROCHA CHAVES OFICIAL DO MP SALINAS - COMARCA; SALINAS-PJ-01PJ 5.930,75 593,08 0,00 0,00 0,00 0,00 536,63 1.550,00 8.610,46 859,73 1.043,54 0,00 0,00 1.903,27 6.707,19 30/11/2020
390 445200 CAMILA CONDE ROCHA ANALISTA DO MP CONTAGEM - COMARCA; CONTAGEM-PJ-08PJ 10.069,62 2.013,92 0,00 0,00 0,00 0,00 1.126,97 2.319,39 15.529,90 1.618,96 2.732,82 0,00 0,00 4.351,78 11.178,12 30/11/2020
391 419900 CAMILA CUNNINGHAM PIMENTA DE PADUA ANALISTA DO MP BELO HORIZONTE - COMARCA; ASSESSORIA PSICOSSOCIAL 13.011,52 2.602,30 0,00 0,00 0,00 0,00 1.331,96 1.550,00 18.495,78 2.080,14 3.758,96 0,00 0,00 5.839,10 12.656,68 30/11/2020
392 507700 CAMILA ELIZABETH RODRIGUES ANALISTA DO MP BELO HORIZONTE - COMARCA; BH-02PJ FAMILIA-SECRETARIA 10.736,08 1.073,61 0,00 0,00 4.034,14 0,00 1.178,62 1.550,00 18.572,45 1.610,13 3.795,74 0,00 0,00 5.405,87 13.166,58 30/11/2020
393 372700 CAMILA FONSECA LIMONGE ANALISTA DO MP BETIM - COMARCA; BETIM-PJ-01PJ 14.324,23 2.864,85 0,00 0,00 5.737,96 0,00 1.503,85 2.319,39 26.750,28 2.315,44 5.962,17 0,00 0,00 8.277,61 18.472,67 30/11/2020
394 621300 CAMILA GOLFETO DE SOUSA VALENTE OFICIAL DO MP ESPERA FELIZ - COMARCA; ESPERA FELIZ-PJ-UNPJ 5.387,19 538,72 0,00 0,00 2.027,88 0,00 712,91 2.703,54 11.370,24 810,05 1.319,80 0,00 0,00 2.129,85 9.240,39 30/11/2020
395 409800 CAMILA GONCALVES COSTA RIBEIRO ANALISTA DO MP INHAPIM - COMARCA; INHAPIM-PJ-02PJ 10.069,62 2.013,92 0,00 0,00 0,00 0,00 1.133,98 2.319,39 15.536,91 1.618,96 2.761,18 0,00 0,00 4.380,14 11.156,77 30/11/2020
396 335000 CAMILA GONTIJO DE PAIVA ANALISTA DO MP BELO HORIZONTE - COMARCA; COORD DE CONTROLE DA CONSTITUCIONALIDADE 16.112,82 3.222,56 0,00 0,00 16,65 0,00 1.736,16 1.550,00 22.638,19 2.716,74 5.247,14 0,00 0,00 7.963,88 14.674,31 30/11/2020
397 693400 CAMILA HECKSHER MONTEIRO ASSESSOR PROCURADOR JUSTICA BELO HORIZONTE - COMARCA; GABINETE DE PROCURADOR DE JUSTIÇA - SALA 613 0,00 0,00 6.708,54 0,00 0,00 0,00 0,00 1.550,00 8.258,54 713,09 1.081,89 0,00 0,00 1.794,98 6.463,56 30/11/2020
398 547800 CAMILA MATTARELLI DE ABREU E SILVA ANALISTA DO MP BELO HORIZONTE - COMARCA; CAO-VIOLENCIA DOMESTICA E FAMILIAR 9.146,93 914,69 0,00 0,00 0,00 0,00 840,25 1.550,00 12.451,87 1.329,32 2.150,20 0,00 0,00 3.479,52 8.972,35 30/11/2020
399 430000 CANDIDA MARINA COSTA ANALISTA DO MP BELO HORIZONTE - COMARCA; DIVISAO DE DOCUMENTACAO JURIDICA 13.011,52 2.602,30 0,00 0,00 0,00 0,00 1.318,80 1.550,00 18.482,62 2.128,77 3.867,16 0,00 0,00 5.995,93 12.486,69 30/11/2020
400 614300 CARINA CORTIELHA OFICIAL DO MP BELO HORIZONTE - COMARCA; BH-23PJ CIVEL-SEC EXP CIVEIS 4.974,42 497,44 0,00 0,00 0,00 0,00 498,69 1.550,00 7.520,55 728,99 752,64 0,00 0,00 1.481,63 6.038,92 30/11/2020
401 380400 CARINA DIAS FACANHA DE SOUZA ANALISTA DO MP SANTA RITA DO SAPUCAÍ - COMARCA; SANTA RITA DO SAPUCAI-PJ-SECRETARIA 14.324,23 2.864,85 0,00 0,00 0,00 0,00 1.370,30 1.550,00 20.109,38 2.315,44 4.282,50 0,00 0,00 6.597,94 13.511,44 30/11/2020
402 255000 CARLA ADRIANA DE MENEZES OFICIAL DO MP BELO HORIZONTE - COMARCA; CENT DE APOIO TEC-SETOR DEF,IDOSO E INFANC 10.069,62 3.020,89 0,00 0,00 4.363,50 0,00 1.363,21 1.550,00 20.367,22 1.753,88 4.232,98 0,00 0,00 5.986,86 14.380,36 30/11/2020
403 425100 CARLA ADRIANA DINIZ AMARAL OFICIAL DO MP CONTAGEM - COMARCA; CONTAGEM-PJ-SECRETARIA 8.579,10 1.715,82 0,00 0,00 3.431,64 0,00 938,84 1.550,00 16.215,40 1.360,14 3.100,66 0,00 0,00 4.460,80 11.754,60 30/11/2020
404 508100 CARLA ALESSANDRA FONSECA ANALISTA DO MP BELO HORIZONTE - COMARCA; CAO-ORDEM ECONOMICA E TRIBUTARIA-SECRETARIA 10.069,62 1.006,96 0,00 0,00 0,00 0,00 1.148,51 1.550,00 13.775,09 1.484,05 2.506,43 0,00 0,00 3.990,48 9.784,61 30/11/2020
405 607100 CARLA ANGELICA DIAS MIRANDA OFICIAL DO MP JABOTICATUBAS - COMARCA; JABOTICATUBAS-PJ-UNPJ 5.930,75 593,08 0,00 0,00 5,21 0,00 509,50 1.550,00 8.588,54 878,79 929,53 0,00 0,00 1.808,32 6.780,22 30/11/2020
406 351500 CARLA APARECIDA MENDES RAMIRIO OFICIAL DO MP PASSOS - COMARCA; PASSOS-PJ-01PJ 9.146,93 1.829,39 0,00 0,00 0,00 0,00 1.048,11 1.550,00 13.574,43 1.496,51 2.479,05 0,00 0,00 3.975,56 9.598,87 30/11/2020
407 442800 CARLA GONCALVES COSTA SOALHEIRO ANALISTA DO MP GOVERNADOR VALADARES - COMARCA; GOVERNADOR VALADARES-PJ-11PJ 10.069,62 2.013,92 0,00 0,00 0,00 0,00 1.112,33 2.319,39 15.515,26 1.618,96 2.761,18 0,00 0,00 4.380,14 11.135,12 30/11/2020
408 321500 CARLA GONCALVES MASSOTE OFICIAL DO MP CAMPO BELO - COMARCA; CAMPO BELO-PJ-01PJ 10.069,62 3.020,89 0,00 0,00 0,00 0,00 1.019,48 1.550,00 15.659,99 1.729,73 2.979,28 0,00 0,00 4.709,01 10.950,98 30/11/2020
409 429200 CARLA HAUTEQUESTT BECHARA COORDENADOR/ANALISTA BELO HORIZONTE - COMARCA; DIRET DE INFORMACAO E CONHECIMENTO-DINC/CEAF 13.011,52 2.602,30 2.687,03 0,00 6.100,28 0,00 1.539,63 1.550,00 27.490,76 2.128,77 6.444,76 0,00 0,00 8.573,53 18.917,23 30/11/2020
410 247500 CARLA MATILDE GUIMARAES DE OLIVEIRA OFICIAL DO MP ITAJUBA - COMARCA; ITAJUBA-PJ-SECRETARIA 10.069,62 4.027,85 0,00 0,00 0,00 0,00 1.223,97 1.550,00 16.871,44 1.888,79 3.281,06 0,00 0,00 5.169,85 11.701,59 30/11/2020
411 226100 CARLA MERLI DA CONCEICAO ANALISTA DO MP BELO HORIZONTE - COMARCA; CENTRAL DE APOIO TECNICO-SETOR CONTABIL 18.820,14 5.646,04 0,00 0,00 8.155,39 0,00 2.435,92 1.550,00 36.607,49 3.278,00 8.614,79 0,00 0,00 11.892,79 24.714,70 30/11/2020
412 181401 CARLO MICHEL GAUDENSI COELHO ANALISTA DO MP BELO HORIZONTE - COMARCA; BH-08PJ JUIZADO ESPECIAL-SECRETARIA 12.601,30 5.040,52 0,00 0,00 5.880,61 0,00 1.491,62 1.550,00 26.564,05 2.350,32 6.091,09 0,00 0,00 8.441,41 18.122,64 30/11/2020
413 634000 CARLOS ALBERTO AMORMINO TRIGUEIRO ANALISTA DO MP BELO HORIZONTE - COMARCA; DIRET DE APOIO AS PROCURADORIAS DE JUSTICA 8.170,49 817,05 0,00 0,00 0,00 0,00 712,64 2.319,39 12.019,57 1.182,04 1.762,92 0,00 0,00 2.944,96 9.074,61 30/11/2020
414 637900 CARLOS ALBERTO DE MOURA OFICIAL DO MP SETE LAGOAS - COMARCA; SETE LAGOAS-PJ-07PJ 5.217,34 521,73 0,00 0,00 0,00 0,00 450,27 1.985,99 8.175,33 671,12 778,35 0,00 0,00 1.449,47 6.725,86 30/11/2020
415 638700 CARLOS ALBERTO FERREIRA BRAGA ANALISTA DO MP MATOZINHOS - COMARCA; MATOZINHOS-PJ-01PJ 8.170,49 817,05 0,00 0,00 0,00 0,00 723,22 1.550,00 11.260,76 671,12 1.789,41 0,00 0,00 2.460,53 8.800,23 30/11/2020
416 375801 CARLOS ALBERTO ROCHA ANALISTA DO MP VARGINHA - COMARCA; GAECO REGIONAL DE VARGINHA 10.069,62 1.006,96 0,00 0,00 0,00 0,00 934,65 1.550,00 13.561,23 1.459,71 2.378,49 0,00 0,00 3.838,20 9.723,03 30/11/2020
417 462800 CARLOS ANDREI SOARES FAGUNDES ANALISTA DO MP MONTES CLAROS - COMARCA; MONTES CLAROS-PJ-09PJ 10.069,62 1.006,96 0,00 0,00 3.692,19 0,00 1.111,02 2.319,39 18.199,18 1.484,05 3.395,86 0,00 0,00 4.879,91 13.319,27 30/11/2020
418 370300 CARLOS AUGUSTO BUENO DIAS ASSESSOR BELO HORIZONTE - COMARCA; SUPERINTENDÊNCIA DE ENGENHARIA E ARQUITETURA 0,00 0,00 10.397,52 0,00 0,00 0,00 962,81 1.550,00 12.910,33 713,09 1.757,68 0,00 0,00 2.470,77 10.439,56 30/11/2020
419 505100 CARLOS CEZAR CARVALHO ANALISTA DO MP RIBEIRÃO DAS NEVES - COMARCA; RIBEIRAO DAS NEVES-PJ-04PJ 10.069,62 4.027,85 0,00 0,00 4.699,16 0,00 1.340,65 1.550,00 21.687,28 1.867,81 4.474,50 0,00 0,00 6.342,31 15.344,97 30/11/2020
420 195900 CARLOS DE SOUZA FERREIRA OFICIAL DO MP COROMANDEL - COMARCA; COROMANDEL-PJ-UNPJ 10.069,62 8.055,69 0,00 0,00 0,00 0,00 1.591,83 1.550,00 21.267,14 2.428,44 4.533,91 0,00 0,00 6.962,35 14.304,79 30/11/2020
421 196800 CARLOS EDUARDO DE OLIVEIRA MARINHO OFICIAL DO MP ALPINÓPOLIS - COMARCA; ALPINOPOLIS-PJ-UNPJ 15.272,02 10.690,41 0,00 0,00 206,08 0,00 3.264,65 1.550,00 30.983,16 3.576,77 7.036,83 0,00 0,00 10.613,60 20.369,56 30/11/2020
422 650800 CARLOS EDUARDO NIZA DA SILVA OFICIAL DO MP IGARAPÉ - COMARCA; IGARAPE-PJ-01PJ 4.376,03 262,56 0,00 0,00 0,00 0,00 411,13 1.550,00 6.599,72 659,98 546,95 0,00 0,00 1.206,93 5.392,79 30/11/2020
423 491800 CARLOS EDUARDO ROMAN OFICIAL DO MP BARBACENA - COMARCA; BARBACENA-PJ-09PJ 7.663,37 1.532,67 0,00 0,00 75,98 0,00 806,58 1.550,00 11.628,60 1.308,40 2.041,83 0,00 0,00 3.350,23 8.278,37 30/11/2020
424 299300 CARLOS HENRIQUE BICALHO ANALISTA DO MP BELO HORIZONTE - COMARCA; BH-17PJ PATRIMONIO PUBLICO-SECRETARIA 17.413,92 6.965,57 0,00 0,00 8.126,50 0,00 2.028,11 2.319,39 36.853,49 3.244,12 8.583,60 0,00 0,00 11.827,72 25.025,77 30/11/2020
425 205100 CARLOS HENRIQUE ESTEVES OFICIAL DO MP ITAMBACURI - COMARCA; ITAMBACURI-PJ-01PJ 15.272,02 6.108,81 0,00 0,00 7.308,77 0,00 1.983,19 1.550,00 32.222,79 2.848,46 7.376,22 0,00 0,00 10.224,68 21.998,11 30/11/2020
426 351600 CARLOS HENRIQUE FELICIO DA FONSECA OFICIAL DO MP JUIZ DE FORA - COMARCA; JUIZ DE FORA-PJ-21PJ 9.752,14 2.925,64 0,00 0,00 0,00 0,00 1.170,16 1.550,00 15.397,94 1.803,78 3.091,91 0,00 0,00 4.895,69 10.502,25 30/11/2020
427 85400 CARLOS JOSE VIEIRA OFICIAL DO MP BELO HORIZONTE - COMARCA; DIRETORIA DO COLEGIO E DA CAMARA DE PJ 23.757,25 19.005,81 0,00 0,00 11.820,74 0,00 0,00 1.550,00 56.133,80 3.900,84 11.729,97 7.300,84 0,00 22.931,65 33.202,15 30/11/2020
428 229100 CARLOS MERCES DE OLIVEIRA ANALISTA DO MP BELO HORIZONTE - COMARCA; CENTRAL DE APOIO TECN-SETOR DE MEIO AMBIENTE 18.820,14 7.528,06 0,00 0,00 0,00 0,00 2.109,49 1.575,33 30.033,02 3.580,07 5.069,67 0,00 0,00 8.649,74 21.383,28 30/11/2020
429 538300 CARLOS RANGEL SILVA DE MELO ANALISTA DO MP BELO HORIZONTE - COMARCA; DIVISAO DE CONTROLE IMOBILIARIO 9.146,93 2.744,08 0,00 0,00 0,00 0,00 986,98 2.319,39 15.197,38 1.571,02 2.626,16 0,00 0,00 4.197,18 11.000,20 30/11/2020
430 265100 CARLOS REIFF MIRANDA ANALISTA DO MP BELO HORIZONTE - COMARCA; BH-19PJ SAUDE-SECRETARIA 150PJ 18.820,14 5.646,04 0,00 0,00 0,00 0,00 1.738,49 1.550,00 27.754,67 3.167,38 6.310,32 0,00 0,00 9.477,70 18.276,97 30/11/2020
431 305400 CARLOS ROCHA DE SOUZA OFICIAL DO MP MONTALVÂNIA - COMARCA; MONTALVANIA-PJ-SECRETARIA 6.123,79 1.837,14 0,00 0,00 0,00 0,00 737,93 2.014,97 10.713,83 1.066,61 1.348,32 0,00 0,00 2.414,93 8.298,90 30/11/2020
432 365100 CARLOS WAGNER SANDER MORAIS COORDENADOR/OFICIAL BELO HORIZONTE - COMARCA; DIRETORIA DE ADMINISTRACAO FINANCEIRA 0,00 2.687,03 13.435,16 -31,97 5.374,06 2.563,69 1.599,10 1.550,00 27.177,07 2.160,06 5.996,48 0,00 244,10 8.400,64 18.776,43 30/11/2020
433 399900 CARMELITA EVANGELISTA DE SOUZA OFICIAL DO MP JOÃO PINHEIRO - COMARCA; JOAO PINHEIRO-PJ-01PJ 7.912,85 1.582,57 0,00 0,00 3.245,59 0,00 881,49 1.550,00 15.172,50 1.294,60 2.881,53 0,00 0,00 4.176,13 10.996,37 30/11/2020
434 202000 CARMEN LUCIA MARIZ DE MACEDO OFICIAL DO MP BELO HORIZONTE - COMARCA; DIRETORIA GESTAO COMPRAS LICITACOES 14.790,66 10.353,47 0,00 0,00 0,00 0,00 2.277,09 1.740,71 29.161,93 3.349,81 6.479,70 0,00 0,00 9.829,51 19.332,42 30/11/2020
435 228500 CAROLINA CHIARELLA DOS SANTOS RIBEIRO ASSESSOR/OFICIAL BELO HORIZONTE - COMARCA; PROCURADORIA-GERAL ADJUNTA INSTITUCIONAL 0,00 3.119,26 10.397,52 0,00 4.505,59 0,00 1.086,98 1.550,00 20.659,35 1.488,41 4.259,50 0,00 0,00 5.747,91 14.911,44 30/11/2020
436 446500 CAROLINA COSTA VAL RODRIGUES ANALISTA DO MP CONTAGEM - COMARCA; CONTAGEM-PJ-05PJ 12.601,30 2.520,26 0,00 0,00 0,00 0,00 1.389,78 1.550,00 18.061,34 2.014,56 3.710,60 0,00 0,00 5.725,16 12.336,18 30/11/2020
437 603501 CAROLINA DOMINGOS BRANDAO RABELLO ANALISTA DO MP BARROSO - COMARCA; BARROSO-PJ-01PJ 9.146,93 914,69 0,00 0,00 0,00 0,00 806,91 1.550,00 12.418,53 1.359,18 2.216,62 0,00 0,00 3.575,80 8.842,73 30/11/2020
438 404300 CAROLINA DOS SANTOS VIEIRA ANALISTA DO MP BELO HORIZONTE - COMARCA; BH-08PJ JUIZADO ESPECIAL-SECRETARIA 14.324,23 2.864,85 0,00 0,00 137,28 0,00 1.365,29 1.550,00 20.241,65 2.315,44 4.178,22 0,00 0,00 6.493,66 13.747,99 30/11/2020
439 551200 CAROLINA LOPES ARANTES MASCARENHAS ANALISTA DO MP BELO HORIZONTE - COMARCA; COORD EST DEF DIR FAM PESSOAS DEFICI IDOSOS 9.146,93 914,69 0,00 0,00 0,00 0,00 832,27 2.319,39 13.213,28 1.329,32 1.984,11 0,00 0,00 3.313,43 9.899,85 30/11/2020
440 622600 CAROLINA LOREDO LOPES CATIZANI OFICIAL DO MP RIBEIRÃO DAS NEVES - COMARCA; RIBEIRAO DAS NEVES-PJ-12PJ 4.974,42 497,44 0,00 0,00 1.823,95 0,00 446,13 1.550,00 9.291,94 728,99 1.254,22 0,00 0,00 1.983,21 7.308,73 30/11/2020
441 382200 CAROLINA MENDES CHAVES LIN ANALISTA DO MP BELO HORIZONTE - COMARCA; BH-12PJ JUIZO CRIMINAL-GAB 088PJ 10.069,62 2.013,92 0,00 0,00 0,00 0,00 1.057,16 2.319,39 15.460,09 1.618,96 2.761,18 0,00 0,00 4.380,14 11.079,95 30/11/2020
442 461900 CAROLINA MURTA TEIXEIRA DIAS ASSESSOR/ANALISTA BELO HORIZONTE - COMARCA; PROCURADOR-GERAL DE JUSTIÇA 0,00 1.260,13 12.601,30 0,00 0,00 0,00 1.348,90 1.550,00 16.760,33 1.550,83 3.347,07 0,00 0,00 4.897,90 11.862,43 30/11/2020
443 509600 CAROLINA PINTO DE OLIVEIRA SOUZA ANALISTA DO MP MURIAÉ - COMARCA; MURIAE-PJ-01PJ 10.069,62 1.006,96 0,00 0,00 0,00 0,00 1.104,30 2.319,39 14.500,27 1.484,05 2.350,02 0,00 0,00 3.834,07 10.666,20 30/11/2020
444 629100 CAROLINA RODRIGUES AMARAL ANALISTA DO MP BELO HORIZONTE - COMARCA; PROC. JUSTICA DIR. DIFUSOS E COLETIVOS-SEC 8.436,53 843,65 0,00 0,00 0,00 0,00 740,55 1.550,00 11.570,73 1.236,35 1.941,38 0,00 0,00 3.177,73 8.393,00 30/11/2020
445 502600 CAROLINA RODRIGUES RUBEN ANALISTA DO MP BELO HORIZONTE - COMARCA; BH-18PJ VIOLENCIA DOMESTICA-SECRETARIA 10.069,62 1.006,96 0,00 0,00 0,00 0,00 2.791,52 3.088,78 16.956,88 1.609,37 2.607,21 0,00 0,00 4.216,58 12.740,30 30/11/2020
446 529600 CAROLINA VAZ DE MELO MAMBRINI ANALISTA DO MP BELO HORIZONTE - COMARCA; DIVISAO DE MATERIAIS 9.146,93 914,69 0,00 0,00 0,00 0,00 2.978,15 1.550,00 14.589,77 1.329,32 2.742,99 0,00 0,00 4.072,31 10.517,46 30/11/2020
447 619100 CAROLINA ZAKHIA NARDELLI RODRIGUES ANALISTA DO MP NEPOMUCENO - COMARCA; NEPOMUCENO-PJ-UNPJ 8.436,53 843,65 0,00 0,00 0,00 0,00 1.187,27 2.319,39 12.786,84 1.284,62 1.988,92 0,00 0,00 3.273,54 9.513,30 30/11/2020
448 517600 CAROLINE ALVES DE OLIVEIRA MULLER ANALISTA DO MP VISCONDE DO RIO BRANCO - COMARCA; VISCONDE DO RIO BRANCO-PJ-01PJ 10.069,62 1.006,96 0,00 0,00 0,00 0,00 1.142,62 2.319,39 14.538,59 1.484,05 2.454,29 0,00 0,00 3.938,34 10.600,25 30/11/2020
449 373200 CAROLINE ANTUNES RIBEIRO OFICIAL DO MP JACUI - COMARCA; JACUI-PJ-UNPJ 8.858,43 1.771,69 0,00 0,00 3.543,37 0,00 1.030,40 1.550,00 16.753,89 1.416,20 3.099,69 0,00 0,00 4.515,89 12.238,00 30/11/2020
450 556800 CAROLINE DE SOUZA CARDOSO DOMINGUES OFICIAL DO MP BRASÍLIA DE MINAS - COMARCA; BRASILIA DE MINAS-PJ-02PJ 5.930,75 593,08 0,00 0,00 0,00 0,00 525,77 1.550,00 8.599,60 859,73 1.043,54 0,00 0,00 1.903,27 6.696,33 30/11/2020
451 499400 CAROLINE MARQUES DE LOURDES MARZULLO OFICIAL DO MP JUIZ DE FORA - COMARCA; JUIZ DE FORA-PJ-08PJ 7.663,37 766,34 0,00 0,00 2.809,90 0,00 681,63 2.703,54 14.624,78 1.199,37 2.571,95 0,00 0,00 3.771,32 10.853,46 30/11/2020
452 616800 CAROLINE MONTEIRO DE BARROS ANALISTA DO MP CONTAGEM - COMARCA; CONTAGEM-PJ-11PJ 8.436,53 843,65 0,00 0,00 0,00 0,00 775,36 1.550,00 11.605,54 1.236,35 1.881,51 0,00 0,00 3.117,86 8.487,68 30/11/2020
453 618100 CAROLINE VASCONCELOS COSTA LANZA ANALISTA DO MP PARAOPEBA - COMARCA; PARAOPEBA-PJ-UNPJ 8.436,53 843,65 0,00 0,00 3.093,39 0,00 1.200,19 4.627,56 18.201,32 1.285,50 2.841,55 0,00 0,00 4.127,05 14.074,27 30/11/2020
454 604000 CASSIA APARECIDA DA SILVA OFICIAL DO MP PARACATU - COMARCA; PARACATU-PJ-01PJ 5.930,75 593,08 0,00 0,00 0,00 0,00 713,98 1.550,00 8.787,81 902,16 1.137,95 0,00 0,00 2.040,11 6.747,70 30/11/2020
455 268800 CASSIA BEATRIZ TEIXEIRA OFICIAL DO MP BELO HORIZONTE - COMARCA; COMB CRIMES PRAT POR AG POL MUN-SECRETARIA 12.601,30 3.780,39 0,00 0,00 0,00 0,00 1.482,49 1.550,00 19.414,18 2.330,76 4.316,59 0,00 0,00 6.647,35 12.766,83 30/11/2020
456 500000 CASSIA DE OLIVEIRA COSTA VIANA ANALISTA DO MP SETE LAGOAS - COMARCA; SETE LAGOAS-PJ-09PJ 10.069,62 5.034,81 0,00 0,00 0,00 0,00 1.405,74 1.550,00 18.060,17 2.023,70 3.633,38 0,00 0,00 5.657,08 12.403,09 30/11/2020
457 368800 CASSIA LUISA BATISTA MENDONCA WEBER OFICIAL DO MP BELO HORIZONTE - COMARCA; DIVISÃO DE EDUCAÇÃO PARA O CONSUMO 7.663,37 1.532,67 0,00 0,00 3.065,35 0,00 822,81 1.550,00 14.634,20 1.225,14 2.699,56 0,00 0,00 3.924,70 10.709,50 30/11/2020
458 622200 CASSIA VAZ DE AZEVEDO LISBOA MARZANO ASSESSOR BELO HORIZONTE - COMARCA; CGMP-SECRETARIA DA CORREGEDORIA-GERAL DO MP 0,00 0,00 3.076,28 0,00 1.025,43 0,00 291,67 2.319,39 6.712,77 622,14 418,04 0,00 0,00 1.040,18 5.672,59 30/11/2020
459 121000 CASSIO HENRIQUE AFONSO DA SILVA OFICIAL DO MP BELO HORIZONTE - COMARCA; ASSESS TECNICA DA CORREGEDORIA-GERAL DO MP 18.820,14 13.174,10 0,00 0,00 0,00 0,00 2.768,82 1.550,00 36.313,06 4.202,26 8.566,07 0,00 0,00 12.768,33 23.544,73 30/11/2020
460 121100 CASSIO MOREIRA DE MIRANDA AGENTE DO MP BELO HORIZONTE - COMARCA; DIVISÃO DE FISCALIZAÇÃO DAS RELAÇÕES DE CONSU 4.376,03 3.500,82 0,00 62,97 2.625,62 1.168,16 815,81 1.550,00 14.099,41 1.055,35 1.737,74 0,00 0,00 2.793,09 11.306,32 30/11/2020
461 512001 CATARINA NATALINO CALIXTO COORDENADOR/ANALISTA BELO HORIZONTE - COMARCA; DIRETORIA GESTAO TRANSPORTES 0,00 1.343,52 13.435,16 -88,93 0,00 0,00 2.963,84 1.550,00 19.203,59 1.375,22 4.182,05 0,00 199,03 5.756,30 13.447,29 30/11/2020
462 606200 CATARINE DE SIQUEIRA DE QUADROS ANALISTA DO MP RIBEIRÃO DAS NEVES - COMARCA; RIBEIRAO DAS NEVES-PJ-02PJ 9.146,93 914,69 0,00 0,00 0,00 0,00 751,55 1.550,00 12.363,17 1.336,04 2.051,18 0,00 0,00 3.387,22 8.975,95 30/11/2020
463 622300 CECILIA APARECIDA PEREIRA ASSUNCAO OFICIAL DO MP TRÊS PONTAS - COMARCA; TRES PONTAS-PJ-SECRETARIA 5.387,19 538,72 0,00 0,00 0,00 0,00 538,43 3.319,60 9.783,94 789,47 873,31 0,00 0,00 1.662,78 8.121,16 30/11/2020
464 538000 CECILIA FONTES DE MATOS PIMENTEL ANALISTA DO MP PALMA - COMARCA; PALMA-PJ-UNPJ 9.146,93 914,69 0,00 0,00 0,00 0,00 928,34 2.319,39 13.309,35 1.329,32 2.150,20 0,00 0,00 3.479,52 9.829,83 30/11/2020
465 261300 CECILIO ANTONIO CAMPOS DOS REIS ANALISTA DO MP BELO HORIZONTE - COMARCA; AUDITORIA INTERNA 18.103,37 5.431,01 0,00 0,00 0,00 0,00 2.324,91 1.550,00 27.409,29 3.131,66 6.123,29 0,00 0,00 9.254,95 18.154,34 30/11/2020
466 386400 CEFAS AMORELI DE FIGUEIREDO OFICIAL DO MP CABO VERDE - COMARCA; CABO VERDE-PJ-SECRETARIA 6.123,79 1.224,76 0,00 0,00 0,00 0,00 643,68 1.550,00 9.542,23 984,56 1.370,25 0,00 0,00 2.354,81 7.187,42 30/11/2020
467 149000 CELIA MAGALHAES CLAROS SOSSI OFICIAL DO MP GOVERNADOR VALADARES - COMARCA; GAECO REGIONAL DE GOVERNADOR VALADARES 16.750,82 11.725,57 0,00 188,88 0,00 4.024,49 2.320,90 1.550,00 36.560,66 3.681,75 8.487,62 0,00 0,00 12.169,37 24.391,29 30/11/2020
468 421000 CELINA BENEDITA DE SOUZA ALMEIDA OFICIAL DO MP CAMBUÍ - COMARCA; CAMBUI-PJ-01PJ 8.579,10 4.289,55 0,00 0,00 4.289,55 0,00 1.891,05 1.550,00 20.599,25 1.783,10 4.225,53 0,00 0,00 6.008,63 14.590,62 30/11/2020
469 252900 CELIO DE MELO CASTOR ANALISTA DO MP BELO HORIZONTE - COMARCA; BH-02PJ FAMILIA-SECRETARIA 18.103,37 5.431,01 0,00 0,00 7.844,79 0,00 2.008,18 1.550,00 34.937,35 3.131,66 8.255,90 0,00 0,00 11.387,56 23.549,79 30/11/2020
470 395700 CELIO FERREIRA LIMA OFICIAL DO MP CONTAGEM - COMARCA; CONTAGEM-PJ-SECRETARIA 8.579,10 1.715,82 0,00 0,00 0,00 0,00 1.032,08 2.319,39 13.646,39 1.407,79 2.210,82 0,00 0,00 3.618,61 10.027,78 30/11/2020
471 281300 CELMA REGINA PEREIRA SANTOS ANALISTA DO MP BELO HORIZONTE - COMARCA; SUPERINTENDENCIA DE RECURSOS HUMANOS 18.820,14 5.646,04 0,00 0,00 8.155,39 0,00 1.880,35 1.550,00 36.051,92 3.213,49 8.523,38 0,00 0,00 11.736,87 24.315,05 30/11/2020
472 535600 CELSO MEDEIROS DE PAIVA OFICIAL DO MP RIO PRETO - COMARCA; RIO PRETO-PJ-SECRETARIA 5.387,19 538,72 0,00 0,00 0,00 0,00 548,98 1.550,00 8.024,89 783,07 820,84 0,00 0,00 1.603,91 6.420,98 30/11/2020
473 367000 CESAR NARVAES DE AVELAR COORDENADOR/OFICIAL BELO HORIZONTE - COMARCA; DIVISAO DE MEMORIA INSTITUCIONAL 0,00 2.363,83 11.819,15 0,00 4.727,66 0,00 1.243,48 1.550,00 21.704,12 1.547,51 4.752,85 0,00 3,76 6.304,12 15.400,00 30/11/2020
474 226500 CESAR SILVEIRA BARROUIN OFICIAL DO MP BELO HORIZONTE - COMARCA; DIRETORIA DE ADMINISTRACAO FINANCEIRA 12.601,30 5.040,52 0,00 0,00 5.880,61 0,00 1.661,28 1.550,00 26.733,71 2.350,32 5.977,28 0,00 0,00 8.327,60 18.406,11 30/11/2020
475 121400 CEZAR MORENO CONCEICAO TAVARES OFICIAL DO MP BELO HORIZONTE - COMARCA; COORD EST DEF DIR FAM PESSOAS DEFICI IDOSOS 16.750,82 11.725,57 0,00 0,00 9.720,40 0,00 2.486,84 2.319,39 43.003,02 3.838,47 10.177,30 0,00 0,00 14.015,77 28.987,25 30/11/2020
476 243800 CHARLES MARTINS MUNIZ OFICIAL DO MP BELO HORIZONTE - COMARCA; LAB TECNOLOGIA CONTRA LAVAGEM DINHEIRO 12.601,30 5.040,52 0,00 0,00 158,16 0,00 1.594,69 1.100,00 20.494,67 2.350,32 4.360,11 0,00 0,00 6.710,43 13.784,24 30/11/2020
477 193500 CHARLIN CESAR KOURLY OFICIAL DO MP ARAGUARI - COMARCA; ARAGUARI-PJ-07PJ 15.272,02 6.108,81 0,00 0,00 178,60 0,00 1.896,93 1.550,00 25.006,36 2.874,84 5.527,17 0,00 0,00 8.402,01 16.604,35 30/11/2020
478 385500 CHILLEN PEIXOTO DE MOURA OFICIAL DO MP BELO HORIZONTE - COMARCA; DIVISÃO DE FISCALIZAÇÃO DAS RELAÇÕES DE CONSU 8.579,10 1.715,82 0,00 0,00 98,70 0,00 1.166,04 2.934,90 14.494,56 1.407,79 2.349,61 0,00 0,00 3.757,40 10.737,16 30/11/2020
479 534500 CHRISTIAN DOUGLAS BRITO RUAS OFICIAL DO MP SÃO JOÃO DA PONTE - COMARCA; SAO JOAO DA PONTE-PJ-SECRETARIA 5.930,75 593,08 0,00 0,00 2.174,61 0,00 773,81 1.550,00 11.022,25 882,90 1.693,11 0,00 0,00 2.576,01 8.446,24 30/11/2020
480 370600 CHRISTIAN KARINE FELIX PRATES ASSESSOR BELO HORIZONTE - COMARCA; SUPRIN DE PLANEJAMENTO E COORDENACAO 0,00 0,00 10.397,52 0,00 0,00 0,00 945,77 1.550,00 12.893,29 713,09 2.788,97 0,00 0,00 3.502,06 9.391,23 30/11/2020
481 435800 CHRISTIANA BAHIA ANDRADE PINA ANALISTA DO MP BELO HORIZONTE - COMARCA; LABORATORIO TECNOLOGIA INTELIGENCIA 13.011,52 2.602,30 0,00 0,00 5.204,61 0,00 1.374,14 2.319,39 24.511,96 2.128,77 5.298,43 0,00 0,00 7.427,20 17.084,76 30/11/2020
482 516800 CHRISTIANE FERREIRA DO NASCIMENTO ANALISTA DO MP POUSO ALEGRE - COMARCA; POUSO ALEGRE-PJ-08PJ 10.069,62 1.006,96 0,00 0,00 0,00 0,00 1.013,46 1.550,00 13.640,04 1.484,05 2.432,64 0,00 0,00 3.916,69 9.723,35 30/11/2020
483 176000 CHRISTIANE JUNQUEIRA PULITI ANDRADE DE BARROS ASSESSOR BELO HORIZONTE - COMARCA; CAO-VIOLENCIA DOMESTICA E FAMILIAR 0,00 9.157,17 11.446,46 164,70 6.867,88 3.042,52 2.004,67 1.550,00 34.233,40 2.760,49 7.920,53 0,00 0,00 10.681,02 23.552,38 30/11/2020
484 319200 CHRISTIANE MARIA DE ASSIS RUSSO OFICIAL DO MP BELO HORIZONTE - COMARCA; CAO-ORDEM ECONOMICA E TRIBUTARIA-SECRETARIA 11.085,56 3.325,67 0,00 0,00 131,59 0,00 1.239,93 2.319,39 18.102,14 1.964,83 3.450,25 0,00 0,00 5.415,08 12.687,06 30/11/2020
485 510300 CHRISTIANE MARY DE CARVALHO FERREIRA ANALISTA DO MP BELO HORIZONTE - COMARCA; DIRETORIA DE SISTEMAS DE INFORMACAO 10.069,62 1.006,96 0,00 0,00 3.692,19 0,00 1.081,48 1.550,00 17.400,25 1.484,05 3.395,86 0,00 0,00 4.879,91 12.520,34 30/11/2020
486 424900 CHRISTIANE PEREIRA TURNER DE ARAUJO OFICIAL DO MP BELO HORIZONTE - COMARCA; CAO-PATRIMONIO PUBLICO 8.579,10 1.715,82 0,00 0,00 3.431,64 0,00 922,50 2.319,39 16.968,45 1.390,69 3.153,04 0,00 0,00 4.543,73 12.424,72 30/11/2020
487 513700 CHRISTIANE VIEIRA SOARES PEDERSOLI ASSESSOR/ANALISTA BELO HORIZONTE - COMARCA; ASSESSORIA JURIDICA DO PROCON-MG 0,00 1.144,65 11.446,46 0,00 0,00 0,00 1.231,35 2.319,39 16.141,85 1.520,37 2.929,95 0,00 0,00 4.450,32 11.691,53 30/11/2020
488 412300 CHRYSTIAN MACHADO RIBEIRO ANALISTA DO MP VARGINHA - COMARCA; VARGINHA-PJ-04PJ 13.011,52 2.602,30 0,00 0,00 5.204,61 0,00 1.490,50 1.550,00 23.858,93 2.080,14 5.190,23 0,00 0,00 7.270,37 16.588,56 30/11/2020
489 513800 CHRYSTIANE DO NASCIMENTO DE MAGALHAES OFICIAL DO MP UBERLÂNDIA - COMARCA; UBERLANDIA-PJ-10PJ 7.421,79 742,18 0,00 0,00 0,00 0,00 745,34 2.319,39 11.228,70 1.075,87 1.469,59 0,00 0,00 2.545,46 8.683,24 30/11/2020
490 497900 CIBELE DE FREITAS SANCHES DIAS ANALISTA DO MP SABARÁ - COMARCA; SABARA-PJ-03PJ 10.069,62 1.006,96 0,00 0,00 3.692,19 0,00 1.304,92 1.550,00 17.623,69 1.494,37 3.418,82 0,00 0,00 4.913,19 12.710,50 30/11/2020
491 500900 CIBELLE SILVA PRADO ALVARENGA ANALISTA DO MP ITANHANDU - COMARCA; ITANHANDU-PJ-UNPJ 10.069,62 1.006,96 0,00 0,00 0,00 0,00 1.111,13 3.088,78 15.276,49 1.484,05 2.432,64 0,00 0,00 3.916,69 11.359,80 30/11/2020
492 296400 CINTIA APARECIDA MOREIRA NAVES E RODRIGUES ANALISTA DO MP CAMPO BELO - COMARCA; CAMPO BELO-PJ-02PJ 17.413,92 5.224,18 0,00 0,00 202,18 0,00 3.054,79 1.550,00 27.445,07 3.126,24 6.086,51 0,00 0,00 9.212,75 18.232,32 30/11/2020
493 407900 CINTIA NETO COMELLI ANALISTA DO MP BELO HORIZONTE - COMARCA; CENTRAL DE APOIO TECNICO-SETOR CONTABIL 13.011,52 2.602,30 0,00 0,00 0,00 0,00 1.313,96 2.319,39 19.247,17 2.080,14 3.706,82 0,00 0,00 5.786,96 13.460,21 30/11/2020
494 304700 CINTIA QUEIROZ OFICIAL DO MP BELO HORIZONTE - COMARCA; OUVIDORIA DO MPMG 10.069,62 3.020,89 0,00 0,00 4.363,50 0,00 1.199,17 1.550,00 20.203,18 1.795,98 4.413,85 0,00 0,00 6.209,83 13.993,35 30/11/2020
495 286100 CIRO CANGUSSU CORDEIRO OFICIAL DO MP IPATINGA - COMARCA; IPATINGA-PJ-09PJ 7.663,37 2.299,01 0,00 0,00 0,00 0,00 1.830,26 2.319,39 14.112,03 1.529,38 2.429,23 0,00 0,00 3.958,61 10.153,42 30/11/2020
496 689900 CISSA NOGUEIRA NUNES ASSESSOR PROCURADOR JUSTICA BELO HORIZONTE - COMARCA; GABINETE DE PROCURADOR DE JUSTIÇA - SALA 608 0,00 0,00 7.187,72 0,00 0,00 0,00 0,00 1.550,00 8.737,72 713,09 1.213,66 0,00 0,00 1.926,75 6.810,97 30/11/2020
497 681700 CLARA FERREIRA ALKIMIM ASSESSOR PROMOTOR JUSTICA ARAÇUAÍ - COMARCA; ARACUAI-PJ-01PJ 0,00 0,00 7.187,72 0,00 0,00 0,00 0,00 1.550,00 8.737,72 713,09 1.213,66 0,00 0,00 1.926,75 6.810,97 30/11/2020
498 412500 CLARICE GOMES MAROTTA ANALISTA DO MP BELO HORIZONTE - COMARCA; PROMOT ESTADUAL DE DEF PATRI CULT E TUR DE MG 13.011,52 3.903,46 0,00 0,00 0,00 0,00 1.621,89 1.550,00 20.086,87 2.306,18 4.261,88 0,00 0,00 6.568,06 13.518,81 30/11/2020
499 605300 CLARISSA AZEVEDO ROCHA OFICIAL DO MP BELO HORIZONTE - COMARCA; DIRET DE DESENV DE RECURSOS HUMANOS-DDRH 5.930,75 593,08 0,00 0,00 2.174,61 0,00 511,91 1.550,00 10.760,35 878,79 1.683,95 0,00 0,00 2.562,74 8.197,61 30/11/2020
500 308100 CLARISSA DUARTE BELLONI DIRETOR/ANALISTA BELO HORIZONTE - COMARCA; DIRETORIA-GERAL 0,00 7.409,35 24.697,83 0,00 10.702,39 0,00 3.006,92 3.857,08 49.673,57 3.260,15 11.866,28 0,00 16,92 15.143,35 34.530,22 30/11/2020
501 497100 CLARISSA ROCHA GUIDI ANALISTA DO MP BELO HORIZONTE - COMARCA; BH-02PJ FAMILIA-SECRETARIA 10.736,08 1.073,61 0,00 0,00 0,00 0,00 1.127,09 2.319,39 15.256,17 1.610,13 2.661,05 0,00 0,00 4.271,18 10.984,99 30/11/2020
502 641800 CLARISSE TAVARES GONCALVES OFICIAL DO MP BELO HORIZONTE - COMARCA; BH-07PJ 01 TRIBUNAL JURI-SECRETARIA 5.217,34 313,04 0,00 0,00 0,00 0,00 457,27 1.550,00 7.537,65 671,12 773,09 0,00 0,00 1.444,21 6.093,44 30/11/2020
503 463700 CLAUDIA ADRIANA FERRAO DIAS ANALISTA DO MP SETE LAGOAS - COMARCA; SETE LAGOAS-PJ-06PJ 10.069,62 1.006,96 0,00 0,00 0,00 0,00 1.063,82 1.550,00 13.690,40 1.484,05 2.506,43 0,00 0,00 3.990,48 9.699,92 30/11/2020
504 415400 CLAUDIA ALMEIDA DE VASCONCELLOS BARROS ASSESSOR/OFICIAL BELO HORIZONTE - COMARCA; DIVISAO DE SERVICOS 0,00 2.079,50 10.397,52 0,00 4.159,01 0,00 1.240,45 1.550,00 19.426,48 1.671,68 4.001,53 0,00 3,70 5.676,91 13.749,57 30/11/2020
505 207000 CLAUDIA APARECIDA VILELA MACHADO ANALISTA DO MP BELO HORIZONTE - COMARCA; CENTRAL DE APOIO TECNICO-SETOR CONTABIL 18.820,14 7.528,06 0,00 0,00 8.782,73 0,00 2.499,07 1.550,00 39.180,00 3.530,15 9.244,07 0,00 0,00 12.774,22 26.405,78 30/11/2020
506 365700 CLAUDIA BREGUEZ CUNHA ANALISTA DO MP VARGINHA - COMARCA; VARGINHA-PJ-07PJ 14.790,66 2.958,13 0,00 0,00 160,09 0,00 1.497,46 1.550,00 20.956,34 2.364,57 4.391,82 0,00 0,00 6.756,39 14.199,95 30/11/2020
507 430500 CLAUDIA CECILIA SANTANA VENCESLAU OFICIAL DO MP BELO HORIZONTE - COMARCA; DIR ANALISES TECNOLOGIA INTELIGENCIA 8.579,10 1.715,82 0,00 0,00 0,00 0,00 943,77 1.550,00 12.788,69 1.390,69 2.171,59 0,00 0,00 3.562,28 9.226,41 30/11/2020
508 112400 CLAUDIA CRISTINA FIUZA DE AVELAR AGENTE DO MP BELO HORIZONTE - COMARCA; SERVICO MEDICO-DEPTO PERIC MEDICA SAUDE OCUP 10.069,62 7.048,73 0,00 0,00 5.706,12 0,00 1.492,27 1.550,00 25.866,74 2.280,59 5.774,13 0,00 0,00 8.054,72 17.812,02 30/11/2020
509 480400 CLAUDIA GOULART DE SOUZA OFICIAL DO MP PASSOS - COMARCA; PASSOS-PJ-06PJ 7.663,37 1.532,67 0,00 0,00 3.065,35 0,00 890,98 1.550,00 14.702,37 1.225,14 2.699,56 0,00 0,00 3.924,70 10.777,67 30/11/2020
510 519800 CLAUDIA HELENA CORREA DE ALMEIDA ANALISTA DO MP BELO HORIZONTE - COMARCA; BH-12PJ JUIZO CRIMINAL-GAB 096PJ 10.069,62 1.006,96 0,00 0,00 0,00 0,00 1.056,42 1.550,00 13.683,00 1.484,05 2.432,64 0,00 0,00 3.916,69 9.766,31 30/11/2020
511 422100 CLAUDIA IACOMINI CABRAL ANALISTA DO MP BELO HORIZONTE - COMARCA; CENT DE APOIO TEC-SETOR DEF,IDOSO E INFANC 13.011,52 9.108,06 0,00 0,00 196,39 0,00 1.918,06 1.550,00 25.784,03 3.015,77 5.840,72 0,00 0,00 8.856,49 16.927,54 30/11/2020
512 258200 CLAUDIA LAGE MICHALAROS ANALISTA DO MP BELO HORIZONTE - COMARCA; CENTRAL DE APOIO TECN-SETOR DE MEIO AMBIENTE 18.103,37 12.672,36 0,00 245,65 10.258,58 4.555,55 2.862,18 1.550,00 50.247,69 4.095,25 12.334,94 0,00 0,00 16.430,19 33.817,50 30/11/2020
513 284600 CLAUDIA LENI DE FREITAS OFICIAL DO MP CONTAGEM - COMARCA; CONTAGEM-PJ-SECRETARIA 6.123,79 2.449,52 0,00 0,00 2.857,77 0,00 850,89 1.550,00 13.831,97 1.148,65 2.529,39 0,00 0,00 3.678,04 10.153,93 30/11/2020
514 433600 CLAUDIA LUIZA SANTIAGO FELICIO ANALISTA DO MP BELO HORIZONTE - COMARCA; CENT DE APOIO TEC-SETOR DEF,IDOSO E INFANC 13.011,52 2.602,30 0,00 0,00 0,00 0,00 1.312,25 1.550,00 18.476,07 2.128,77 3.762,89 0,00 0,00 5.891,66 12.584,41 30/11/2020
515 317000 CLAUDIA MACHADO ALVES ASSESSOR/OFICIAL BELO HORIZONTE - COMARCA; DIR GOVERNANCA TECNOLOGIA INFORMACAO 0,00 3.119,26 10.397,52 -35,67 9.011,18 0,00 1.191,49 1.550,00 25.233,78 1.550,96 5.685,50 0,00 77,19 7.313,65 17.920,13 30/11/2020
516 155300 CLAUDIA MACIEL MIRANDA OFICIAL DO MP CONGONHAS - COMARCA; CONGONHAS-PJ-02PJ 16.750,82 8.375,41 0,00 0,00 8.576,82 0,00 1.996,69 1.550,00 37.249,74 3.386,89 8.865,43 0,00 0,00 12.252,32 24.997,42 30/11/2020
517 242200 CLAUDIA MICHELLE DIAS MUNIZ BALEEIRO OFICIAL DO MP MONTE AZUL - COMARCA; MONTE AZUL-PJ-SECRETARIA 12.601,30 5.040,52 0,00 0,00 0,00 0,00 2.236,81 1.550,00 21.428,63 2.598,49 4.860,14 0,00 0,00 7.458,63 13.970,00 30/11/2020
518 623000 CLAUDIA PATRICIA SILVA RODRIGUES RAPOSEIRAS OFICIAL DO MP PARÁ DE MINAS - COMARCA; PARA DE MINAS-PJ-02PJ 5.387,19 538,72 0,00 0,00 0,00 0,00 442,74 2.319,39 8.688,04 778,93 811,63 0,00 0,00 1.590,56 7.097,48 30/11/2020
519 418400 CLAUDIA REGINA MARTINS BONIFACIO OFICIAL DO MP ITUIUTABA - COMARCA; ITUIUTABA-PJ-06PJ 8.579,10 1.715,82 0,00 0,00 83,56 0,00 940,57 1.550,00 12.869,05 1.360,14 2.052,69 0,00 0,00 3.412,83 9.456,22 30/11/2020
520 498300 CLAUDIA SOUTO FARIAS BRAUN OFICIAL DO MP TEÓFILO OTONI - COMARCA; TEOFILO OTONI-PJ-SECRETARIA 6.123,79 612,38 0,00 0,00 0,00 0,00 699,52 1.550,00 8.985,69 902,51 1.034,46 0,00 0,00 1.936,97 7.048,72 30/11/2020
521 206500 CLAUDIA VALERIA FONSECA ANDRADE ANALISTA DO MP BELO HORIZONTE - COMARCA; BH-23PJ INF-FISC MED SOC FEC 18.820,14 9.410,07 0,00 225,66 0,00 4.171,16 2.718,31 1.550,00 36.895,34 3.782,30 8.774,45 0,00 0,00 12.556,75 24.338,59 30/11/2020
522 277500 CLAUDIO ANTONIO BORGES BRUNSWICK ALVARES OFICIAL DO MP BELO HORIZONTE - COMARCA; BH-15PJ M AMB 16PJ HAB URB-SECRETARIA 10.069,62 3.020,89 0,00 0,00 0,00 0,00 1.173,60 1.550,00 15.814,11 1.753,88 3.033,02 0,00 0,00 4.786,90 11.027,21 30/11/2020
523 444800 CLAUDIO ARESIO DO CARMO ANALISTA DO MP SETE LAGOAS - COMARCA; SETE LAGOAS-PJ-01PJ 10.069,62 4.027,85 0,00 0,00 4.699,16 0,00 1.364,36 1.550,00 21.710,99 1.888,79 4.573,33 0,00 0,00 6.462,12 15.248,87 30/11/2020
524 545100 CLAUDIO HENRIQUE MACEDO DE SOUZA FRANSOZO ANALISTA DO MP OURO PRETO - COMARCA; OURO PRETO-PJ-03PJ 9.146,93 914,69 0,00 0,00 0,00 0,00 817,79 2.319,39 13.198,80 1.329,32 2.088,39 0,00 0,00 3.417,71 9.781,09 30/11/2020
525 353500 CLAUDIO HENRIQUE PEDRO DA ROCHA OFICIAL DO MP BELO HORIZONTE - COMARCA; DIVISAO TRANSPORTES 9.752,14 1.950,43 0,00 0,00 98,15 0,00 1.091,39 1.550,00 14.442,11 1.665,03 2.731,05 0,00 0,00 4.396,08 10.046,03 30/11/2020
526 265800 CLAUDIO KUPIDLOWSKY FERNANDES OFICIAL DO MP BELO HORIZONTE - COMARCA; SECRETARIA DO PROCON-MG 10.069,62 3.020,89 0,00 0,00 0,00 0,00 1.277,78 1.550,00 15.918,29 1.753,88 1.691,96 0,00 0,00 3.445,84 12.472,45 30/11/2020
527 193600 CLAUDIO LEITE FONTES OFICIAL DO MP ITUIUTABA - COMARCA; ITUIUTABA-PJ-02PJ 9.146,93 3.658,77 0,00 0,00 0,00 0,00 1.252,97 1.550,00 15.608,67 1.745,93 2.810,56 0,00 0,00 4.556,49 11.052,18 30/11/2020
528 329400 CLAUDIO MARCIO BERNARDES OFICIAL DO MP ITAÚNA - COMARCA; ITAUNA-PJ-03PJ 10.069,62 7.048,73 0,00 0,00 5.865,54 0,00 1.481,09 2.319,39 26.784,37 2.293,53 5.750,78 0,00 0,00 8.044,31 18.740,06 30/11/2020
529 270200 CLAUDIO RABELO ALVES OFICIAL DO MP FORMIGA - COMARCA; FORMIGA-PJ-03PJ 10.736,08 3.220,82 0,00 0,00 0,00 0,00 1.327,80 1.550,00 16.834,70 1.902,89 3.246,05 0,00 0,00 5.148,94 11.685,76 30/11/2020
530 264700 CLAUDIO ROBERTO KFURI DE ARAUJO ANALISTA DO MP BELO HORIZONTE - COMARCA; CENTRAL DE APOIO TECNICO-SETOR DE INFORMATICA 18.103,37 5.431,01 0,00 0,00 0,00 0,00 1.984,93 1.550,00 27.069,31 3.131,66 6.145,11 0,00 0,00 9.276,77 17.792,54 30/11/2020
531 188600 CLAUDIO SALES OFICIAL DO MP NEPOMUCENO - COMARCA; NEPOMUCENO-PJ-SECRETARIA 14.790,66 11.832,53 0,00 -14,92 9.099,20 0,00 2.825,47 1.550,00 40.082,94 3.872,40 10.187,18 0,00 0,00 14.059,58 26.023,36 30/11/2020
532 543300 CLAUDIO SILVA DE CARVALHO ANALISTA DO MP CAMPO BELO - COMARCA; CAMPO BELO-PJ-03PJ 8.436,53 843,65 0,00 0,00 0,00 0,00 810,71 1.550,00 11.640,89 1.222,97 1.855,77 0,00 0,00 3.078,74 8.562,15 30/11/2020
533 160700 CLAUDIO VICENTE HESS ASSESSOR BELO HORIZONTE - COMARCA; CENTRAL DE APOIO TECNICO-SETOR DE INFORMATICA 0,00 6.717,58 13.435,16 0,00 6.717,58 0,00 1.885,59 1.550,00 30.305,91 713,09 7.775,04 0,00 0,00 8.488,13 21.817,78 30/11/2020
534 312900 CLAUDIO VIEIRA FIRPE OFICIAL DO MP BELO HORIZONTE - COMARCA; CENTRO CERIMONIAL 10.069,62 3.020,89 0,00 0,00 0,00 0,00 1.216,39 1.550,00 15.856,90 1.743,98 3.010,99 0,00 0,00 4.754,97 11.101,93 30/11/2020
535 634100 CLEA CRISTINA GUERRA DE FREITAS COSTA OFICIAL DO MP BELO HORIZONTE - COMARCA; BH-18PJ VIOLENCIA DOMESTICA-SECRETARIA 5.217,34 521,73 0,00 0,00 0,00 0,00 526,02 2.319,39 8.584,48 753,76 789,64 0,00 0,00 1.543,40 7.041,08 30/11/2020
536 653100 CLEBER SOUZA SCALIONI ASSESSOR BELO HORIZONTE - COMARCA; CENTRAL DE APOIO TECNICO-SETOR CONTABIL 0,00 0,00 8.170,49 0,00 0,00 0,00 732,71 1.550,00 10.453,20 713,09 1.973,76 0,00 0,00 2.686,85 7.766,35 30/11/2020
537 459200 CLEIA ZILLE PEREIRA ANALISTA DO MP BELO HORIZONTE - COMARCA; BH-07PJ 01 TRIBUNAL JURI-SECRETARIA 10.069,62 1.006,96 0,00 0,00 0,00 0,00 1.109,20 1.550,00 13.735,78 1.484,05 2.506,43 0,00 0,00 3.990,48 9.745,30 30/11/2020
538 481800 CLEIDE CARDOSO DA SILVA ANALISTA DO MP MANHUAÇU - COMARCA; MANHUACU-PJ-04PJ 10.069,62 1.006,96 0,00 0,00 0,00 0,00 973,76 1.550,00 13.600,34 1.484,05 2.328,37 0,00 0,00 3.812,42 9.787,92 30/11/2020
539 347600 CLEIDIMAR DE OLIVEIRA SILVA OFICIAL DO MP PATOS DE MINAS - COMARCA; PATOS DE MINAS-PJ-03PJ 9.444,70 2.833,41 0,00 0,00 4.190,80 0,00 981,84 1.550,00 19.000,75 1.636,95 3.689,79 0,00 0,00 5.326,74 13.674,01 30/11/2020
540 396500 CLEIDISON BATISTA DE ANDRADE OFICIAL DO MP RESPLENDOR - COMARCA; RESPLENDOR-PJ-UNPJ 8.170,49 1.634,10 0,00 0,00 0,00 0,00 792,74 2.319,39 12.916,72 1.291,59 1.900,17 0,00 0,00 3.191,76 9.724,96 30/11/2020
541 535100 CLEISON ALVES DA SILVA ANALISTA DO MP BOA ESPERANÇA - COMARCA; BOA ESPERANCA-PJ-01PJ 9.146,93 914,69 0,00 0,00 3.353,87 0,00 932,11 1.550,00 15.897,60 1.329,32 2.906,43 0,00 0,00 4.235,75 11.661,85 30/11/2020
542 298100 CLEONICE AUGUSTA BARROS DE OLIVEIRA ANALISTA DO MP JUIZ DE FORA - COMARCA; JUIZ DE FORA-PJ-08PJ 18.820,14 5.646,04 0,00 0,00 0,00 0,00 1.829,67 1.550,00 27.845,85 3.298,09 6.613,95 0,00 0,00 9.912,04 17.933,81 30/11/2020
543 114300 CLERES PEREIRA DA SILVA JUNIOR ASSESSOR BELO HORIZONTE - COMARCA; BH-22PJ PES COM DEF E IDOSOS-SECRETARIA 0,00 2.568,16 5.136,32 0,00 0,00 0,00 677,59 1.550,00 9.932,07 713,09 1.326,06 0,00 0,00 2.039,15 7.892,92 30/11/2020
544 264100 CLETO HENRIQUE ANDRADE SILVA ANALISTA DO MP BELO HORIZONTE - COMARCA; DIRETORIA DE SISTEMAS DE INFORMACAO 18.103,37 5.431,01 0,00 0,00 7.844,79 0,00 2.153,62 1.571,20 35.103,99 3.131,66 8.302,43 0,00 0,00 11.434,09 23.669,90 30/11/2020
545 334400 CLEUBA DE OLIVEIRA BARCELOS GONCALVES OFICIAL DO MP DIVINÓPOLIS - COMARCA; COORD REG SAUDE MACRORREGIAO SANITARIA OESTE 10.069,62 3.020,89 0,00 0,00 0,00 0,00 4.307,10 1.550,00 18.947,61 1.729,73 3.735,53 0,00 0,00 5.465,26 13.482,35 30/11/2020
546 347500 CLEUSA CORDEIRO DA MATA PIMENTA OFICIAL DO MP CAMPO BELO - COMARCA; CAMPO BELO-PJ-02PJ 10.069,62 8.055,69 0,00 192,75 140,47 2.748,49 1.531,98 1.550,00 24.289,00 2.441,58 5.130,32 0,00 0,00 7.571,90 16.717,10 30/11/2020
547 510200 CLEZIO SALES SILVA OFICIAL DO MP BRASÓPOLIS - COMARCA; BRASOPOLIS-PJ-UNPJ 6.123,79 612,38 0,00 0,00 0,00 0,00 632,00 4.039,37 11.407,54 887,72 1.105,81 0,00 0,00 1.993,53 9.414,01 30/11/2020
548 323000 CLOTILDE DE PADUA VIEIRA OFICIAL DO MP BELO HORIZONTE - COMARCA; BH-19PJ SAUDE-SECRETARIA 129PJ 7.421,79 2.226,54 0,00 0,00 3.216,11 0,00 721,53 1.550,00 15.135,97 1.348,78 3.016,10 0,00 0,00 4.364,88 10.771,09 30/11/2020
549 285200 CLOVIS ANDRE LUDTKE OFICIAL DO MP BELO HORIZONTE - COMARCA; DIVISAO DE MANUTENCAO PREDIAL 10.069,62 3.020,89 0,00 0,00 4.363,50 0,00 1.295,27 1.550,00 20.299,28 1.753,88 4.232,98 0,00 0,00 5.986,86 14.312,42 30/11/2020
550 381100 CONCEICAO APARECIDA TEIXEIRA ARANTES ANALISTA DO MP BELO HORIZONTE - COMARCA; BH-23PJ INFRACIONAL-ASS JURIDICA 13.872,60 2.774,52 0,00 0,00 0,00 0,00 4.912,97 2.319,39 23.879,48 2.607,78 4.988,22 0,00 0,00 7.596,00 16.283,48 30/11/2020
551 249900 CONSTANTINO CEZAR GOMES MOTA OFICIAL DO MP MONTES CLAROS - COMARCA; COORD REG BACIA RIOS VERDE GRANDE E PARDO 9.444,70 2.833,41 0,00 0,00 4.201,78 0,00 1.209,36 2.319,39 20.008,64 1.674,00 3.876,52 0,00 0,00 5.550,52 14.458,12 30/11/2020
552 481000 CRISHMA ANALIA LOMBELLO ANALISTA DO MP JUIZ DE FORA - COMARCA; JUIZ DE FORA-PJ-13PJ 10.069,62 1.006,96 0,00 0,00 0,00 0,00 1.082,43 1.550,00 13.709,01 1.484,05 2.380,51 0,00 0,00 3.864,56 9.844,45 30/11/2020
553 523900 CRISTHYANE BAZOLI COSTA GUEDES COUTO OFICIAL DO MP BELO HORIZONTE - COMARCA; BH-04PJ JUIZO REG PÚBLICOS-SECRETARIA 7.421,79 742,18 0,00 0,00 63,26 0,00 1.159,13 1.550,00 10.936,36 1.145,91 1.680,28 0,00 0,00 2.826,19 8.110,17 30/11/2020
554 187000 CRISTIAN DAYVSON EVANGELISTA OFICIAL DO MP JUIZ DE FORA - COMARCA; JUIZ DE FORA-PJ-13PJ 14.790,66 5.916,26 0,00 0,00 7.072,28 0,00 1.577,92 1.550,00 30.907,12 2.946,13 7.531,79 0,00 0,00 10.477,92 20.429,20 30/11/2020
555 682100 CRISTIAN TRISTAO DE ANDRADE ASSESSOR PROMOTOR JUSTICA TRÊS CORACOES - COMARCA; TRES CORACOES-PJ-04PJ 0,00 0,00 7.187,72 0,00 0,00 0,00 0,00 1.550,00 8.737,72 713,09 1.213,66 0,00 0,00 1.926,75 6.810,97 30/11/2020
556 319800 CRISTIANA GONCALVES DOS SANTOS GUSMAO OFICIAL DO MP PARAOPEBA - COMARCA; PARAOPEBA-PJ-UNPJ 10.069,62 3.020,89 0,00 0,00 0,00 0,00 1.594,96 1.550,00 16.235,47 1.823,26 3.187,39 0,00 0,00 5.010,65 11.224,82 30/11/2020
557 520600 CRISTIANA JANAINA BARBOZA JUVENCIO DOS SANTOS ANALISTA DO MP BELO HORIZONTE - COMARCA; BH-02PJ FAMILIA-SECRETARIA 10.069,62 1.006,96 0,00 0,00 3.692,19 0,00 1.117,83 1.550,00 17.436,60 1.484,05 3.448,00 0,00 0,00 4.932,05 12.504,55 30/11/2020
558 195600 CRISTIANA SOARES HALABI OFICIAL DO MP UBERABA - COMARCA; UBERABA-PJ-01PJ 15.499,20 6.199,68 0,00 0,00 0,00 0,00 1.846,16 1.550,00 25.095,04 2.932,28 5.654,96 0,00 0,00 8.587,24 16.507,80 30/11/2020
559 218900 CRISTIANE ALVES BELLES OFICIAL DO MP JUIZ DE FORA - COMARCA; JUIZ DE FORA-PJ-10PJ 6.123,79 1.837,14 0,00 0,00 0,00 0,00 785,68 2.703,54 11.450,15 1.066,61 1.399,57 0,00 0,00 2.466,18 8.983,97 30/11/2020
560 263600 CRISTIANE CARVALHO COUTINHO OFICIAL DO MP BELO HORIZONTE - COMARCA; BH-23PJ INFRACIONAL-SEC EXP 10.069,62 3.020,89 0,00 0,00 4.363,50 0,00 1.155,51 1.550,00 20.159,52 1.753,88 4.180,84 0,00 0,00 5.934,72 14.224,80 30/11/2020
561 541000 CRISTIANE COELHO ALVES OFICIAL DO MP ITABIRA - COMARCA; ITABIRA-PJ-03PJ 5.387,19 538,72 0,00 0,00 1.975,30 0,00 531,62 1.550,00 9.982,83 783,07 1.400,49 0,00 0,00 2.183,56 7.799,27 30/11/2020
562 441700 CRISTIANE CORRADO DE ANDRADE ANALISTA DO MP BELO HORIZONTE - COMARCA; DIRETORIA DE SISTEMAS DE INFORMACAO 13.011,52 2.602,30 0,00 0,00 0,00 0,00 1.408,42 1.550,00 18.572,24 2.128,77 3.867,16 0,00 0,00 5.995,93 12.576,31 30/11/2020
563 375100 CRISTIANE DAS DORES ERCIO DE LIMA OFICIAL DO MP GOVERNADOR VALADARES - COMARCA; COOR REG INCLUSAO MOBILIZ VALE DO RIO DOCE 8.436,53 1.687,31 0,00 0,00 0,00 0,00 847,85 1.550,00 12.521,69 1.348,74 2.131,59 0,00 0,00 3.480,33 9.041,36 30/11/2020
564 178800 CRISTIANE DE LIMA HOSKEN OFICIAL DO MP BELO HORIZONTE - COMARCA; BH-14PJ DEFESA CONSUMIDOR-GAB 110PJ 15.272,02 6.108,81 0,00 0,00 7.146,67 0,00 1.918,00 1.550,00 31.995,50 2.915,07 7.472,30 0,00 0,00 10.387,37 21.608,13 30/11/2020
565 494000 CRISTIANE DE MELO MARQUEZ OLIVEIRA ANALISTA DO MP UBERLÂNDIA - COMARCA; UBERLANDIA-PJ-06PJ 11.085,56 1.108,56 0,00 0,00 6,26 0,00 1.223,84 3.088,78 16.513,00 1.662,55 2.940,14 0,00 0,00 4.602,69 11.910,31 30/11/2020
566 266100 CRISTIANE DE OLIVEIRA CASTRO OFICIAL DO MP BELO HORIZONTE - COMARCA; BH-14PJ DEFESA CONSUMIDOR-SECRETARIA 12.601,30 3.780,39 0,00 0,00 0,00 0,00 2.902,25 1.550,00 20.833,94 2.330,76 4.696,41 0,00 0,00 7.027,17 13.806,77 30/11/2020
567 329500 CRISTIANE DOS REIS SILVA OFICIAL DO MP ARAXÁ - COMARCA; ARAXA-PJ-04PJ 9.444,70 2.833,41 0,00 0,00 0,00 0,00 1.045,92 1.550,00 14.874,03 1.649,13 2.768,79 0,00 0,00 4.417,92 10.456,11 30/11/2020
568 301600 CRISTIANE GODINHO PIRES ANALISTA DO MP BETIM - COMARCA; BETIM-PJ-07PJ 16.750,82 5.025,25 0,00 0,00 0,00 0,00 1.975,91 1.550,00 25.301,98 2.979,06 5.898,58 0,00 0,00 8.877,64 16.424,34 30/11/2020
569 406100 CRISTIANE GONCALVES CHAVES ANALISTA DO MP BELO HORIZONTE - COMARCA; BH-14PJ DEFESA CONSUMIDOR-GAB 112PJ 14.324,23 4.297,27 0,00 0,00 8,96 0,00 1.574,52 1.550,00 21.754,98 2.508,40 4.824,50 0,00 0,00 7.332,90 14.422,08 30/11/2020
570 487600 CRISTIANE LOPES DE OLIVEIRA OFICIAL DO MP DIVINÓPOLIS - COMARCA; DIVINOPOLIS-PJ-03PJ 6.123,79 612,38 0,00 0,00 2.245,39 0,00 697,91 1.550,00 11.229,47 902,51 1.756,22 0,00 0,00 2.658,73 8.570,74 30/11/2020
571 502500 CRISTIANE MACIEL DE OLIVEIRA GOMES ANALISTA DO MP JUIZ DE FORA - COMARCA; JUIZ DE FORA-PJ-05PJ 10.069,62 1.006,96 0,00 0,00 0,00 0,00 1.146,86 2.319,39 14.542,83 1.484,05 2.432,64 0,00 0,00 3.916,69 10.626,14 30/11/2020
572 285500 CRISTIANE MAGALHAES LOURENCO ANALISTA DO MP BELO HORIZONTE - COMARCA; CENTRAL DE APOIO TECNICO-SETOR CONTABIL 17.413,92 5.224,18 0,00 0,00 0,00 0,00 2.020,19 1.550,00 26.208,29 3.012,40 5.781,09 0,00 0,00 8.793,49 17.414,80 30/11/2020
573 536500 CRISTIANE MICHELE DE SOUZA ANALISTA DO MP BARÃO DE COCAIS - COMARCA; BARAO DE COCAIS-PJ-UNPJ 9.146,93 914,69 0,00 0,00 0,00 0,00 820,32 2.319,39 13.201,33 1.329,32 1.984,11 0,00 0,00 3.313,43 9.887,90 30/11/2020
574 346600 CRISTIANE NOGUEIRA ANDRADE ANALISTA DO MP BELO HORIZONTE - COMARCA; CENTRAL DE APOIO TECNICO-SETOR CONTABIL 15.272,02 3.054,40 0,00 0,00 6.108,81 0,00 1.628,21 1.550,00 27.613,44 2.441,53 6.242,98 0,00 0,00 8.684,51 18.928,93 30/11/2020
575 234000 CRISTIANE OLIVEIRA TOSTES OFICIAL DO MP JUIZ DE FORA - COMARCA; JUIZ DE FORA-PJ-08PJ 14.324,23 4.297,27 0,00 0,00 8,96 0,00 2.034,89 8.278,27 28.943,62 2.508,40 4.824,50 0,00 0,00 7.332,90 21.610,72 30/11/2020
576 445800 CRISTIANE ORZIL COSTA OFICIAL DO MP SANTA LUZIA - COMARCA; SANTA LUZIA-PJ-05PJ 6.123,79 1.224,76 0,00 0,00 0,00 0,00 627,83 2.319,39 10.295,77 984,56 1.370,25 0,00 0,00 2.354,81 7.940,96 30/11/2020
577 616100 CRISTIANE PAES RODRIGUES MARCICANO ANALISTA DO MP CATAGUASES - COMARCA; CATAGUASES-PJ-05PJ 7.663,37 766,34 0,00 0,00 0,00 0,00 796,26 3.088,78 12.314,75 1.115,93 1.665,99 0,00 0,00 2.781,92 9.532,83 30/11/2020
578 612300 CRISTIANE RIBEIRO DOS REIS ARCANJO OFICIAL DO MP BELO HORIZONTE - COMARCA; DIRETORIA DE PAGAMENTO DE PESSOAL-DPAG 5.387,19 538,72 0,00 0,00 1.975,30 0,00 645,84 0,00 8.547,05 789,47 1.322,52 0,00 4,65 2.116,64 6.430,41 30/11/2020
579 257700 CRISTIANE RODRIGUES PAES NUNES ANALISTA DO MP BELO HORIZONTE - COMARCA; BH-22PJ PES COM DEF E IDOSOS-ORIENTACAO PSIC 18.820,14 5.646,04 0,00 0,00 0,00 0,00 2.088,48 2.319,39 28.874,05 3.213,49 6.373,57 0,00 0,00 9.587,06 19.286,99 30/11/2020
580 510800 CRISTIANE SANTOS FERNANDES ORNELES ANALISTA DO MP BELO HORIZONTE - COMARCA; COORD ESTADUAL DAS PJS DE HAB. E URBANISMO 10.069,62 1.006,96 0,00 0,00 0,00 0,00 1.006,85 1.550,00 13.633,43 1.484,05 2.506,43 0,00 0,00 3.990,48 9.642,95 30/11/2020
581 535701 CRISTIANE SANTOS MIRANDA ANALISTA DO MP BETIM - COMARCA; BETIM-PJ-12PJ 7.421,79 445,31 0,00 0,00 0,00 0,00 647,28 1.550,00 10.064,38 1.119,31 1.568,96 0,00 0,00 2.688,27 7.376,11 30/11/2020
582 536200 CRISTIANO DE OLIVEIRA ANALISTA DO MP CONCEIÇÃO DO MATO DENTRO - COMARCA; CONCEICAO DO MATO DENTRO-PJ-UNPJ 10.069,62 1.006,96 0,00 0,00 3.692,19 0,00 909,99 2.319,39 17.998,15 1.459,71 3.341,71 0,00 0,00 4.801,42 13.196,73 30/11/2020
583 477400 CRISTIANO SOARES ELEUTERIO ANALISTA DO MP BELO HORIZONTE - COMARCA; BH-17PJ PATRIMONIO PUBLICO-SECRETARIA 11.085,56 1.108,56 0,00 0,00 4.064,71 0,00 1.198,87 1.550,00 19.007,70 1.624,56 3.863,08 0,00 0,00 5.487,64 13.520,06 30/11/2020
584 449400 CRISTIANO TEIXEIRA RODRIGUES LANA ANALISTA DO MP BELO HORIZONTE - COMARCA; ASSESS TECNICO-JUR JUNTO AS PROC. DE JUST 10.069,62 2.013,92 0,00 0,00 4.027,85 0,00 1.108,05 1.550,00 18.769,44 1.594,81 3.860,54 0,00 0,00 5.455,35 13.314,09 30/11/2020
585 239400 CRISTINA DE FATIMA CRUZ E SILVA OFICIAL DO MP MONTE SANTO DE MINAS - COMARCA; MONTE SANTO DE MINAS-PJ-SECRETARIA 12.601,30 3.780,39 0,00 0,00 0,00 0,00 1.289,05 1.550,00 19.220,74 2.330,76 4.316,59 0,00 0,00 6.647,35 12.573,39 30/11/2020
586 544000 CRISTINA DE OLIVEIRA TERRA ANALISTA DO MP RIBEIRÃO DAS NEVES - COMARCA; RIBEIRAO DAS NEVES-PJ-09PJ 9.146,93 914,69 0,00 0,00 0,00 0,00 1.964,34 1.550,00 13.575,96 1.443,16 2.341,67 0,00 0,00 3.784,83 9.791,13 30/11/2020
587 356800 CRISTINA DE PINHO BARROSO OFICIAL DO MP SABINÓPOLIS - COMARCA; SABINOPOLIS-PJ-UNPJ 8.170,49 2.451,15 0,00 0,00 5,11 0,00 838,77 2.319,39 13.784,91 1.430,80 2.274,16 0,00 0,00 3.704,96 10.079,95 30/11/2020
588 649500 CRISTINA DO DIVINO ESPIRITO SANTOS OFICIAL DO MP DIVINÓPOLIS - COMARCA; DIVINOPOLIS-PJ-12PJ 4.817,57 289,05 0,00 0,00 0,00 0,00 465,64 1.550,00 7.122,26 680,32 625,17 0,00 0,00 1.305,49 5.816,77 30/11/2020
589 348201 CRISTINA MARIA DA SILVA ANALISTA DO MP UBERLÂNDIA - COMARCA; UBERLANDIA-PJ-20PJ 10.069,62 2.013,92 0,00 0,00 0,00 0,00 1.853,99 2.319,39 16.256,92 1.594,81 2.679,10 0,00 0,00 4.273,91 11.983,01 30/11/2020
590 434900 CRISTINA MELO DE MADUREIRA ANALISTA DO MP BELO HORIZONTE - COMARCA; BH-07PJ 01 TRIBUNAL JURI-SECRETARIA 13.011,52 2.602,30 0,00 0,00 0,00 0,00 1.288,84 1.550,00 18.452,66 2.128,77 3.967,89 0,00 0,00 6.096,66 12.356,00 30/11/2020
591 307700 CRISTINA TEIXEIRA MARQUES OFICIAL DO MP BELO HORIZONTE - COMARCA; CENTRAL DE APOIO TECNICO-SETOR CONTABIL 8.858,43 2.657,53 0,00 0,00 101,97 0,00 1.070,21 1.550,00 14.238,14 1.534,21 2.544,26 0,00 0,00 4.078,47 10.159,67 30/11/2020
592 265300 CRISTOVAO SANCHES DE MEDEIROS ANALISTA DO MP BELO HORIZONTE - COMARCA; DIRETORIA DE CONTABILIDADE 16.750,82 5.025,25 0,00 0,00 0,00 0,00 1.931,55 1.550,00 25.257,62 2.871,47 5.519,67 0,00 0,00 8.391,14 16.866,48 30/11/2020
593 349800 CROZEIR LUIZ DA SILVA OFICIAL DO MP UNAÍ - COMARCA; UNAI-PJ-SECRETARIA 9.444,70 1.888,94 0,00 0,00 90,55 0,00 1.035,06 3.658,20 16.117,45 1.511,03 2.440,55 0,00 0,00 3.951,58 12.165,87 30/11/2020
594 490500 CYNTHIA CRISTINA DE SOUZA OLIVEIRA VALENTE ANALISTA DO MP BELO HORIZONTE - COMARCA; BH-09PJ AUDITORIA MILITAR-SECRETARIA 10.069,62 1.006,96 0,00 0,00 0,00 0,00 1.134,18 1.550,00 13.760,76 1.484,05 2.432,64 0,00 0,00 3.916,69 9.844,07 30/11/2020
595 389800 CYNTHIA GARIGLIO DOS SANTOS OFICIAL DO MP PERDIZES - COMARCA; PERDIZES-PJ-SECRETARIA 6.529,10 1.305,82 0,00 0,00 0,00 0,00 835,95 2.319,39 10.990,26 1.083,23 1.384,42 0,00 0,00 2.467,65 8.522,61 30/11/2020
596 335101 CYNTHIA GONTIJO D ASSUNCAO ANALISTA DO MP BELO HORIZONTE - COMARCA; PROC. JUSTICA DIR. DIFUSOS E COLETIVOS-SEC 10.069,62 1.006,96 0,00 0,00 0,00 0,00 983,12 2.319,39 14.379,09 1.484,05 2.432,64 0,00 0,00 3.916,69 10.462,40 30/11/2020
597 154000 CYNTHIA LOPES DOS SANTOS LAGES ASSESSOR BELO HORIZONTE - COMARCA; PROCURADOR-GERAL DE JUSTICA- GABINETE 0,00 9.404,62 13.435,16 182,57 0,00 3.379,30 2.298,88 1.550,00 30.250,53 3.060,09 6.780,87 0,00 0,00 9.840,96 20.409,57 30/11/2020
598 269700 CYNTIA ROCHA CAVALCANTI OFICIAL DO MP UBERLÂNDIA - COMARCA; UBERLANDIA-PJ-06PJ 12.601,30 3.780,39 0,00 0,00 5.599,79 0,00 1.490,21 2.319,39 25.791,08 2.330,76 5.818,24 0,00 0,00 8.149,00 17.642,08 30/11/2020
599 278000 DAIRTON LOPES MARTINS FILHO COORDENADOR/ANALISTA BELO HORIZONTE - COMARCA; DIRETORIA DE SISTEMAS DE INFORMACAO 0,00 4.030,55 13.435,16 0,00 0,00 0,00 1.698,50 1.550,00 20.714,21 1.858,80 4.585,98 0,00 0,00 6.444,78 14.269,43 30/11/2020
600 392700 DALIANA CHAVES IBRAIM MARINHO OFICIAL DO MP ITAÚNA - COMARCA; ITAUNA-PJ-04PJ 7.187,72 1.437,54 0,00 0,00 0,00 0,00 723,04 1.550,00 10.898,30 1.157,02 1.756,03 0,00 0,00 2.913,05 7.985,25 30/11/2020
601 558101 DALLEY TASSIA SILVA ANALISTA DO MP MORADA NOVA DE MINAS - COMARCA; MORADA NOVA DE MINAS-PJ-UNPJ 8.436,53 843,65 0,00 0,00 0,00 0,00 780,53 3.088,78 13.149,49 1.236,35 1.777,23 0,00 0,00 3.013,58 10.135,91 30/11/2020
602 476700 DALTON DAUD ANALISTA DO MP ARAGUARI - COMARCA; ARAGUARI-PJ-05PJ 10.069,62 1.006,96 0,00 0,00 3.692,19 0,00 1.111,02 1.550,00 17.429,79 1.484,05 3.343,72 0,00 0,00 4.827,77 12.602,02 30/11/2020
603 426900 DANIEL ALVES DA SILVA OFICIAL DO MP BELO HORIZONTE - COMARCA; DIVISAO TRANSPORTES 6.123,79 1.224,76 0,00 0,00 0,00 0,00 719,97 1.550,00 9.618,52 984,56 1.217,02 0,00 0,00 2.201,58 7.416,94 30/11/2020
604 122000 DANIEL ANTONIO VIEIRA OFICIAL DO MP ENTRE-RIOS DE MINAS - COMARCA; ENTRE RIOS DE MINAS-PJ-SECRETARIA 10.069,62 8.055,69 0,00 0,00 0,00 0,00 1.508,16 1.050,00 20.683,47 2.404,29 4.271,64 0,00 0,00 6.675,93 14.007,54 30/11/2020
605 411000 DANIEL FERREIRA DA SILVA ANALISTA DO MP GOVERNADOR VALADARES - COMARCA; GOVERNADOR VALADARES-PJ-15PJ 12.601,30 3.780,39 0,00 0,00 0,00 0,00 2.257,16 3.088,78 21.727,63 2.264,83 3.961,33 0,00 0,00 6.226,16 15.501,47 30/11/2020
606 309000 DANIEL GOMES DOS SANTOS ANALISTA DO MP POÇOS DE CALDAS - COMARCA; POCOS DE CALDAS-PJ-03PJ 17.413,92 5.224,18 0,00 0,00 7.722,67 0,00 3.062,03 1.550,00 34.972,80 3.130,87 8.171,97 0,00 0,00 11.302,84 23.669,96 30/11/2020
607 554500 DANIEL GOMES PEREIRA OFICIAL DO MP NANUQUE - COMARCA; NANUQUE-PJ-02PJ 5.930,75 593,08 0,00 0,00 0,00 0,00 609,17 1.550,00 8.683,00 859,73 1.043,54 0,00 0,00 1.903,27 6.779,73 30/11/2020
608 453000 DANIEL GONCALVES PEREIRA ANALISTA DO MP UNAÍ - COMARCA; UNAI-PJ-02PJ 10.069,62 2.013,92 0,00 0,00 4.027,85 0,00 1.110,51 3.472,93 20.694,83 1.594,81 3.786,76 0,00 0,00 5.381,57 15.313,26 30/11/2020
609 495500 DANIEL GUIMARAES CABRAL OFICIAL DO MP BELO HORIZONTE - COMARCA; BH-17PJ PATRIMONIO PUBLICO-SECRETARIA 6.123,79 612,38 0,00 0,00 0,00 0,00 694,12 1.550,00 8.980,29 902,51 1.138,73 0,00 0,00 2.041,24 6.939,05 30/11/2020
610 442900 DANIEL GUIMARAES GONCALVES ANALISTA DO MP UBERLÂNDIA - COMARCA; UBERLANDIA-PJ-03PJ 12.601,30 2.520,26 0,00 0,00 5.040,52 0,00 1.364,68 1.550,00 23.076,76 2.014,56 4.999,19 0,00 0,00 7.013,75 16.063,01 30/11/2020
611 655900 DANIEL LUIZ DA SILVA ASSESSOR BELO HORIZONTE - COMARCA; DIV FISCAL ADM CONT TERCEIRIZACAO 0,00 0,00 3.076,28 0,00 0,00 0,00 268,87 1.550,00 4.895,15 620,98 314,71 0,00 0,00 935,69 3.959,46 30/11/2020
612 464600 DANIEL PIACENTINI STIVANIN ANALISTA DO MP ANDRADAS - COMARCA; ANDRADAS-PJ-02PJ 10.069,62 1.006,96 0,00 0,00 0,00 0,00 963,52 1.550,00 13.590,10 1.484,05 2.432,64 0,00 0,00 3.916,69 9.673,41 30/11/2020
613 417000 DANIEL QUEIROZ FERREIRA ANALISTA DO MP SÃO SEBASTIÃO DO PARAÍSO - COMARCA; SAO SEBASTIAO DO PARAISO-PJ-05PJ 12.601,30 2.520,26 0,00 0,00 15,03 0,00 1.243,89 1.550,00 17.930,48 2.151,47 4.015,23 0,00 0,00 6.166,70 11.763,78 30/11/2020
614 396700 DANIEL SILVA CARNEVALLI DIRETOR/ANALISTA BELO HORIZONTE - COMARCA; SUPERINTENDENCIA DE TECNOLOGIA DA INFORMACAO 0,00 3.482,78 17.413,92 -54,14 0,00 0,00 1.716,39 2.319,39 24.878,34 2.391,92 5.442,47 0,00 108,28 7.942,67 16.935,67 30/11/2020
615 489300 DANIEL TABOZA ROCHA ANALISTA DO MP IPATINGA - COMARCA; IPATINGA-PJ-08PJ 10.069,62 1.006,96 0,00 0,00 0,00 0,00 1.013,16 2.319,39 14.409,13 1.484,05 2.506,43 0,00 0,00 3.990,48 10.418,65 30/11/2020
616 414100 DANIEL TARDELI VALADAO ANALISTA DO MP TRÊS CORACOES - COMARCA; TRES CORACOES-PJ-02PJ 12.601,30 2.520,26 0,00 0,00 0,00 0,00 1.295,58 3.088,78 19.505,92 2.014,56 3.404,50 0,00 0,00 5.419,06 14.086,86 30/11/2020
617 446601 DANIEL VIEIRA BUENO ANALISTA DO MP SÃO DOMINGOS DO PRATA - COMARCA; SAO DOMINGOS DO PRATA-PJ-UNPJ 8.858,43 531,51 0,00 0,00 3.129,98 0,00 774,07 2.319,39 15.613,38 1.240,59 2.699,55 0,00 0,00 3.940,14 11.673,24 30/11/2020
618 253200 DANIELA BATISTA LIMA BARBOSA ASSESSOR BELO HORIZONTE - COMARCA; CENTRAL DE APOIO TECN-SETOR DE MEIO AMBIENTE 0,00 1.540,90 5.136,32 0,00 0,00 0,00 576,70 1.550,00 8.803,92 713,09 1.473,59 0,00 0,00 2.186,68 6.617,24 30/11/2020
619 505800 DANIELA BORGES DE MATTOS RESENDE ANALISTA DO MP JUIZ DE FORA - COMARCA; JUIZ DE FORA-PJ-20PJ 10.069,62 1.006,96 0,00 0,00 3.692,19 0,00 2.209,17 2.319,39 19.297,33 1.609,37 3.800,62 0,00 0,00 5.409,99 13.887,34 30/11/2020
620 478000 DANIELA CARVALHO SOARES ANALISTA DO MP SÃO JOÃO DEL REI - COMARCA; SAO JOAO DEL REI-PJ-01PJ 10.069,62 1.006,96 0,00 0,00 0,00 0,00 979,33 1.550,00 13.605,91 1.484,05 2.506,43 0,00 0,00 3.990,48 9.615,43 30/11/2020
621 275900 DANIELA CHAGAS SODRE ANALISTA DO MP BELO HORIZONTE - COMARCA; CENTRAL DE APOIO TECNICO-SETOR CONTABIL 17.413,92 5.224,18 0,00 0,00 0,00 0,00 1.826,36 1.550,00 26.014,46 3.012,40 5.781,09 0,00 0,00 8.793,49 17.220,97 30/11/2020
622 234301 DANIELA CRUZ SOARES ANALISTA DO MP BELO HORIZONTE - COMARCA; LABORATORIO TECNOLOGIA INTELIGENCIA 18.103,37 5.431,01 0,00 0,00 0,00 0,00 2.217,25 1.550,00 27.301,63 3.131,66 6.249,39 0,00 0,00 9.381,05 17.920,58 30/11/2020
623 638000 DANIELA DE ALMEIDA BATISTA ANALISTA DO MP ANDRELÂNDIA - COMARCA; ANDRELANDIA-PJ-UNPJ 8.170,49 817,05 0,00 0,00 0,00 0,00 750,45 2.319,39 12.057,38 671,12 1.889,31 0,00 0,00 2.560,43 9.496,95 30/11/2020
624 301000 DANIELA DE ALMEIDA E OLIVEIRA ANALISTA DO MP BELO HORIZONTE - COMARCA; DIRETORIA DE SISTEMAS DE INFORMACAO 17.413,92 5.224,18 0,00 0,00 200,92 0,00 1.815,62 1.550,00 26.204,64 3.012,40 5.833,23 0,00 0,00 8.845,63 17.359,01 30/11/2020
625 296000 DANIELA DE AZEVEDO SILVA ANALISTA DO MP BRASÓPOLIS - COMARCA; BRASOPOLIS-PJ-UNPJ 16.750,82 5.025,25 0,00 0,00 0,00 0,00 2.678,85 1.550,00 26.004,92 3.063,92 5.947,87 0,00 0,00 9.011,79 16.993,13 30/11/2020
626 453500 DANIELA DE CASTRO SOUSA BARBOSA ANALISTA DO MP BELO HORIZONTE - COMARCA; BH-08PJ JUIZADO ESPECIAL-SECRETARIA 10.069,62 2.013,92 0,00 0,00 4.027,85 0,00 1.421,17 1.550,00 19.082,56 1.633,73 3.873,36 0,00 0,00 5.507,09 13.575,47 30/11/2020
627 506000 DANIELA DE OLIVEIRA CAVALIERI ANALISTA DO MP BELO HORIZONTE - COMARCA; BH-14PJ DEFESA CONSUMIDOR-GAB 005PJ 10.069,62 1.006,96 0,00 0,00 0,00 0,00 1.023,00 1.550,00 13.649,58 1.467,56 2.465,17 0,00 0,00 3.932,73 9.716,85 30/11/2020
628 546200 DANIELA DE VILHENA LEMES GONCALVES OFICIAL DO MP TRÊS CORACOES - COMARCA; TRES CORACOES-PJ-05PJ 5.387,19 538,72 0,00 0,00 0,00 0,00 508,60 1.550,00 7.984,51 789,47 782,94 0,00 0,00 1.572,41 6.412,10 30/11/2020
629 356400 DANIELA LEAL FERRAZ ANALISTA DO MP MONTES CLAROS - COMARCA; COORD REG PJ DEF EDUC DIR CRIANCA ADOL NORTE 14.790,66 2.958,13 0,00 0,00 5.916,26 0,00 1.552,71 1.550,00 26.767,76 2.525,26 6.490,81 0,00 0,00 9.016,07 17.751,69 30/11/2020
630 501000 DANIELA LOURENCO SANTOS DA SILVA GUIMARAES ANALISTA DO MP BELO HORIZONTE - COMARCA; BH-12PJ JUIZO CRIMINAL-GAB 095PJ 10.069,62 1.006,96 0,00 0,00 3.692,19 0,00 1.127,42 1.550,00 17.446,19 1.484,05 3.395,86 0,00 0,00 4.879,91 12.566,28 30/11/2020
631 195801 DANIELA MARIA DE OLIVEIRA QUEIROZ ANALISTA DO MP ARAGUARI - COMARCA; ARAGUARI-PJ-06PJ 13.011,52 5.204,61 0,00 0,00 162,74 0,00 1.487,28 1.550,00 21.416,15 2.483,57 4.656,59 0,00 0,00 7.140,16 14.275,99 30/11/2020
632 511400 DANIELA MARIA LARA DE OLIVEIRA ANALISTA DO MP BOA ESPERANÇA - COMARCA; BOA ESPERANCA-PJ-02PJ 10.069,62 1.006,96 0,00 0,00 103,16 0,00 1.344,49 2.319,39 14.843,62 1.505,28 2.427,76 0,00 0,00 3.933,04 10.910,58 30/11/2020
633 252101 DANIELA PAULA ALVES PENA ANALISTA DO MP CONTAGEM - COMARCA; CONTAGEM-PJ-APO TECNICO 14.324,23 5.729,69 0,00 0,00 0,00 0,00 1.729,05 1.550,00 23.332,97 2.642,77 5.132,14 0,00 0,00 7.774,91 15.558,06 30/11/2020
634 604700 DANIELA PEIXOTO NOGUEIRA COORDENADOR/OFICIAL BELO HORIZONTE - COMARCA; DIRET DE FORMACAO, APERFEIC. E POS-GRADUACAO 0,00 1.181,92 11.819,15 -20,55 4.333,69 0,00 1.728,40 2.319,39 21.362,00 1.029,40 4.533,18 0,00 46,21 5.608,79 15.753,21 30/11/2020
635 429600 DANIELA PIMENTA NUNES MACHADO ANALISTA DO MP BELO HORIZONTE - COMARCA; BH-05PJ-JUÍZO SUCESSÕES-SEC 13.011,52 2.602,30 0,00 0,00 139,17 0,00 1.480,84 2.319,39 19.553,22 2.128,77 3.815,03 0,00 0,00 5.943,80 13.609,42 30/11/2020
636 662000 DANIELA RIBAS DE AVILA ASSESSOR I BELO HORIZONTE - COMARCA; DIRETORIA DE SEGURANCA 0,00 0,00 8.170,49 0,00 0,00 0,00 718,31 1.550,00 10.438,80 713,09 2.028,19 0,00 0,00 2.741,28 7.697,52 30/11/2020
637 462000 DANIELA SOUSA GOMES DO AMARAL ANALISTA DO MP BETIM - COMARCA; BETIM-PJ-04PJ 10.069,62 1.006,96 0,00 0,00 0,00 0,00 1.046,06 1.550,00 13.672,64 1.484,05 2.432,64 0,00 0,00 3.916,69 9.755,95 30/11/2020
638 427000 DANIELA TEIXEIRA DINIZ ANDRADE ANALISTA DO MP BELO HORIZONTE - COMARCA; DIRETORIA DE PROJETOS DE EDIFICACOES 10.069,62 2.013,92 0,00 0,00 0,00 0,00 1.195,93 1.550,00 14.829,47 1.618,96 2.745,77 0,00 0,00 4.364,73 10.464,74 30/11/2020
639 337200 DANIELA TOLEDO SENIUK ANALISTA DO MP BELO HORIZONTE - COMARCA; GABINETE DE PROCURADOR DE JUSTIÇA - SALA 412 13.435,16 4.030,55 0,00 0,00 5.821,90 0,00 1.360,87 1.550,00 26.198,48 2.295,66 5.943,50 0,00 0,00 8.239,16 17.959,32 30/11/2020
640 605600 DANIELE ALZIRA SILVA CABRAL MOREIRA OFICIAL DO MP BELO HORIZONTE - COMARCA; BH-10PJ EXECUÇÃO PENAL-SECRETARIA 5.930,75 593,08 0,00 0,00 54,30 0,00 520,22 2.319,39 9.417,74 878,79 1.085,94 0,00 0,00 1.964,73 7.453,01 30/11/2020
641 195500 DANIELE CHAVES FONSECA OFICIAL DO MP BELO HORIZONTE - COMARCA; ASSESSORIA ESPECIAL DO PGJ 15.499,20 6.199,68 0,00 0,00 7.409,06 0,00 1.865,53 1.550,00 32.523,47 2.867,79 7.500,53 0,00 0,00 10.368,32 22.155,15 30/11/2020
642 323400 DANIELE MEGALE SANTINI OFICIAL DO MP BELO HORIZONTE - COMARCA; ASSESS TECNICO-JUR JUNTO AS PROC. DE JUST 10.069,62 3.020,89 0,00 0,00 99,84 0,00 1.192,30 1.550,00 15.932,65 1.758,23 2.990,55 0,00 0,00 4.748,78 11.183,87 30/11/2020
643 357900 DANIELE REJANE PINTO VERSIEUX OFICIAL DO MP PEDRO LEOPOLDO - COMARCA; PEDRO LEOPOLDO-PJ-03PJ 9.146,93 1.829,39 0,00 0,00 97,51 0,00 1.642,80 1.550,00 14.266,63 1.558,60 2.598,53 0,00 0,00 4.157,13 10.109,50 30/11/2020
644 389500 DANIELE VASCONCELOS AMORIM PRADO OFICIAL DO MP SÃO SEBASTIÃO DO PARAÍSO - COMARCA; SAO SEBASTIAO DO PARAISO-PJ-04PJ 8.858,43 1.771,69 0,00 0,00 0,00 0,00 854,19 1.550,00 13.034,31 1.497,74 2.463,12 0,00 0,00 3.960,86 9.073,45 30/11/2020
645 629700 DANIELLA BASTOS MARTINS BICALHO OFICIAL DO MP GOVERNADOR VALADARES - COMARCA; GOVERNADOR VALADARES-PJ-16PJ 5.387,19 538,72 0,00 0,00 2.029,37 0,00 499,19 1.550,00 10.004,47 834,33 1.530,24 0,00 0,00 2.364,57 7.639,90 30/11/2020
646 265000 DANIELLE CASTANHEIRA SCALABRINI OFICIAL DO MP BELO HORIZONTE - COMARCA; JUNTA RECURSAL DO PROCON ESTADUAL 10.069,62 3.020,89 0,00 0,00 4.363,50 0,00 1.308,66 1.550,00 20.312,67 1.753,88 4.128,71 0,00 0,00 5.882,59 14.430,08 30/11/2020
647 490100 DANIELLE DE AVILA SILVA LOPES ANALISTA DO MP BELO HORIZONTE - COMARCA; PROC. JUSTICA DIR. DIFUSOS E COLETIVOS-SEC 10.069,62 3.020,89 0,00 0,00 4.363,50 0,00 1.188,38 3.088,78 21.731,17 1.753,88 4.232,98 0,00 0,00 5.986,86 15.744,31 30/11/2020
648 549600 DANIELLE GOMES LOPES RODRIGUES OFICIAL DO MP VESPASIANO - COMARCA; VESPASIANO-PJ-02PJ 5.930,75 593,08 0,00 0,00 0,00 0,00 526,10 1.550,00 8.599,93 859,73 1.043,54 0,00 0,00 1.903,27 6.696,66 30/11/2020
649 613000 DANIELLE SILVA OLIVEIRA FRANKLIN ASSESSOR/OFICIAL BELO HORIZONTE - COMARCA; DIRETORIA DE ORCAMENTO-DIOR/SPC 0,00 1.039,75 10.397,52 0,00 0,00 0,00 782,12 3.088,78 15.308,17 885,61 2.612,62 0,00 5,29 3.503,52 11.804,65 30/11/2020
650 380800 DANILLO RIBEIRO ANTUNES ANALISTA DO MP MONTES CLAROS - COMARCA; MONTES CLAROS-PJ-SECRETARIA 14.324,23 2.864,85 0,00 0,00 0,00 0,00 1.501,21 1.550,00 20.240,29 2.315,44 4.334,37 0,00 0,00 6.649,81 13.590,48 30/11/2020
651 453700 DANILO BOTELHO DE CARVALHO ASSESSOR/ANALISTA BELO HORIZONTE - COMARCA; SUPERINTENDENCIA DE FINANCAS 0,00 4.939,57 24.697,83 -135,33 9.879,13 0,00 2.313,51 2.319,39 44.014,10 2.314,87 10.900,20 0,00 290,14 13.505,21 30.508,89 30/11/2020
652 391200 DANILO D'AVILA MENDES ANALISTA DO MP MONTES CLAROS - COMARCA; GAECO REGIONAL DE MONTES CLAROS 14.324,23 2.864,85 0,00 0,00 5.737,96 0,00 1.517,46 2.319,39 26.763,89 2.315,44 5.962,17 0,00 0,00 8.277,61 18.486,28 30/11/2020
653 494900 DANILO GAVIAO AVELINO DE MELLO ANALISTA DO MP POUSO ALEGRE - COMARCA; GAECO REGIONAL DE POUSO ALEGRE 10.069,62 1.006,96 0,00 0,00 3.692,19 0,00 1.065,61 2.319,39 18.153,77 1.484,05 3.448,00 0,00 0,00 4.932,05 13.221,72 30/11/2020
654 604300 DANILO NASCIMENTO SALGADO ANALISTA DO MP JANAÚBA - COMARCA; JANAUBA-PJ-01PJ 9.146,93 914,69 0,00 0,00 3.353,87 0,00 1.031,23 1.550,00 15.996,72 1.374,99 3.174,11 0,00 0,00 4.549,10 11.447,62 30/11/2020
655 298300 DANUZA MONICA DE SOUZA DINIZ ANALISTA DO MP BELO HORIZONTE - COMARCA; ASSESSORIA ESPECIAL DO PGJ 13.872,60 4.161,78 0,00 0,00 6.011,46 0,00 1.525,17 1.550,00 27.121,01 2.376,63 6.128,77 0,00 0,00 8.505,40 18.615,61 30/11/2020
656 398700 DARCY LUIZ MILEO GREGATTI OFICIAL DO MP LAMBARI - COMARCA; LAMBARI-PJ-SECRETARIA 8.579,10 1.715,82 0,00 0,00 0,00 0,00 1.003,26 1.550,00 12.848,18 1.407,79 2.262,96 0,00 0,00 3.670,75 9.177,43 30/11/2020
657 406200 DARIANA AUGUSTA DE TOLEDO PATROCINIO RUIZ COORDENADOR/OFICIAL BELO HORIZONTE - COMARCA; DIRETORIA GESTAO COMPRAS LICITACOES 0,00 2.687,03 13.435,16 -87,94 0,00 0,00 1.586,83 1.550,00 19.171,08 1.555,93 4.044,44 0,00 188,81 5.789,18 13.381,90 30/11/2020
658 586901 DARIO VITORINO DE CARVALHO SILVA ASSESSOR BELO HORIZONTE - COMARCA; DIRETORIA DE SEGURANCA 0,00 0,00 17.413,92 0,00 5.804,64 0,00 885,53 1.550,00 25.654,09 713,09 6.614,00 0,00 0,00 7.327,09 18.327,00 30/11/2020
659 305000 DARLI LEITE DE OLIVEIRA OFICIAL DO MP ARAÇUAÍ - COMARCA; ARACUAI-PJ-01PJ 6.123,79 1.837,14 0,00 0,00 0,00 0,00 726,97 1.550,00 10.237,90 1.051,93 1.314,76 0,00 0,00 2.366,69 7.871,21 30/11/2020
660 122200 DAVID RIBEIRO DOS SANTOS ANALISTA DO MP BORDA DA MATA - COMARCA; BORDA DA MATA-PJ-UNPJ 18.820,14 15.056,11 0,00 270,79 11.292,08 4.952,77 2.309,41 1.550,00 54.251,30 4.538,77 13.582,88 0,00 0,00 18.121,65 36.129,65 30/11/2020
661 389400 DAWSON CANEDO MARQUES OFICIAL DO MP TRÊS CORACOES - COMARCA; TRES CORACOES-PJ-01PJ 8.858,43 1.771,69 0,00 0,00 0,00 0,00 1.027,54 1.550,00 13.207,66 1.416,20 1.591,98 0,00 0,00 3.008,18 10.199,48 30/11/2020
662 537200 DAYANE TEIXEIRA DE OLIVEIRA CASELLI ANALISTA DO MP BELO HORIZONTE - COMARCA; ASSESS TECNICO-JUR JUNTO AS PROC. DE JUST 7.421,79 445,31 0,00 0,00 0,00 0,00 245,62 1.550,00 9.662,72 1.054,04 1.528,29 0,00 0,00 2.582,33 7.080,39 30/11/2020
663 256100 DAYSE ROSALY PEREIRA BATISTA OFICIAL DO MP BELO HORIZONTE - COMARCA; BH-08PJ JUIZADO ESPECIAL-SECRETARIA 10.069,62 3.020,89 0,00 0,00 4.478,48 0,00 1.191,77 1.550,00 20.310,76 1.836,75 4.417,36 0,00 0,00 6.254,11 14.056,65 30/11/2020
664 311901 DEBORA APARECIDA DA SILVA ASSESSOR BELO HORIZONTE - COMARCA; BH-23PJ CIVEL-SETOR ATEND PUB 0,00 0,00 3.076,28 0,00 0,00 0,00 271,83 1.550,00 4.898,11 621,22 314,65 0,00 0,00 935,87 3.962,24 30/11/2020
665 194301 DEBORA APARECIDA DOS SANTOS ANALISTA DO MP UBERLÂNDIA - COMARCA; UBERLANDIA-PJ-SEC FAMILIA 18.820,14 7.528,06 0,00 0,00 20,97 0,00 2.144,17 1.550,00 30.063,34 3.545,28 7.122,97 0,00 0,00 10.668,25 19.395,09 30/11/2020
666 518800 DEBORA CARVALHO FIORATTO COORDENADOR/OFICIAL BELO HORIZONTE - COMARCA; DIRETORIA MATERIAIS E SERVICOS 0,00 1.343,52 13.435,16 0,00 4.926,23 0,00 1.203,90 2.319,39 23.228,20 1.252,44 5.187,47 0,00 2,64 6.442,55 16.785,65 30/11/2020
667 444900 DEBORA CLAUDIA PEREIRA ALVES ANALISTA DO MP BELO HORIZONTE - COMARCA; BH-08PJ JUIZADO ESPECIAL-SECRETARIA 10.069,62 2.013,92 0,00 0,00 0,00 0,00 1.177,89 1.550,00 14.811,43 1.628,89 2.754,93 0,00 0,00 4.383,82 10.427,61 30/11/2020
668 617700 DEBORA COMANDUCI SCHREIDER ANALISTA DO MP BICAS - COMARCA; BICAS-PJ-UNPJ 8.436,53 843,65 0,00 0,00 0,00 0,00 788,99 1.550,00 11.619,17 1.236,35 1.889,24 0,00 0,00 3.125,59 8.493,58 30/11/2020
669 555700 DEBORA CRISTINA BUITRAGO PEREIRA ANALISTA DO MP BELO HORIZONTE - COMARCA; DIRETORIA GESTAO CONTRATOS CONVENIOS 9.146,93 914,69 0,00 0,00 0,00 0,00 835,33 3.088,78 13.985,73 1.329,32 2.088,39 0,00 0,00 3.417,71 10.568,02 30/11/2020
670 513100 DEBORA CRISTINA PEREIRA DE OLIVEIRA ANALISTA DO MP BELO HORIZONTE - COMARCA; BH-23PJ CIVEL-SETOR JURIDICO 10.069,62 1.006,96 0,00 0,00 0,00 0,00 1.111,77 2.319,39 14.507,74 1.484,05 2.432,64 0,00 0,00 3.916,69 10.591,05 30/11/2020
671 612100 DEBORA DUARTE SILVA DE SOUZA OFICIAL DO MP RIBEIRÃO DAS NEVES - COMARCA; RIBEIRAO DAS NEVES-PJ-06PJ 5.387,19 1.616,16 0,00 0,00 62,30 0,00 680,98 1.550,00 9.296,63 933,02 1.102,32 0,00 0,00 2.035,34 7.261,29 30/11/2020
672 539700 DEBORA SALES CARVALHO ANALISTA DO MP PATOS DE MINAS - COMARCA; COORD REG PJ DEF EDU DIR CRI ADO AL PAR NOROE 9.146,93 914,69 0,00 0,00 0,00 0,00 811,61 1.550,00 12.423,23 1.329,32 2.088,39 0,00 0,00 3.417,71 9.005,52 30/11/2020
673 424100 DEBORA SANTOS E ALVES ANALISTA DO MP JANUÁRIA - COMARCA; JANUARIA-PJ-01PJ 13.011,52 2.602,30 0,00 0,00 5.204,61 0,00 1.487,43 3.088,78 25.394,64 2.080,14 5.190,23 0,00 0,00 7.270,37 18.124,27 30/11/2020
674 426301 DEBORA SCUCATO MACHADO SOARES OFICIAL DO MP ITABIRITO - COMARCA; ITABIRITO-PJ-01PJ 5.930,75 1.186,15 0,00 0,00 2.372,30 0,00 611,39 2.319,39 12.419,98 937,89 1.869,82 0,00 0,00 2.807,71 9.612,27 30/11/2020
675 678100 DEBORA SOUZA COSTA ASSESSOR PROMOTOR JUSTICA BOTELHOS - COMARCA; BOTELHOS-PJ-UNPJ 0,00 0,00 7.187,72 0,00 0,00 0,00 0,00 1.550,00 8.737,72 713,09 1.161,52 0,00 0,00 1.874,61 6.863,11 30/11/2020
676 550200 DEBORA TRINDADE LEITE ANALISTA DO MP MANHUAÇU - COMARCA; MANHUACU-PJ-05PJ 9.146,93 914,69 0,00 0,00 0,00 0,00 829,67 1.550,00 12.441,29 1.329,32 2.045,93 0,00 0,00 3.375,25 9.066,04 30/11/2020
677 438000 DEBORAH COSTA LAGE ANALISTA DO MP BELO HORIZONTE - COMARCA; PROC JUST RECURSOS ESP E EXTRAORD CRIMINAIS 13.011,52 2.602,30 0,00 0,00 0,00 0,00 1.317,57 1.550,00 18.481,39 2.128,77 3.967,89 0,00 0,00 6.096,66 12.384,73 30/11/2020
678 475700 DEBORAH LOBAO LACERDA ASSESSOR/OFICIAL BELO HORIZONTE - COMARCA; BH-17PJ PATRIMONIO PUBLICO-SECRETARIA 0,00 817,05 8.170,49 0,00 0,00 0,00 865,47 1.550,00 11.403,01 956,51 1.877,05 0,00 0,00 2.833,56 8.569,45 30/11/2020
679 678500 DEBORAH PESSOA DA SILVA GUEDES ASSESSOR PROCURADOR JUSTICA BELO HORIZONTE - COMARCA; GABINETE DE PROCURADOR DE JUSTIÇA - SALA 703 0,00 0,00 7.187,72 0,00 0,00 0,00 0,00 1.550,00 8.737,72 713,09 1.213,66 0,00 0,00 1.926,75 6.810,97 30/11/2020
680 613700 DEISER MARIA FERREIRA ROSCOE OFICIAL DO MP BELO HORIZONTE - COMARCA; DIVISAO FROTA 5.387,19 538,72 0,00 0,00 1.975,30 0,00 551,13 1.550,00 10.002,34 789,47 1.468,65 0,00 0,00 2.258,12 7.744,22 30/11/2020
681 551900 DEISY ROCHA DA SILVA ANALISTA DO MP CARMO DO PARANAÍBA - COMARCA; CARMO DO PARANAIBA-PJ-01PJ 9.146,93 914,69 0,00 0,00 0,00 0,00 937,82 1.550,00 12.549,44 1.329,32 2.150,20 0,00 0,00 3.479,52 9.069,92 30/11/2020
682 501900 DELI RAQUEL RODRIGUES ANALISTA DO MP ITUIUTABA - COMARCA; ITUIUTABA-PJ-04PJ 10.069,62 1.006,96 0,00 0,00 3.692,19 0,00 1.071,85 1.550,00 17.390,62 1.484,05 3.448,00 0,00 0,00 4.932,05 12.458,57 30/11/2020
683 378600 DELIANE LOPES VIEIRA BREIJAO ANALISTA DO MP JUIZ DE FORA - COMARCA; JUIZ DE FORA-PJ-12PJ 14.324,23 2.864,85 0,00 0,00 5.866,97 0,00 1.359,60 1.550,00 25.965,65 2.315,44 5.806,02 0,00 0,00 8.121,46 17.844,19 30/11/2020
684 487700 DENIA FERREIRA MAIA SILVA OFICIAL DO MP TRÊS CORACOES - COMARCA; TRES CORACOES-PJ-04PJ 6.123,79 612,38 0,00 0,00 2.245,39 0,00 619,61 2.319,39 11.920,56 902,51 1.696,81 0,00 0,00 2.599,32 9.321,24 30/11/2020
685 424800 DENIS APARECIDO CAMPOS DELFINO ANALISTA DO MP LUZ - COMARCA; LUZ-PJ-UNPJ 12.601,30 2.520,26 0,00 0,00 5.168,74 0,00 1.374,34 2.319,39 23.984,03 2.151,47 5.095,27 0,00 0,00 7.246,74 16.737,29 30/11/2020
686 381400 DENISE ANGELICA MELLO DE PAULA OFICIAL DO MP BELO HORIZONTE - COMARCA; BH-18PJ DIREITOS HUMANOS-SECRETARIA 8.858,43 1.771,69 0,00 0,00 0,00 0,00 902,33 2.319,39 13.851,84 1.416,20 2.281,68 0,00 0,00 3.697,88 10.153,96 30/11/2020
687 196300 DENISE DE ALMEIDA VILELA FURTADO OFICIAL DO MP BELO HORIZONTE - COMARCA; CENTRAL DE APOIO TECNICO-SECRETARIA 12.204,02 4.881,61 0,00 0,00 0,00 0,00 1.484,59 2.703,54 21.273,76 2.430,89 4.539,38 0,00 0,00 6.970,27 14.303,49 30/11/2020
688 336900 DENISE DE SOUSA MORAES SILVA OFICIAL DO MP MATEUS LEME - COMARCA; MATEUS LEME-PJ-02PJ 6.123,79 1.224,76 0,00 58,74 2.449,52 3.203,34 738,28 1.550,00 15.348,43 984,56 2.747,30 0,00 0,00 3.731,86 11.616,57 30/11/2020
689 271100 DENISE ELOY PEIXOTO OFICIAL DO MP BELO HORIZONTE - COMARCA; DIRETORIA DE INTELIGENCIA 12.601,30 3.780,39 0,00 0,00 5.599,79 0,00 1.477,13 1.550,00 25.008,61 2.330,76 5.818,24 0,00 0,00 8.149,00 16.859,61 30/11/2020
690 385400 DENISE FREITAS DE ASSIS ASSESSOR/OFICIAL CARATINGA - COMARCA; CARATINGA-PJ-SECRETARIA 0,00 2.079,50 10.397,52 0,00 5,02 0,00 909,87 1.550,00 14.941,91 1.390,69 2.888,25 0,00 0,00 4.278,94 10.662,97 30/11/2020
691 437100 DENISE NOGUEIRA MAGRI MENDES ANALISTA DO MP BELO HORIZONTE - COMARCA; LAB TECNOLOGIA CONTRA LAVAGEM DINHEIRO 13.011,52 3.903,46 0,00 0,00 5.778,09 0,00 1.493,25 1.550,00 25.736,32 2.306,18 5.656,01 0,00 0,00 7.962,19 17.774,13 30/11/2020
692 524700 DENISE RAMOS GUIMARAES OFICIAL DO MP BELO HORIZONTE - COMARCA; BH-07PJ 01 TRIBUNAL JURI-SECRETARIA 6.123,79 612,38 0,00 0,00 0,00 0,00 581,89 1.550,00 8.868,06 897,43 1.127,41 0,00 0,00 2.024,84 6.843,22 30/11/2020
693 239100 DENISE RIBEIRO DOS SANTOS CAETANO OFICIAL DO MP ITANHANDU - COMARCA; ITANHANDU-PJ-SECRETARIA 12.601,30 3.780,39 0,00 0,00 5.599,79 0,00 1.488,74 1.550,00 25.020,22 2.330,76 5.766,11 0,00 0,00 8.096,87 16.923,35 30/11/2020
694 325500 DENISE ROSA TORRES OFICIAL DO MP BELO HORIZONTE - COMARCA; DIRETORIA DE PESSOAL ADMINISTRATIVO - DPAD 10.069,62 3.020,89 0,00 0,00 4.363,50 0,00 1.362,22 1.550,00 20.366,23 1.757,05 4.225,44 0,00 18,71 6.001,20 14.365,03 30/11/2020
695 437200 DENISE VIVIANE DOS SANTOS ANALISTA DO MP BELO HORIZONTE - COMARCA; ASSESS TECNICA DA CORREGEDORIA-GERAL DO MP 11.085,56 2.217,11 0,00 0,00 0,00 0,00 1.137,03 2.703,54 17.143,24 1.813,69 3.061,82 0,00 0,00 4.875,51 12.267,73 30/11/2020
696 267900 DENISIA DE ALMEIDA SALES OFICIAL DO MP BELO HORIZONTE - COMARCA; BH-18PJ DIREITOS HUMANOS-SECRETARIA 9.444,70 2.833,41 0,00 0,00 0,00 0,00 1.062,33 1.550,00 14.890,44 1.674,00 2.882,37 0,00 0,00 4.556,37 10.334,07 30/11/2020
697 480300 DESIREE ARANTES FERREIRA GOUVEA OFICIAL DO MP PRATÁPOLIS - COMARCA; PRATAPOLIS-PJ-UNPJ 6.123,79 612,38 0,00 0,00 0,00 0,00 621,49 1.550,00 8.907,66 965,48 1.323,71 0,00 0,00 2.289,19 6.618,47 30/11/2020
698 355300 DEYSE CRISTINA MORAIS OFICIAL DO MP PASSOS - COMARCA; PASSOS-PJ-02PJ 9.444,70 1.888,94 0,00 0,00 0,00 0,00 1.035,95 1.550,00 13.919,59 1.493,58 2.522,44 0,00 0,00 4.016,02 9.903,57 30/11/2020
699 523700 DIANA CAMPOS RESENDE OFICIAL DO MP SÃO JOÃO DEL REI - COMARCA; SAO JOAO DEL REI-PJ-04PJ 7.421,79 3.710,90 0,00 0,00 3.710,90 0,00 930,72 1.550,00 17.324,31 1.499,62 3.530,11 0,00 0,00 5.029,73 12.294,58 30/11/2020
700 241900 DIANA CARDOSO MARTINS OFICIAL DO MP BELO HORIZONTE - COMARCA; CAO-CRIMINAL 9.146,93 2.744,08 0,00 0,00 0,00 0,00 1.424,14 1.550,00 14.865,15 1.629,02 2.831,93 0,00 0,00 4.460,95 10.404,20 30/11/2020
701 410100 DIANA GORDILHO SILVEIRA SENA ANALISTA DO MP BELO HORIZONTE - COMARCA; GABINETE DE PROCURADOR DE JUSTIÇA - SALA 1006 13.011,52 2.602,30 0,00 0,00 0,00 0,00 1.487,76 1.550,00 18.651,58 2.080,14 3.758,96 0,00 0,00 5.839,10 12.812,48 30/11/2020
702 553000 DIANA MARIA MARQUES ANALISTA DO MP BETIM - COMARCA; BETIM-PJ-13PJ 9.146,93 914,69 0,00 0,00 0,00 0,00 1.814,09 1.550,00 13.425,71 1.529,92 2.482,57 0,00 0,00 4.012,49 9.413,22 30/11/2020
703 520000 DIARLE TOSTE DOS SANTOS ANALISTA DO MP RIO POMBA - COMARCA; RIO POMBA-PJ-UNPJ 10.069,62 1.006,96 0,00 0,00 0,00 0,00 1.816,50 1.550,00 14.443,08 1.557,85 1.969,96 0,00 0,00 3.527,81 10.915,27 30/11/2020
704 539800 DIEGO CAMARGOS RODRIGUES OFICIAL DO MP CONTAGEM - COMARCA; CONTAGEM-PJ-19PJ 5.930,75 593,08 0,00 0,00 0,00 0,00 554,27 1.550,00 8.628,10 859,73 1.043,54 0,00 0,00 1.903,27 6.724,83 30/11/2020
705 607300 DIEGO CERVEIRA DE SOUZA ANALISTA DO MP PATOS DE MINAS - COMARCA; COORD REG BACIAS PARACATU,URUCUIA E ABAETE 10.069,62 1.006,96 0,00 0,00 0,00 0,00 816,41 1.550,00 13.442,99 1.470,82 2.403,22 0,00 0,00 3.874,04 9.568,95 30/11/2020
706 669300 DIEGO DA CUNHA SOARES ASSESSOR ADMINISTRATIVO I BELO HORIZONTE - COMARCA; DIRET DE INFORMACAO E EXPEDICAO DE PROCESSOS 0,00 0,00 3.076,28 0,00 0,00 0,00 93,57 1.550,00 4.719,85 590,33 321,61 0,00 0,00 911,94 3.807,91 30/11/2020
707 446900 DIEGO DE FREITAS OFICIAL DO MP UBERABA - COMARCA; UBERABA-PJ-06PJ 8.170,49 1.634,10 0,00 0,00 3.272,53 0,00 833,44 1.550,00 15.460,56 1.320,73 3.027,36 0,00 0,00 4.348,09 11.112,47 30/11/2020
708 288800 DILENE NEPOMUCENO ALVES OFICIAL DO MP BELO HORIZONTE - COMARCA; DIRETORIA DE PESSOAL ADMINISTRATIVO - DPAD 10.069,62 3.020,89 0,00 0,00 4.363,50 0,00 1.262,28 1.550,00 20.266,29 1.753,88 4.232,98 0,00 0,00 5.986,86 14.279,43 30/11/2020
709 681200 DILLIANY PAULA LOPES SERRANO ASSESSOR PROMOTOR JUSTICA RESPLENDOR - COMARCA; RESPLENDOR-PJ-UNPJ 0,00 0,00 7.187,72 0,00 0,00 0,00 0,00 1.550,00 8.737,72 713,09 1.213,66 0,00 0,00 1.926,75 6.810,97 30/11/2020
710 270101 DILSON DO AMARAL ANALISTA DO MP RIO CASCA - COMARCA; RIO CASCA-PJ-UNPJ 9.146,93 914,69 0,00 0,00 3.353,87 0,00 814,52 1.550,00 15.780,01 1.329,32 3.010,70 0,00 0,00 4.340,02 11.439,99 30/11/2020
711 466000 DIMITRI GUDE MARCIAL ANALISTA DO MP NANUQUE - COMARCA; NANUQUE-PJ-02PJ 10.069,62 1.006,96 0,00 0,00 0,00 0,00 1.104,19 2.319,39 14.500,16 1.554,17 2.558,17 0,00 0,00 4.112,34 10.387,82 30/11/2020
712 516300 DINORA APARECIDA MACEDO BRANDAO ANALISTA DO MP BELO HORIZONTE - COMARCA; BH-19PJ SAUDE-SECRETARIA 150PJ 9.444,70 944,47 0,00 0,00 3.463,06 0,00 844,17 1.550,00 16.246,40 1.385,11 3.164,85 0,00 0,00 4.549,96 11.696,44 30/11/2020
713 511700 DIOGENES HENRIQUES PEREIRA LOURENCO ANALISTA DO MP CONTAGEM - COMARCA; CONTAGEM-PJ-25PJ 10.069,62 1.006,96 0,00 0,00 3.692,19 0,00 1.142,87 1.550,00 17.461,64 1.484,05 3.448,00 0,00 0,00 4.932,05 12.529,59 30/11/2020
714 604100 DIOGO CESAR DE OLIVEIRA HONORIO ASSESSOR PIUMHI - COMARCA; PIUMHI-PJ-02PJ 0,00 0,00 5.136,32 0,00 0,00 0,00 439,68 1.550,00 7.126,00 713,09 957,46 0,00 0,00 1.670,55 5.455,45 30/11/2020
715 387800 DIOGO FELIX DA SILVA OFICIAL DO MP CONSELHEIRO PENA - COMARCA; CONSELHEIRO PENA-PJ-01PJ 8.170,49 1.634,10 0,00 0,00 3.346,51 0,00 886,16 1.550,00 15.587,26 1.320,73 2.968,03 0,00 0,00 4.288,76 11.298,50 30/11/2020
716 259600 DIOGO MESQUITA MAIA ANALISTA DO MP BELO HORIZONTE - COMARCA; DIRET DE APOIO AS PROCURADORIAS DE JUSTICA 16.750,82 13.400,66 0,00 226,67 0,00 4.383,18 2.686,59 1.550,00 38.997,92 3.975,88 9.201,33 0,00 0,00 13.177,21 25.820,71 30/11/2020
717 386700 DIRCIMAR FERNANDES CARNEIRO OFICIAL DO MP VISCONDE DO RIO BRANCO - COMARCA; VISCONDE DO RIO BRANCO-PJ-03PJ 8.858,43 6.200,90 0,00 0,00 5.147,82 0,00 1.371,54 1.550,00 23.128,69 2.121,81 5.232,10 0,00 0,00 7.353,91 15.774,78 30/11/2020
718 113800 DIRSON APARECIDO GUIMARAES ASSESSOR BELO HORIZONTE - COMARCA; DIVISAO DE MANUTENCAO PREDIAL 0,00 4.622,69 5.136,32 0,00 0,00 0,00 1.193,17 1.550,00 12.502,18 713,09 2.505,84 0,00 0,00 3.218,93 9.283,25 30/11/2020
719 216700 DOMICIO VALDETE PEREIRA OFICIAL DO MP TEÓFILO OTONI - COMARCA; COORD REG PJ DEF EDU DIR CRIAN ADOL JEQUI MUC 14.790,66 5.916,26 0,00 0,00 7.065,73 0,00 1.722,32 1.550,00 31.044,97 2.898,39 7.373,43 0,00 0,00 10.271,82 20.773,15 30/11/2020
720 192701 DONIZETTI APARECIDO AMORIM ANALISTA DO MP PRATÁPOLIS - COMARCA; PRATAPOLIS-PJ-UNPJ 9.752,14 3.900,86 0,00 0,00 0,00 0,00 1.166,09 1.550,00 16.369,09 1.933,70 3.380,99 0,00 0,00 5.314,69 11.054,40 30/11/2020
721 558700 DORCILIA FATIMA DE OLIVEIRA OFICIAL DO MP DIVINÓPOLIS - COMARCA; DIVINOPOLIS-PJ-02PJ 5.930,75 593,08 0,00 0,00 0,00 0,00 591,66 1.550,00 8.665,49 859,73 1.030,88 0,00 0,00 1.890,61 6.774,88 30/11/2020
722 555300 DOUGLAS CUNHA DE SOUZA ANALISTA DO MP VARZEA DA PALMA - COMARCA; VARZEA DA PALMA-PJ-01PJ 9.146,93 914,69 0,00 0,00 3.353,87 0,00 921,56 1.550,00 15.887,05 1.329,32 3.010,70 0,00 0,00 4.340,02 11.547,03 30/11/2020
723 265900 DOUGLAS GOMES MOREIRA ANALISTA DO MP BELO HORIZONTE - COMARCA; CENTRAL DE APOIO TECNICO-SETOR DE ENGENHARIA 18.820,14 5.646,04 0,00 0,00 0,00 0,00 1.907,60 1.550,00 27.923,78 3.213,49 6.280,65 0,00 0,00 9.494,14 18.429,64 30/11/2020
724 241000 DOUGLAS MEIRELLES DE CASTRO OFICIAL DO MP CONCEIÇÃO DO RIO VERDE - COMARCA; CONCEICAO DO RIO VERDE-PJ-UNPJ 12.601,30 5.040,52 0,00 0,00 0,00 0,00 1.598,37 1.550,00 20.790,19 2.350,32 4.255,84 0,00 0,00 6.606,16 14.184,03 30/11/2020
725 534900 DOUGLAS SILVA E SOUZA ANALISTA DO MP CAMPOS GERAIS - COMARCA; CAMPOS GERAIS-PJ-UNPJ 9.146,93 914,69 0,00 0,00 3.353,87 0,00 938,01 1.550,00 15.903,50 1.329,32 2.958,56 0,00 0,00 4.287,88 11.615,62 30/11/2020
726 638900 DOUGLAS WALLAS CONCEICAO NEVES OFICIAL DO MP RIBEIRÃO DAS NEVES - COMARCA; RIBEIRAO DAS NEVES-PJ-SEC CIVEL 4.817,57 481,76 0,00 0,00 0,00 0,00 418,79 1.550,00 7.268,12 671,12 712,39 0,00 0,00 1.383,51 5.884,61 30/11/2020
727 146800 DUCINALVA AMARAL LOPES REIS OFICIAL DO MP PARAISÓPOLIS - COMARCA; PARAISOPOLIS-PJ-UNPJ 18.820,14 13.174,10 0,00 355,27 10.916,59 4.863,85 2.478,80 1.550,00 52.158,75 4.312,89 12.741,39 0,00 0,00 17.054,28 35.104,47 30/11/2020
728 122500 DUILIO CARLOS FERREIRA UTSCH OFICIAL DO MP CONCEIÇÃO DO MATO DENTRO - COMARCA; CONCEICAO DO MATO DENTRO-PJ-UNPJ 14.790,66 11.832,53 0,00 437,50 0,00 4.474,37 2.208,04 1.550,00 35.293,10 3.787,89 8.772,11 0,00 0,00 12.560,00 22.733,10 30/11/2020
729 201800 DULCINEIA ANDRE DE SOUZA OFICIAL DO MP JEQUITINHONHA - COMARCA; JEQUITINHONHA-PJ-SECRETARIA 14.790,66 5.916,26 0,00 0,00 0,00 0,00 1.738,72 1.550,00 23.995,64 2.932,74 5.456,99 0,00 0,00 8.389,73 15.605,91 30/11/2020
730 395800 DUVIDIER MEDIRCIO JUNIOR ANALISTA DO MP BELO HORIZONTE - COMARCA; CENTRAL DE APOIO TECNICO-SETOR DE ENGENHARIA 14.324,23 2.864,85 0,00 0,00 5.729,69 0,00 1.547,53 1.550,00 26.016,30 2.290,01 5.912,47 0,00 0,00 8.202,48 17.813,82 30/11/2020
731 604800 ECIA RAMILIS ISSA DE ABREU ANALISTA DO MP BRASÍLIA DE MINAS - COMARCA; BRASILIA DE MINAS-PJ-01PJ 9.146,93 914,69 0,00 0,00 0,00 0,00 893,86 1.550,00 12.505,48 1.359,18 2.154,80 0,00 0,00 3.513,98 8.991,50 30/11/2020
732 273000 EDELFINA APARECIDA GUIMARAES OFICIAL DO MP CACHOEIRA DE MINAS - COMARCA; CACHOEIRA DE MINAS-PJ-UNPJ 10.069,62 7.048,73 0,00 0,00 0,00 0,00 1.522,75 1.550,00 20.191,10 2.293,53 4.181,60 0,00 0,00 6.475,13 13.715,97 30/11/2020
733 523300 EDER DOS SANTOS PATRICIO ANALISTA DO MP NOVA SERRANA - COMARCA; NOVA SERRANA-PJ-03PJ 10.069,62 1.006,96 0,00 0,00 0,00 0,00 1.098,91 2.319,39 14.494,88 1.484,05 2.432,64 0,00 0,00 3.916,69 10.578,19 30/11/2020
734 356700 EDER JOSE PACHECO OFICIAL DO MP CAMPO BELO - COMARCA; CAMPO BELO-PJ-SECRETARIA 9.146,93 1.829,39 0,00 0,00 3.658,77 0,00 1.069,37 2.622,17 18.326,63 1.462,32 3.286,18 0,00 0,00 4.748,50 13.578,13 30/11/2020
735 507900 EDERSON SILVA LOPES OFICIAL DO MP BELO HORIZONTE - COMARCA; LABORATORIO TECNOLOGIA INTELIGENCIA 6.123,79 612,38 0,00 0,00 2.245,39 0,00 686,39 1.550,00 11.217,95 902,51 1.651,94 0,00 0,00 2.554,45 8.663,50 30/11/2020
736 296200 EDGARD GOULART MATOSINHO DE LAET JR ANALISTA DO MP GOVERNADOR VALADARES - COMARCA; GAECO REGIONAL DE GOVERNADOR VALADARES 16.750,82 5.025,25 0,00 0,00 0,00 0,00 1.718,89 1.550,00 25.044,96 2.871,47 5.415,39 0,00 0,00 8.286,86 16.758,10 30/11/2020
737 295000 EDILA MARIA DA SILVEIRA OFICIAL DO MP FORMIGA - COMARCA; FORMIGA-PJ-01PJ 8.858,43 2.657,53 0,00 0,00 0,00 0,00 921,85 1.550,00 13.987,81 1.622,56 2.740,83 0,00 0,00 4.363,39 9.624,42 30/11/2020
738 332300 EDILA MARILAC MIRANDA PRADO OFICIAL DO MP DIAMANTINA - COMARCA; DIAMANTINA-PJ-01PJ 10.069,62 5.034,81 0,00 0,00 124,80 0,00 1.824,44 8.526,37 25.580,04 2.059,32 3.608,36 0,00 0,00 5.667,68 19.912,36 30/11/2020
739 376600 EDILANE CONSOLACAO ROSA NAZARETH ANALISTA DO MP BETIM - COMARCA; BETIM-PJ-10PJ 14.324,23 2.864,85 0,00 0,00 0,00 0,00 1.355,41 1.550,00 20.094,49 2.315,44 4.282,50 0,00 0,00 6.597,94 13.496,55 30/11/2020
740 301500 EDILENE APARECIDA DE CARVALHO ANALISTA DO MP BELO HORIZONTE - COMARCA; BH-02PJ FAMILIA-SECRETARIA 16.750,82 5.025,25 0,00 0,00 0,00 0,00 1.759,85 1.550,00 25.085,92 2.871,47 5.599,78 0,00 0,00 8.471,25 16.614,67 30/11/2020
741 309800 EDILZA DOS REIS OFICIAL DO MP UBERLÂNDIA - COMARCA; UBERLANDIA-PJ-03PJ 10.069,62 3.020,89 0,00 0,00 4.478,06 0,00 1.257,83 1.550,00 20.376,40 1.795,98 4.326,66 0,00 0,00 6.122,64 14.253,76 30/11/2020
742 200500 EDINEIA MARIA DE OLIVEIRA ANTUNES OFICIAL DO MP MONTES CLAROS - COMARCA; MONTES CLAROS-PJ-10PJ 14.790,66 5.916,26 0,00 0,00 186,77 0,00 1.990,04 1.550,00 24.433,73 2.758,67 5.268,68 0,00 0,00 8.027,35 16.406,38 30/11/2020
743 427700 EDISANGELA SOARES LOPES OFICIAL DO MP PIRAPORA - COMARCA; PIRAPORA-PJ-02PJ 6.123,79 1.224,76 0,00 0,00 2.449,52 0,00 628,70 1.550,00 11.976,77 984,56 1.994,91 0,00 0,00 2.979,47 8.997,30 30/11/2020
744 555400 EDISON MONTEIRO SAMPAIO NETO ANALISTA DO MP BELO HORIZONTE - COMARCA; BH-12PJ JUIZO CRIMINAL-GAB 094PJ 9.146,93 914,69 0,00 0,00 0,00 0,00 835,53 1.550,00 12.447,15 1.329,32 2.150,20 0,00 0,00 3.479,52 8.967,63 30/11/2020
745 517700 EDMILSON TADEU FERNANDES OFICIAL DO MP POUSO ALEGRE - COMARCA; GAECO REGIONAL DE POUSO ALEGRE 6.741,63 674,16 0,00 0,00 2.471,93 0,00 738,78 1.550,00 12.176,50 987,97 2.056,49 0,00 0,00 3.044,46 9.132,04 30/11/2020
746 358400 EDNA APARECIDA SILVA FERREIRA OFICIAL DO MP CORONEL FABRICIANO - COMARCA; CORONEL FABRICIANO-PJ-02PJ 9.146,93 1.829,39 0,00 0,00 3.756,28 0,00 1.078,70 1.550,00 17.361,30 1.496,51 3.362,26 0,00 0,00 4.858,77 12.502,53 30/11/2020
747 331800 EDNA MARCIA CAMILO DA SILVA OFICIAL DO MP SETE LAGOAS - COMARCA; SETE LAGOAS-PJ-SEC CRIMINAIS 10.069,62 3.020,89 0,00 0,00 0,00 0,00 1.050,96 1.550,00 15.691,47 1.729,73 3.007,63 0,00 0,00 4.737,36 10.954,11 30/11/2020
748 327900 EDRIEL SANTANA PEREIRA OFICIAL DO MP TUPACIGUARA - COMARCA; TUPACIGUARA-PJ-UNPJ 10.069,62 3.020,89 0,00 0,00 4.476,04 0,00 1.117,11 2.415,39 21.099,05 1.729,73 4.179,24 0,00 0,00 5.908,97 15.190,08 30/11/2020
749 482400 EDSON GARCIA OFICIAL DO MP MACHADO - COMARCA; MACHADO-PJ-02PJ 5.562,64 556,26 0,00 0,00 0,00 0,00 529,35 2.319,39 8.967,64 819,82 850,46 0,00 0,00 1.670,28 7.297,36 30/11/2020
750 225601 EDSON LABRE FILHO ANALISTA DO MP VARGINHA - COMARCA; VARGINHA-PJ-01PJ 16.750,82 5.025,25 0,00 0,00 7.258,69 0,00 1.950,64 1.550,00 32.535,40 2.871,47 7.463,67 0,00 0,00 10.335,14 22.200,26 30/11/2020
751 602700 EDSON NOGUEIRA BUENO OFICIAL DO MP PITANGUI - COMARCA; PITANGUI-PJ-02PJ 5.387,19 538,72 0,00 0,00 1.975,30 0,00 489,08 1.550,00 9.940,29 800,67 1.491,79 0,00 0,00 2.292,46 7.647,83 30/11/2020
752 414400 EDUARDO ABRANTES CAMPOS ANALISTA DO MP SÃO JOÃO DEL REI - COMARCA; SAO JOAO DEL REI-PJ-02PJ 13.011,52 2.602,30 0,00 0,00 0,00 0,00 2.089,24 1.550,00 19.253,06 2.151,79 3.918,37 0,00 0,00 6.070,16 13.182,90 30/11/2020
753 476800 EDUARDO ALVES DE MOURA ANALISTA DO MP UBERLÂNDIA - COMARCA; UBERLANDIA-PJ-02PJ 10.069,62 1.006,96 0,00 0,00 0,00 0,00 1.055,40 2.319,39 14.451,37 1.484,05 2.350,02 0,00 0,00 3.834,07 10.617,30 30/11/2020
754 390800 EDUARDO AMORIM PETTERSEN OFICIAL DO MP CARANGOLA - COMARCA; CARANGOLA-PJ-SECRETARIA 8.579,10 1.715,82 0,00 0,00 0,00 0,00 919,96 2.319,39 13.534,27 1.390,69 2.288,17 0,00 0,00 3.678,86 9.855,41 30/11/2020
755 461600 EDUARDO ANTONIO DE ASSIS FARIA ASSESSOR BELO HORIZONTE - COMARCA; ASSESS EXECUTIVA DO CONSELHO SUPERIOR DO MP 0,00 0,00 8.170,49 0,00 2.723,50 0,00 781,21 2.319,39 13.994,59 713,09 2.618,45 0,00 0,00 3.331,54 10.663,05 30/11/2020
756 248800 EDUARDO DE CASTRO AMORIM ANALISTA DO MP BELO HORIZONTE - COMARCA; SUPERINTENDENCIA DE RECURSOS HUMANOS 18.820,14 5.646,04 0,00 0,00 0,00 0,00 2.024,32 1.550,00 28.040,50 3.255,65 6.374,46 0,00 0,00 9.630,11 18.410,39 30/11/2020
757 209100 EDUARDO DE SOUZA MAIA ANALISTA DO MP BELO HORIZONTE - COMARCA; ASSESS TECNICO-JUR JUNTO AS PROC. DE JUST 18.820,14 7.528,06 0,00 0,00 8.782,73 0,00 2.177,64 1.550,00 38.858,57 3.530,15 9.256,61 0,00 0,00 12.786,76 26.071,81 30/11/2020
758 633900 EDUARDO GONCALVES PIRES OFICIAL DO MP BELO HORIZONTE - COMARCA; BH-19PJ SAUDE-SECRETARIA 150PJ 5.743,70 1.723,11 0,00 0,00 0,00 0,00 655,30 1.550,00 9.672,11 984,00 1.320,03 0,00 0,00 2.304,03 7.368,08 30/11/2020
759 350500 EDUARDO GONCALVES RIBEIRO OFICIAL DO MP VESPASIANO - COMARCA; VESPASIANO-PJ-04PJ 8.858,43 1.771,69 0,00 0,00 0,00 0,00 875,96 1.550,00 13.056,08 1.404,43 2.255,50 0,00 0,00 3.659,93 9.396,15 30/11/2020
760 115800 EDUARDO HENRIQUE DE CAMPOS MAIA OFICIAL DO MP BELO HORIZONTE - COMARCA; DIV FISCAL ADM CONT TERCEIRIZACAO 16.750,82 8.375,41 0,00 0,00 0,00 0,00 2.089,27 1.550,00 28.765,50 3.386,89 6.662,65 0,00 0,00 10.049,54 18.715,96 30/11/2020
761 392600 EDUARDO HENRIQUE DOS SANTOS COSTA ELIAZAR OFICIAL DO MP MATOZINHOS - COMARCA; MATOZINHOS-PJ-01PJ 7.912,85 1.582,57 0,00 0,00 0,00 0,00 937,83 2.319,39 12.752,64 1.265,03 1.788,91 0,00 0,00 3.053,94 9.698,70 30/11/2020
762 407500 EDUARDO MASCARENHAS CURI AZEVEDO COORDENADOR/ANALISTA BELO HORIZONTE - COMARCA; CENTRO JORNALISMO 0,00 2.687,03 13.435,16 0,00 0,00 0,00 1.084,67 2.319,39 19.526,25 1.649,01 3.909,72 0,00 0,00 5.558,73 13.967,52 30/11/2020
763 601300 EDUARDO TRAD VIEIRA OFICIAL DO MP IBIRITÉ - COMARCA; IBIRITE-PJ-05PJ 5.387,19 538,72 0,00 0,00 0,00 0,00 482,92 1.550,00 7.958,83 783,07 872,97 0,00 0,00 1.656,04 6.302,79 30/11/2020
764 257600 EDUARDO VALADARES CABRAL ANALISTA DO MP BELO HORIZONTE - COMARCA; COORD DE INCLUSAO E MOBILIZACAO SOCIAIS 14.790,66 4.437,20 0,00 0,00 0,00 0,00 1.658,40 1.550,00 22.436,26 2.561,62 4.830,25 0,00 0,00 7.391,87 15.044,39 30/11/2020
765 545700 EDVAIR FERREIRA DE CARVALHO OFICIAL DO MP ARAGUARI - COMARCA; ARAGUARI-PJ-06PJ 5.387,19 538,72 0,00 0,00 0,00 0,00 484,70 1.550,00 7.960,61 783,07 805,15 0,00 0,00 1.588,22 6.372,39 30/11/2020
766 401700 EDWANIA AMORIM DO CARMO OFICIAL DO MP RIBEIRÃO DAS NEVES - COMARCA; RIBEIRAO DAS NEVES-PJ-03PJ 8.858,43 1.771,69 0,00 0,00 9,37 0,00 876,42 1.550,00 13.065,91 1.497,74 2.463,12 0,00 0,00 3.960,86 9.105,05 30/11/2020
767 303600 EFIGENIO SARAIVA LOPES ANALISTA DO MP BELO HORIZONTE - COMARCA; DIRETORIA DE PAGAMENTO DE PESSOAL-DPAG 18.820,14 5.646,04 0,00 0,00 8.155,39 0,00 2.083,25 1.550,00 36.254,82 3.213,49 8.419,11 0,00 0,00 11.632,60 24.622,22 30/11/2020
768 286000 ELAINE APARECIDA SILVA BERZOINI OFICIAL DO MP JUIZ DE FORA - COMARCA; JUIZ DE FORA-PJ-14PJ 10.069,62 3.020,89 0,00 0,00 0,00 0,00 1.158,16 1.550,00 15.798,67 1.753,88 3.120,22 0,00 0,00 4.874,10 10.924,57 30/11/2020
769 509000 ELAINE CANDIDA PONTES OFICIAL DO MP BELO HORIZONTE - COMARCA; BH-02PJ FAMILIA-SECRETARIA 7.421,79 742,18 0,00 0,00 2.798,44 0,00 776,54 1.550,00 13.288,95 1.184,65 2.473,75 0,00 0,00 3.658,40 9.630,55 30/11/2020
770 283601 ELAINE CRISTINA MEQUELINO DUARTE ANALISTA DO MP ALFENAS - COMARCA; ALFENAS-PJ-02PJ 14.324,23 2.864,85 0,00 0,00 5.866,97 0,00 1.507,58 1.550,00 26.113,63 2.315,44 5.753,89 0,00 0,00 8.069,33 18.044,30 30/11/2020
771 535500 ELAINE DE OLIVEIRA CAMPOS REIS OFICIAL DO MP RIBEIRÃO DAS NEVES - COMARCA; SEC PJ EXECUCAO PENAL RIBEIRAO NEVES 5.930,75 593,08 0,00 0,00 0,00 0,00 577,81 1.550,00 8.651,64 859,73 1.043,54 0,00 0,00 1.903,27 6.748,37 30/11/2020
772 455700 ELAINE DE OLIVEIRA CASTRO ANALISTA DO MP POMPÉU - COMARCA; POMPEU-PJ-UNPJ 10.069,62 1.006,96 0,00 0,00 0,00 0,00 967,81 2.319,39 14.363,78 1.484,05 2.380,51 0,00 0,00 3.864,56 10.499,22 30/11/2020
773 367200 ELAINE MUNIZ BARBOSA ANALISTA DO MP BELO HORIZONTE - COMARCA; DIRETORIA DE SISTEMAS DE INFORMACAO 14.790,66 2.958,13 0,00 0,00 5.916,26 0,00 1.511,74 2.319,39 27.496,18 2.364,57 5.966,65 0,00 0,00 8.331,22 19.164,96 30/11/2020
774 679200 ELAINE RIBEIRO CHAVES ASSESSOR PROCURADOR JUSTICA BELO HORIZONTE - COMARCA; GABINETE DE PROCURADOR DE JUSTIÇA - SALA 614 0,00 0,00 7.187,72 0,00 0,00 0,00 0,00 1.550,00 8.737,72 713,09 1.213,66 0,00 0,00 1.926,75 6.810,97 30/11/2020
775 176900 ELAINE RIBEIRO TAVEIRA OFICIAL DO MP BELO HORIZONTE - COMARCA; DIRETORIA DE PESSOAL ADMINISTRATIVO - DPAD 13.011,52 5.204,61 0,00 0,00 145,62 0,00 1.586,59 1.550,00 21.498,34 2.400,58 4.471,92 0,00 0,00 6.872,50 14.625,84 30/11/2020
776 496200 ELAINE SABRINA MOREIRA SCHUWARTEN ANALISTA DO MP CORONEL FABRICIANO - COMARCA; CORONEL FABRICIANO-PJ-04PJ 10.069,62 1.006,96 0,00 0,00 0,00 0,00 1.001,58 1.550,00 13.628,16 1.484,05 2.506,43 0,00 0,00 3.990,48 9.637,68 30/11/2020
777 489200 ELAINE VICENTINO GARCIA ANALISTA DO MP BELO HORIZONTE - COMARCA; CENTRAL DE APOIO TECNICO-SETOR CONTABIL 10.069,62 3.020,89 0,00 0,00 0,00 0,00 1.312,47 1.550,00 15.952,98 1.753,88 3.015,94 0,00 0,00 4.769,82 11.183,16 30/11/2020
778 244500 ELCI ALVES DE SOUZA ASSESSOR BELO HORIZONTE - COMARCA; CAO-CONFLITOS AGRARIOS-SECRETARIA 0,00 1.540,90 5.136,32 0,00 0,00 0,00 669,00 1.550,00 8.896,22 713,09 1.465,93 0,00 0,00 2.179,02 6.717,20 30/11/2020
779 472500 ELCI VAZ DE OLIVEIRA FILHO ANALISTA DO MP PIUMHI - COMARCA; PIUMHI-PJ-02PJ 10.069,62 5.034,81 0,00 0,00 0,00 0,00 2.871,48 1.550,00 19.525,91 2.194,60 4.013,63 0,00 0,00 6.208,23 13.317,68 30/11/2020
780 385200 ELCI VIANA REIS OFICIAL DO MP RIO PARDO DE MINAS - COMARCA; RIO PARDO DE MINAS-PJ-SECRETARIA 8.858,43 3.543,37 0,00 0,00 4.133,93 0,00 1.202,38 1.550,00 19.288,11 1.652,23 3.943,67 0,00 0,00 5.595,90 13.692,21 30/11/2020
781 289801 ELCIO JOSE DOS SANTOS ASSESSOR/ANALISTA BELO HORIZONTE - COMARCA; DIVISAO DE SERVICOS 0,00 2.520,26 12.601,30 0,00 0,00 0,00 1.276,72 1.550,00 17.948,28 1.661,60 3.663,14 0,00 0,00 5.324,74 12.623,54 30/11/2020
782 319600 ELEN TULER DE ALBERGARIA ANALISTA DO MP BELO HORIZONTE - COMARCA; BH-19PJ SAUDE-SECRETARIA 130PJ 13.872,60 5.549,04 0,00 0,00 6.647,57 0,00 1.648,66 1.550,00 29.267,87 2.647,94 6.802,61 0,00 0,00 9.450,55 19.817,32 30/11/2020
783 151000 ELI LOURENCO RIBEIRO AGENTE DO MP BELO HORIZONTE - COMARCA; BH-19PJ SAUDE-SECRETARIA 130PJ 11.085,56 5.542,78 0,00 0,00 5.551,17 0,00 1.567,51 1.550,00 25.297,02 2.267,11 4.524,42 0,00 0,00 6.791,53 18.505,49 30/11/2020
784 205500 ELIANA ALVES DE SOUSA OFICIAL DO MP GOVERNADOR VALADARES - COMARCA; GOVERNADOR VALADARES-PJ-07PJ 10.069,62 4.027,85 0,00 0,00 0,00 0,00 1.073,59 1.550,00 16.721,06 1.857,81 3.264,27 0,00 0,00 5.122,08 11.598,98 30/11/2020
785 628800 ELIANA APARECIDA PEREIRA ANALISTA DO MP CAMBUÍ - COMARCA; CAMBUI-PJ-02PJ 7.663,37 766,34 0,00 0,00 0,00 0,00 661,39 1.550,00 10.641,10 1.199,37 1.801,48 0,00 0,00 3.000,85 7.640,25 30/11/2020
786 301700 ELIANA DA SILVEIRA ANALISTA DO MP BELO HORIZONTE - COMARCA; BH-13ª PJ JUÍZO DE TÓXICOS-SECRETARIA 15.272,02 4.581,61 0,00 0,00 0,00 0,00 1.797,67 1.550,00 23.201,30 2.706,85 5.153,39 0,00 0,00 7.860,24 15.341,06 30/11/2020
787 251500 ELIANA DE LIMA MILAGRES FONSECA ANALISTA DO MP CONTAGEM - COMARCA; CONTAGEM-PJ-16PJ 15.272,02 4.581,61 0,00 0,00 0,00 0,00 1.855,14 1.550,00 23.258,77 2.645,00 5.039,57 0,00 0,00 7.684,57 15.574,20 30/11/2020
788 503900 ELIANA DIAS DUTRA FERREIRA OFICIAL DO MP GOVERNADOR VALADARES - COMARCA; GOVERNADOR VALADARES-PJ-10PJ 7.663,37 766,34 0,00 0,00 0,00 0,00 685,78 0,00 9.115,49 1.199,37 1.749,34 0,00 0,00 2.948,71 6.166,78 30/11/2020
789 413900 ELIANA PINTO DE OLIVEIRA NEVES ANALISTA DO MP CAMPO BELO - COMARCA; CAMPO BELO-PJ-04PJ 12.601,30 2.520,26 0,00 0,00 5.169,04 0,00 1.368,16 2.319,39 23.978,15 2.151,47 5.303,82 0,00 0,00 7.455,29 16.522,86 30/11/2020
790 228200 ELIANA RODRIGUES DA CUNHA PINHEIRO OFICIAL DO MP BELO HORIZONTE - COMARCA; DIRETORIA DE PROJETOS DE EDIFICACOES 12.601,30 3.780,39 0,00 290,38 135,35 2.757,71 1.486,87 1.550,00 22.602,00 2.330,76 4.957,55 0,00 0,00 7.288,31 15.313,69 30/11/2020
791 386600 ELIANA SABINO CHAVES PESSOA ANALISTA DO MP CARATINGA - COMARCA; CARATINGA-PJ-06PJ 13.011,52 9.108,06 0,00 0,00 0,00 0,00 2.062,05 1.550,00 25.731,63 2.946,87 5.777,99 0,00 0,00 8.724,86 17.006,77 30/11/2020
792 677500 ELIANA SILVA ANDRADE ASSESSOR PROMOTOR JUSTICA TRÊS CORACOES - COMARCA; TRES CORACOES-PJ-06PJ 0,00 0,00 7.187,72 0,00 0,00 0,00 0,00 1.550,00 8.737,72 713,09 1.213,66 0,00 0,00 1.926,75 6.810,97 30/11/2020
793 297400 ELIANE AUGUSTA RIBEIRO COSTA ANALISTA DO MP CONSELHEIRO LAFAIETE - COMARCA; CONSELHEIRO LAFAIETE-PJ-05PJ 17.413,92 5.224,18 0,00 0,00 0,00 0,00 1.987,94 1.550,00 26.176,04 3.012,40 5.874,01 0,00 0,00 8.886,41 17.289,63 30/11/2020
794 510600 ELIANE CAROLINA MAIA ANALISTA DO MP IGARAPÉ - COMARCA; IGARAPE-PJ-03PJ 10.069,62 1.006,96 0,00 0,00 3.692,19 0,00 1.100,52 1.550,00 17.419,29 1.484,05 3.365,37 0,00 0,00 4.849,42 12.569,87 30/11/2020
795 269300 ELIANE EDLAMAR ROCHA OFICIAL DO MP PEDRO LEOPOLDO - COMARCA; PEDRO LEOPOLDO-PJ-02PJ 9.752,14 2.925,64 0,00 0,00 4.225,93 0,00 1.149,05 1.550,00 19.602,76 1.688,99 4.080,43 0,00 0,00 5.769,42 13.833,34 30/11/2020
796 262600 ELIANE FERREIRA SOARES ASSESSOR BELO HORIZONTE - COMARCA; BH-18PJ DIREITOS HUMANOS-SECRETARIA 0,00 2.054,53 5.136,32 0,00 0,00 0,00 626,83 1.550,00 9.367,68 713,09 1.593,49 0,00 0,00 2.306,58 7.061,10 30/11/2020
797 204400 ELIANE GLAUCE DE QUEIROS MAIA OFICIAL DO MP GUANHÃES - COMARCA; GUANHAES-PJ-02PJ 14.790,66 5.916,26 0,00 0,00 19,11 0,00 1.576,41 1.550,00 23.852,44 2.946,13 5.819,38 0,00 0,00 8.765,51 15.086,93 30/11/2020
798 91800 ELIANE KAPLER ALVES OFICIAL DO MP BELO HORIZONTE - COMARCA; DIVISAO DE CONTROLE IMOBILIARIO 18.820,14 9.410,07 0,00 0,00 0,00 0,00 2.734,47 1.550,00 32.514,68 3.782,30 7.630,04 0,00 0,00 11.412,34 21.102,34 30/11/2020
799 334200 ELIANE MARCIA DE OLIVEIRA BRITO OFICIAL DO MP BELO HORIZONTE - COMARCA; BH-08PJ JUIZADO ESPECIAL-SECRETARIA 6.123,79 1.837,14 0,00 0,00 0,00 0,00 647,61 1.550,00 10.158,54 1.051,93 1.471,17 0,00 0,00 2.523,10 7.635,44 30/11/2020
800 365900 ELIANE MARIA DE OLIVEIRA FERREIRA OFICIAL DO MP SETE LAGOAS - COMARCA; SETE LAGOAS-PJ-SEC CRIMINAIS 10.069,62 5.034,81 0,00 0,00 0,00 0,00 1.163,73 1.550,00 17.818,16 2.034,65 3.657,74 0,00 0,00 5.692,39 12.125,77 30/11/2020
801 320600 ELIANE STADLER DE SOUZA OFICIAL DO MP FRANCISCO SÁ - COMARCA; FRANCISCO SA-PJ-SECRETARIA 9.146,93 1.829,39 0,00 0,00 0,00 0,00 950,56 1.550,00 13.476,88 1.462,32 2.332,16 0,00 0,00 3.794,48 9.682,40 30/11/2020
802 448900 ELIAS PEREIRA OTONI ASSESSOR BELO HORIZONTE - COMARCA; BH-18PJ DIREITOS HUMANOS-SECRETARIA 0,00 0,00 5.136,32 0,00 1.712,11 0,00 493,53 1.550,00 8.891,96 713,09 1.324,01 0,00 0,00 2.037,10 6.854,86 30/11/2020
803 495400 ELICA SOUZA GASPARONI MATTOS OFICIAL DO MP UBÁ - COMARCA; UBA-PJ-06PJ 7.663,37 766,34 0,00 0,00 0,00 0,00 760,69 1.550,00 10.740,40 1.199,37 1.853,62 0,00 0,00 3.052,99 7.687,41 30/11/2020
804 86600 ELIENE FERREIRA DA SILVA OFICIAL DO MP BELO HORIZONTE - COMARCA; BH-22PJ PES COM DEF E IDOSOS-SECRETARIA 21.145,12 14.801,58 0,00 234,04 0,00 5.125,38 2.057,77 1.550,00 44.913,89 4.762,88 10.676,71 484,48 0,00 15.924,07 28.989,82 30/11/2020
805 183800 ELIENE MARIA CUNHA OFICIAL DO MP BELO HORIZONTE - COMARCA; DIRETORIA DE PESSOAL ADMINISTRATIVO - DPAD 15.272,02 6.108,81 0,00 0,00 7.317,76 0,00 1.924,74 1.550,00 32.173,33 2.915,07 7.524,44 0,00 0,00 10.439,51 21.733,82 30/11/2020
806 172300 ELINA APARECIDA SILVA ASSESSOR BELO HORIZONTE - COMARCA; BH-19PJ SAUDE-SECRETARIA 130PJ 0,00 1.230,51 3.076,28 0,00 1.435,60 0,00 373,13 1.550,00 7.665,52 713,09 970,12 0,00 0,00 1.683,21 5.982,31 30/11/2020
807 492501 ELINE CAMPOS DA FONSECA CUNHA ANALISTA DO MP PONTE NOVA - COMARCA; PONTE NOVA-PJ-02PJ 9.146,93 914,69 0,00 0,00 3.449,92 0,00 966,45 1.550,00 16.027,99 1.340,45 3.035,47 0,00 0,00 4.375,92 11.652,07 30/11/2020
808 618900 ELISA MOURA VIEIRA MARCATTI OFICIAL DO MP BELO HORIZONTE - COMARCA; BH-23PJ CIVEL-SEC EXP CIVEIS 5.387,19 538,72 0,00 0,00 0,00 0,00 492,36 2.319,39 8.737,66 789,47 887,22 0,00 0,00 1.676,69 7.060,97 30/11/2020
809 256500 ELISABETE NOGUEIRA ANALISTA DO MP RIBEIRÃO DAS NEVES - COMARCA; SEC PJ EXECUCAO PENAL RIBEIRAO NEVES 14.790,66 7.395,33 0,00 0,00 0,00 0,00 1.864,33 1.550,00 25.600,32 2.955,72 5.550,70 0,00 0,00 8.506,42 17.093,90 30/11/2020
810 355000 ELISANGELA DARLANTONI RIBEIRO OFICIAL DO MP ARAXÁ - COMARCA; ARAXA-PJ-05PJ 8.579,10 1.715,82 0,00 0,00 3.442,03 0,00 1.031,57 1.550,00 16.318,52 1.407,79 3.249,10 0,00 0,00 4.656,89 11.661,63 30/11/2020
811 604400 ELISANGELA DEMASI FERREIRA MOREIRA ANALISTA DO MP CABO VERDE - COMARCA; CABO VERDE-PJ-UNPJ 9.146,93 914,69 0,00 0,00 0,00 0,00 807,37 1.550,00 12.418,99 1.359,18 2.154,80 0,00 0,00 3.513,98 8.905,01 30/11/2020
812 323800 ELISANGELA GONCALVES DE JESUS OFICIAL DO MP BELO HORIZONTE - COMARCA; BH-09PJ AUDITORIA MILITAR-SECRETARIA 9.444,70 2.833,41 0,00 0,00 4.193,38 0,00 1.113,47 1.550,00 19.134,96 1.649,13 3.873,30 0,00 0,00 5.522,43 13.612,53 30/11/2020
813 507400 ELISANGELA MIGUEL DA ROCHA SILVA ASSESSOR BELO HORIZONTE - COMARCA; CGMP-DIVIS DE APOIO FISC ORIENTACAO FUNCIONAL 0,00 0,00 3.076,28 0,00 1.025,43 0,00 305,75 2.319,39 6.726,85 622,72 522,15 0,00 0,00 1.144,87 5.581,98 30/11/2020
814 261400 ELISANGELA REZENDE MENDES OFICIAL DO MP POUSO ALEGRE - COMARCA; POUSO ALEGRE-PJ-05PJ 10.069,62 3.020,89 0,00 0,00 117,76 0,00 1.144,77 1.550,00 15.903,04 1.784,75 3.101,70 0,00 0,00 4.886,45 11.016,59 30/11/2020
815 534100 ELISANGELA ROSINE SILVA OFICIAL DO MP UBERABA - COMARCA; UBERABA-PJ-06PJ 5.387,19 538,72 0,00 0,00 1.975,30 0,00 550,62 1.550,00 10.001,83 783,07 1.416,18 0,00 0,00 2.199,25 7.802,58 30/11/2020
816 634300 ELIUDE GRACA DAMASIO ROSARIO FRANCELINO OFICIAL DO MP BELO HORIZONTE - COMARCA; BH-18PJ VIOLENCIA DOMESTICA-SECRETARIA 4.817,57 481,76 0,00 0,00 0,00 0,00 397,28 2.319,39 8.016,00 694,16 675,15 0,00 0,00 1.369,31 6.646,69 30/11/2020
817 461700 ELIZABETH ALEIXO DA PAZ ANALISTA DO MP JUIZ DE FORA - COMARCA; JUIZ DE FORA-PJ-18PJ 10.069,62 1.006,96 0,00 0,00 0,00 0,00 1.111,02 1.550,00 13.737,60 1.484,05 2.432,64 0,00 0,00 3.916,69 9.820,91 30/11/2020
818 227300 ELIZABETH COIMBRA FELIX ASSESSOR/OFICIAL BELO HORIZONTE - COMARCA; DIRETORIA DE PAGAMENTO DE PESSOAL-DPAG 13.011,52 5.204,61 2.520,26 0,00 6.912,13 0,00 2.006,09 1.550,00 31.204,61 2.426,84 7.171,08 0,00 0,00 9.597,92 21.606,69 30/11/2020
819 354800 ELIZABETH DOS REIS OFICIAL DO MP BELO HORIZONTE - COMARCA; DIVISAO DE MATERIAIS 10.069,62 2.013,92 0,00 0,00 0,00 0,00 960,24 1.550,00 14.593,78 1.627,72 2.700,19 0,00 0,00 4.327,91 10.265,87 30/11/2020
820 612000 ELIZABETH MARIA DE QUEIROZ TANIGUCHI OFICIAL DO MP BELO HORIZONTE - COMARCA; SUPERINTENDENCIA DE RECURSOS HUMANOS 4.974,42 497,44 0,00 0,00 0,00 0,00 468,37 1.550,00 7.490,23 728,99 752,64 0,00 0,00 1.481,63 6.008,60 30/11/2020
821 452800 ELIZANGELA MARIA DAVI OFICIAL DO MP ARCOS - COMARCA; ARCOS-PJ-01PJ 6.123,79 1.224,76 0,00 0,00 0,00 0,00 574,84 1.550,00 9.473,39 969,88 1.236,47 0,00 0,00 2.206,35 7.267,04 30/11/2020
822 496300 ELIZANGELA MARQUES PINTO COELHO OFICIAL DO MP BELO HORIZONTE - COMARCA; DIRETORIA DE PESSOAL ADMINISTRATIVO - DPAD 7.663,37 766,34 0,00 0,00 2.881,54 0,00 784,38 1.550,00 13.645,63 1.199,37 2.571,95 0,00 0,00 3.771,32 9.874,31 30/11/2020
823 422500 ELIZETE FORTES DA CUNHA ANALISTA DO MP RIBEIRÃO DAS NEVES - COMARCA; RIBEIRAO DAS NEVES-PJ-07PJ 13.011,52 2.602,30 0,00 0,00 0,00 0,00 1.494,15 1.550,00 18.657,97 2.128,77 3.815,03 0,00 0,00 5.943,80 12.714,17 30/11/2020
824 506100 ELLEM CRISTINA ROCHA FONSECA BOWEN ANALISTA DO MP GOVERNADOR VALADARES - COMARCA; COORD REG PJ DEF EDU DIR CRIANCA ADOL RIODOCE 10.069,62 1.006,96 0,00 0,00 0,00 0,00 1.007,27 1.550,00 13.633,85 1.484,05 2.432,64 0,00 0,00 3.916,69 9.717,16 30/11/2020
825 468200 ELLEN CRISTINA BERNARDES DARE ANALISTA DO MP TRÊS PONTAS - COMARCA; TRES PONTAS-PJ-02PJ 10.069,62 1.006,96 0,00 0,00 3.692,19 0,00 1.108,05 1.550,00 17.426,82 1.484,05 3.469,65 0,00 0,00 4.953,70 12.473,12 30/11/2020
826 418800 ELLEN CRISTINA DE QUEIROZ FERREIRA ANALISTA DO MP BELO HORIZONTE - COMARCA; CENTRAL DE APOIO TECNICO-SETOR CONTABIL 12.601,30 2.520,26 0,00 0,00 5.040,52 0,00 1.420,48 2.319,39 23.901,95 2.014,56 4.999,19 0,00 0,00 7.013,75 16.888,20 30/11/2020
827 328401 ELLEN CRISTINA FERREIRA MORAIS MONTEIRO ANALISTA DO MP CAMANDUCAIA - COMARCA; CAMANDUCAIA-PJ-UNPJ 12.601,30 2.520,26 0,00 0,00 0,00 0,00 1.255,43 1.550,00 17.926,99 2.014,56 3.606,33 0,00 0,00 5.620,89 12.306,10 30/11/2020
828 556100 ELLEN CRISTINE BIANCHIN DA SILVA OFICIAL DO MP SÃO GONÇALO DO SAPUCAÍ - COMARCA; SAO GONCALO DO SAPUCAI-PJ-02PJ 5.387,19 538,72 0,00 0,00 0,00 0,00 499,14 1.550,00 7.975,05 783,07 820,84 0,00 0,00 1.603,91 6.371,14 30/11/2020
829 447100 ELLEN ROSANA DE MACEDO BORGES OFICIAL DO MP UBERLÂNDIA - COMARCA; UBERLANDIA-PJ-17PJ 7.912,85 1.582,57 0,00 0,00 80,73 0,00 883,23 1.550,00 12.009,38 1.265,03 1.945,32 0,00 0,00 3.210,35 8.799,03 30/11/2020
830 477700 ELMA JACOB OFICIAL DO MP BELO HORIZONTE - COMARCA; COORD DE GABINETE DO PGJ 7.663,37 5.364,36 0,00 110,09 0,00 1.946,55 1.255,34 1.550,00 17.889,71 1.735,62 3.469,69 0,00 0,00 5.205,31 12.684,40 30/11/2020
831 123300 ELMA PAULA DOS SANTOS COELHO OFICIAL DO MP BELO HORIZONTE - COMARCA; BH-19PJ SAUDE-SECRETARIA 130PJ 18.820,14 16.938,13 0,00 264,09 0,00 5.125,44 2.737,29 1.550,00 45.435,09 4.664,07 10.790,82 296,05 0,00 15.750,94 29.684,15 30/11/2020
832 356500 ELOISA CARDOSO SILVA FRANCA OFICIAL DO MP PEÇANHA - COMARCA; PECANHA-PJ-SECRETARIA 6.123,79 1.224,76 0,00 0,00 0,00 0,00 644,06 1.550,00 9.542,61 984,56 1.213,83 0,00 0,00 2.198,39 7.344,22 30/11/2020
833 251901 ELOISA COSTA E SILVA ANALISTA DO MP SANTOS DUMONT - COMARCA; SANTOS DUMONT-PJ-02PJ 10.069,62 3.020,89 0,00 0,00 0,00 0,00 1.184,14 2.319,39 16.594,04 1.753,88 2.980,88 0,00 0,00 4.734,76 11.859,28 30/11/2020
834 400400 ELOIZA MARIA FERRI PIRES DA SILVA OFICIAL DO MP BELO HORIZONTE - COMARCA; ASSESSORIA TECNICA DO PROCON-MG 7.912,85 1.582,57 0,00 0,00 3.165,14 0,00 889,49 1.550,00 15.100,05 1.294,60 2.829,39 0,00 0,00 4.123,99 10.976,06 30/11/2020
835 258000 ELSO CECIANO PALMEIRA COORDENADOR/OFICIAL BELO HORIZONTE - COMARCA; DIRET DE PESSOAL DO MINISTERIO PUBLICO - DPMP 12.204,02 8.542,81 2.836,60 0,00 7.861,14 0,00 2.122,70 1.550,00 35.117,27 2.734,08 8.325,91 0,00 0,00 11.059,99 24.057,28 30/11/2020
836 206900 ELVIRA RITA DOS SANTOS ANALISTA DO MP BELO HORIZONTE - COMARCA; CENTRAL DE APOIO TECNICO-SETOR CONTABIL 18.820,14 7.528,06 0,00 210,61 0,00 3.879,91 2.284,39 1.550,00 34.273,11 3.530,15 7.956,02 0,00 0,00 11.486,17 22.786,94 30/11/2020
837 506800 ELVIS FERREIRA DA SILVA ANALISTA DO MP BELO HORIZONTE - COMARCA; DIRETORIA DE SISTEMAS DE INFORMACAO 10.069,62 1.006,96 0,00 0,00 3.692,19 0,00 1.138,46 2.319,39 18.226,62 1.484,05 3.291,59 0,00 0,00 4.775,64 13.450,98 30/11/2020
838 602400 ELZA MARIA MOREIRA MUNIZ ANALISTA DO MP RIO PARANAÍBA - COMARCA; RIO PARANAIBA-PJ-UNPJ 9.146,93 914,69 0,00 0,00 0,00 0,00 937,29 1.550,00 12.548,91 1.329,32 2.036,25 0,00 0,00 3.365,57 9.183,34 30/11/2020
839 368401 ELZIRA SIMOES DOS SANTOS ASSESSOR BELO HORIZONTE - COMARCA; ASSESSORIA DE COMUNICACAO INTEGRADA 0,00 3.433,94 11.446,46 0,00 4.960,13 0,00 1.319,33 1.550,00 22.709,86 713,09 5.585,29 0,00 0,00 6.298,38 16.411,48 30/11/2020
840 437400 EMANOELLE DA SILVA RODRIGUES OFICIAL DO MP UNAÍ - COMARCA; UNAI-PJ-03PJ 7.187,72 718,77 0,00 0,00 2.635,50 0,00 727,88 3.088,78 14.358,65 1.053,34 2.197,95 0,00 0,00 3.251,29 11.107,36 30/11/2020
841 458900 EMANUELLE CONRAD SILVA FREDERICO NAVES ANALISTA DO MP ALFENAS - COMARCA; ALFENAS-PJ-05PJ 12.601,30 1.260,13 0,00 0,00 0,00 0,00 1.133,87 2.319,39 17.314,69 1.972,18 3.556,04 0,00 0,00 5.528,22 11.786,47 30/11/2020
842 284100 EMERSON MAGNO ALMEIDA PEDROSA DA FONSECA ANALISTA DO MP BELO HORIZONTE - COMARCA; CENTRAL DE APOIO TECNICO-SETOR CONTABIL 17.413,92 5.224,18 0,00 0,00 0,00 0,00 1.990,59 1.550,00 26.178,69 3.012,40 3.906,09 0,00 0,00 6.918,49 19.260,20 30/11/2020
843 179900 EMERSON MORAIS DIAS OFICIAL DO MP BELO HORIZONTE - COMARCA; SUPERINTENDÊNCIA DE ENGENHARIA E ARQUITETURA 15.272,02 6.108,81 0,00 0,00 0,00 0,00 1.970,64 1.550,00 24.901,47 2.848,46 5.606,39 0,00 0,00 8.454,85 16.446,62 30/11/2020
844 488700 EMERSON SIQUEIRA DE SOUSA TEIXEIRA ANALISTA DO MP TARUMIRIM - COMARCA; TARUMIRIM-PJ-UNPJ 10.069,62 1.006,96 0,00 0,00 3.692,19 0,00 1.313,09 1.550,00 17.631,86 1.498,49 3.397,52 0,00 0,00 4.896,01 12.735,85 30/11/2020
845 194200 EMILIA ALVES FERREIRA RAMOS OFICIAL DO MP UBERLÂNDIA - COMARCA; UBERLANDIA-PJ-SEC FAMILIA 9.444,70 3.777,88 0,00 0,00 0,00 0,00 1.174,10 1.550,00 15.946,68 1.802,77 3.261,44 0,00 0,00 5.064,21 10.882,47 30/11/2020
846 679500 EMILY DIAS LEMOS E SILVA ASSESSOR PROCURADOR JUSTICA BELO HORIZONTE - COMARCA; GABINETE DE PROCURADOR DE JUSTIÇA - SALA 706 0,00 0,00 7.187,72 0,00 0,00 0,00 0,00 2.319,39 9.507,11 713,09 1.109,39 0,00 0,00 1.822,48 7.684,63 30/11/2020
847 620700 EMILY FONTANA DE SIQUEIRA ANALISTA DO MP BELO HORIZONTE - COMARCA; BH-18PJ VIOLENCIA DOMESTICA-SECRETARIA 8.436,53 843,65 0,00 0,00 3.093,39 0,00 756,50 2.319,39 15.449,46 1.236,35 2.680,05 0,00 0,00 3.916,40 11.533,06 30/11/2020
848 297000 ENEIDA SOARES COSTA MELO ANALISTA DO MP PIUMHI - COMARCA; PIUMHI-PJ-01PJ 17.413,92 5.224,18 0,00 0,00 7.546,03 0,00 1.994,09 1.550,00 33.728,22 3.012,40 7.908,39 0,00 0,00 10.920,79 22.807,43 30/11/2020
849 276000 ENEZIO RODRIGUES DE SOUZA FILHO OFICIAL DO MP UBERLÂNDIA - COMARCA; UBERLANDIA-PJ-10PJ 10.069,62 3.020,89 0,00 0,00 4.363,50 0,00 1.128,23 1.550,00 20.132,24 1.753,88 4.232,98 0,00 0,00 5.986,86 14.145,38 30/11/2020
850 387700 ENI MARIA DOS REIS OFICIAL DO MP POUSO ALEGRE - COMARCA; POUSO ALEGRE-PJ-07PJ 8.858,43 1.771,69 0,00 0,00 3.543,37 0,00 947,51 1.550,00 16.671,00 1.497,74 3.506,12 0,00 0,00 5.003,86 11.667,14 30/11/2020
851 605100 ENIA MAIA ASSESSOR/OFICIAL BELO HORIZONTE - COMARCA; DIRETORIA DE ORCAMENTO-DIOR/SPC 0,00 1.039,75 10.397,52 -17,80 0,00 0,00 1.145,75 1.550,00 14.115,22 991,90 2.709,39 0,00 42,59 3.743,88 10.371,34 30/11/2020
852 612200 ENILDO GOMES MEIRA FILHO ANALISTA DO MP MATOZINHOS - COMARCA; MATOZINHOS-PJ-02PJ 8.436,53 843,65 0,00 0,00 0,00 0,00 902,17 2.319,39 12.501,74 1.236,35 1.725,10 0,00 0,00 2.961,45 9.540,29 30/11/2020
853 553700 ENIVALDO NOVATO PUBLIO ANALISTA DO MP DIVINÓPOLIS - COMARCA; DIVINOPOLIS-PJ-09PJ 9.146,93 914,69 0,00 0,00 3.353,87 0,00 869,15 1.550,00 15.834,64 1.329,32 2.958,56 0,00 0,00 4.287,88 11.546,76 30/11/2020
854 680600 ENZO JOSE FERES SOUZA JABER ASSESSOR PROMOTOR JUSTICA NOVO CRUZEIRO - COMARCA; NOVO CRUZEIRO-PJ-SECRETARIA 0,00 0,00 7.187,72 0,00 0,00 0,00 0,00 1.550,00 8.737,72 713,09 1.213,66 0,00 0,00 1.926,75 6.810,97 30/11/2020
855 417300 ERIC BARATTI DA SILVA ANALISTA DO MP UBERLÂNDIA - COMARCA; UBERLANDIA-PJ-07PJ 10.069,62 2.013,92 0,00 0,00 0,00 0,00 983,92 1.550,00 14.617,46 1.618,96 2.732,82 0,00 0,00 4.351,78 10.265,68 30/11/2020
856 637600 ERIC DA ROCHA CHEHUEN ANALISTA DO MP LIMA DUARTE - COMARCA; LIMA DUARTE-PJ-UNPJ 8.170,49 817,05 0,00 0,00 0,00 0,00 690,03 1.550,00 11.227,57 671,12 1.889,31 0,00 0,00 2.560,43 8.667,14 30/11/2020
857 398900 ERIC TEIXEIRA SILVA OFICIAL DO MP UBERLÂNDIA - COMARCA; UBERLANDIA-PJ-SEC CIVEIS CRIMINAIS 8.579,10 1.715,82 0,00 0,00 0,00 0,00 910,88 1.550,00 12.755,80 1.407,79 2.262,96 0,00 0,00 3.670,75 9.085,05 30/11/2020
858 274200 ERICA DE SOUZA ANDRADE OFICIAL DO MP CURVELO - COMARCA; CURVELO-PJ-03PJ 10.069,62 3.020,89 0,00 0,00 0,00 0,00 1.298,03 1.550,00 15.938,54 1.753,88 2.980,88 0,00 0,00 4.734,76 11.203,78 30/11/2020
859 225700 ERICA GOMES DO COUTO OFICIAL DO MP BELO HORIZONTE - COMARCA; BH-21PJ TUTELA FUNDACOES-SECRETARIA 14.324,23 4.297,27 0,00 0,00 148,72 0,00 1.474,75 2.319,39 22.564,36 2.508,40 4.711,82 0,00 0,00 7.220,22 15.344,14 30/11/2020
860 632600 ERICA LEONOR MARTINS OFICIAL DO MP RESENDE COSTA - COMARCA; RESENDE COSTA-PJ-UNPJ 5.217,34 521,73 0,00 0,00 0,00 0,00 516,32 1.550,00 7.805,39 756,84 814,61 0,00 0,00 1.571,45 6.233,94 30/11/2020
861 524800 ERICA MACHADO DA COSTA E SOUZA ANALISTA DO MP BELO HORIZONTE - COMARCA; PROC JUST RECURSOS ESP E EXTRAORD CRIMINAIS 10.069,62 1.006,96 0,00 0,00 3.692,19 0,00 1.149,62 1.550,00 17.468,39 1.493,16 3.542,05 0,00 0,00 5.035,21 12.433,18 30/11/2020
862 249500 ERICA RODRIGUES ANDRADE OFICIAL DO MP SÃO FRANCISCO - COMARCA; SAO FRANCISCO-PJ-02PJ 9.146,93 2.744,08 0,00 0,00 3.963,67 0,00 1.152,52 1.550,00 18.557,20 1.584,17 3.693,30 0,00 0,00 5.277,47 13.279,73 30/11/2020
863 260800 ERICA VIANA GIARDINI DE OLIVEIRA OFICIAL DO MP BELO HORIZONTE - COMARCA; DIRETORIA GESTAO COMPRAS LICITACOES 10.069,62 3.020,89 0,00 0,00 0,00 0,00 1.159,41 1.550,00 15.799,92 1.753,88 3.033,02 0,00 0,00 4.786,90 11.013,02 30/11/2020
864 299800 ERICH DOUGLAS RIBEIRO GARCIA ANALISTA DO MP BELO HORIZONTE - COMARCA; CENTRAL DE APOIO TECNICO-SETOR CONTABIL 16.750,82 5.025,25 0,00 0,00 0,00 0,00 1.893,20 1.550,00 25.219,27 2.871,47 5.519,67 0,00 0,00 8.391,14 16.828,13 30/11/2020
865 365000 ERICK EDUARDO JOSE DA SILVA OFICIAL DO MP SANTOS DUMONT - COMARCA; SANTOS DUMONT-PJ-02PJ 6.123,79 1.224,76 0,00 0,00 0,00 0,00 680,85 1.550,00 9.579,40 984,56 1.370,25 0,00 0,00 2.354,81 7.224,59 30/11/2020
866 688900 ERICK FERDINANN SANTOS GOMES ASSESSOR PROMOTOR JUSTICA OURO PRETO - COMARCA; OURO PRETO-PJ-04PJ 0,00 0,00 7.187,72 0,00 0,00 0,00 0,00 1.550,00 8.737,72 713,09 1.213,66 0,00 0,00 1.926,75 6.810,97 30/11/2020
867 227400 ERIKA DE LAET GOULART BOECHAT ASSESSOR/OFICIAL BELO HORIZONTE - COMARCA; ASSESSORIA ESPECIAL DO PGJ 14.324,23 4.297,27 2.520,26 0,00 0,00 0,00 1.816,71 1.550,00 24.508,47 2.508,40 5.503,84 0,00 0,00 8.012,24 16.496,23 30/11/2020
868 681300 ERIKA FERNANDA ELISEU FERREIRA ASSESSOR PROCURADOR JUSTICA BELO HORIZONTE - COMARCA; GABINETE DE PROCURADOR DE JUSTIÇA - SALA 407 0,00 0,00 7.187,72 0,00 0,00 0,00 0,00 1.550,00 8.737,72 713,09 1.213,66 0,00 0,00 1.926,75 6.810,97 30/11/2020
869 285100 ERIKA FERREIRA DA SILVA OFICIAL DO MP JUIZ DE FORA - COMARCA; JUIZ DE FORA-PJ-11PJ 10.069,62 3.020,89 0,00 0,00 4.363,50 0,00 1.295,27 1.550,00 20.299,28 1.753,88 4.232,98 0,00 0,00 5.986,86 14.312,42 30/11/2020
870 420100 ERIKA JEANINE VERSIANI DE CASTRO ANALISTA DO MP BELO HORIZONTE - COMARCA; COORD ESTADUAL DE DEFESA DA EDUCACAO 13.011,52 2.602,30 0,00 0,00 0,00 0,00 1.486,44 1.550,00 18.650,26 2.080,14 3.758,96 0,00 0,00 5.839,10 12.811,16 30/11/2020
871 677100 ERIKA LAYS CARDOSO FERNANDES ASSESSOR PROMOTOR JUSTICA GRAO MOGOL - COMARCA; GRAO MOGOL-PJ-UNPJ 0,00 0,00 7.187,72 0,00 0,00 0,00 0,00 1.550,00 8.737,72 713,09 1.213,66 0,00 0,00 1.926,75 6.810,97 30/11/2020
872 606900 ERIKA MARIA BARBOSA ANALISTA DO MP BELO HORIZONTE - COMARCA; CAO-SAUDE 8.436,53 843,65 0,00 0,00 0,00 0,00 734,43 1.550,00 11.564,61 1.250,08 1.916,08 0,00 0,00 3.166,16 8.398,45 30/11/2020
873 491000 ERIKA ROCHA PEREIRA E SILVA COORDENADOR/ANALISTA BELO HORIZONTE - COMARCA; DIR GOVERNANCA TECNOLOGIA INFORMACAO 0,00 1.343,52 13.435,16 0,00 0,00 0,00 1.448,25 1.550,00 17.776,93 1.572,83 3.648,26 0,00 0,00 5.221,09 12.555,84 30/11/2020
874 283201 ERIKA STEHLING COORDENADOR/ANALISTA BELO HORIZONTE - COMARCA; CENTRAL DE APOIO TECNICO-SETOR DE ENGENHARIA 10.069,62 1.006,96 2.363,83 0,00 4.480,14 0,00 1.197,61 1.550,00 20.668,16 1.484,05 4.456,46 0,00 0,00 5.940,51 14.727,65 30/11/2020
875 254000 ERLANDIA DA SILVA MENDES OFICIAL DO MP IPATINGA - COMARCA; IPATINGA-PJ-03PJ 12.601,30 5.040,52 0,00 0,00 6.030,55 0,00 1.591,67 1.550,00 26.814,04 2.510,05 6.176,26 0,00 0,00 8.686,31 18.127,73 30/11/2020
876 208600 ERNANE JOSE DA COSTA ANALISTA DO MP BELO HORIZONTE - COMARCA; CENTRAL DE APOIO TECNICO-SETOR MEDICO 18.820,14 15.056,11 0,00 0,00 0,00 0,00 2.749,12 1.550,00 38.175,37 4.493,63 9.128,98 0,00 0,00 13.622,61 24.552,76 30/11/2020
877 260600 ERNANI CALDEIRA DE ANDRADE ANALISTA DO MP BELO HORIZONTE - COMARCA; CENTRAL DE APOIO TECNICO-SETOR CONTABIL 18.820,14 5.646,04 0,00 0,00 0,00 0,00 2.088,35 1.550,00 28.104,53 3.278,00 6.469,90 0,00 0,00 9.747,90 18.356,63 30/11/2020
878 348500 ERNILANDIA DE OLIVEIRA DIAS OFICIAL DO MP MONTES CLAROS - COMARCA; MONTES CLAROS-PJ-16PJ 8.858,43 1.771,69 0,00 0,00 0,00 0,00 994,74 1.550,00 13.174,86 1.497,74 2.531,70 0,00 0,00 4.029,44 9.145,42 30/11/2020
879 199300 ERTON PORTINARI DE ANDRADE OFICIAL DO MP SETE LAGOAS - COMARCA; SETE LAGOAS-PJ-05PJ 14.790,66 5.916,26 0,00 0,00 171,09 0,00 1.861,67 1.550,00 24.289,68 2.946,13 5.581,52 0,00 0,00 8.527,65 15.762,03 30/11/2020
880 618800 ESLY DE CARLA AYALLA BARBOSA MENDES OFICIAL DO MP NOVA LIMA - COMARCA; NOVA LIMA-PJ-SECRETARIA 4.974,42 497,44 0,00 0,00 0,00 0,00 458,07 1.550,00 7.479,93 728,99 752,64 0,00 0,00 1.481,63 5.998,30 30/11/2020
881 537000 ESTANISLAU CORREIA ALMEIDA JUNIOR OFICIAL DO MP UBERLÂNDIA - COMARCA; UBERLANDIA-PJ-25PJ 5.930,75 593,08 0,00 0,00 0,00 0,00 533,20 1.550,00 8.607,03 859,73 1.043,54 0,00 0,00 1.903,27 6.703,76 30/11/2020
882 692100 ESTEFANIA FARIA FERREIRA ASSESSOR PROCURADOR JUSTICA BELO HORIZONTE - COMARCA; PROCURADORIAS DE JUSTIÇA 0,00 0,00 6.708,54 0,00 0,00 0,00 0,00 1.550,00 8.258,54 713,09 1.081,89 0,00 0,00 1.794,98 6.463,56 30/11/2020
883 326900 ESTER ALICE PIMENTA OFICIAL DO MP BELO HORIZONTE - COMARCA; COORD DE INCLUSAO E MOBILIZACAO SOCIAIS 10.069,62 3.020,89 0,00 0,00 99,64 0,00 1.078,78 1.550,00 15.818,93 1.748,19 3.020,37 0,00 0,00 4.768,56 11.050,37 30/11/2020
884 503700 ESTHER GONCALVES FONSECA ANALISTA DO MP BELO HORIZONTE - COMARCA; CENTRO PUBLICIDADE E DESIGN GRAFICO 9.444,70 944,47 0,00 0,00 0,00 0,00 846,42 1.550,00 12.785,59 1.369,12 2.176,93 0,00 0,00 3.546,05 9.239,54 30/11/2020
885 475600 ETIENE DE FATIMA OLIVEIRA PEREIRA ANALISTA DO MP PATROCÍNIO - COMARCA; PATROCINIO-PJ-04PJ 10.069,62 1.006,96 0,00 0,00 3.692,19 0,00 1.107,66 1.550,00 17.426,43 1.484,05 3.343,72 0,00 0,00 4.827,77 12.598,66 30/11/2020
886 428800 EUGENIA RODRIGUES TRAJANO BORGES ANALISTA DO MP UBERABA - COMARCA; UBERABA-PJ-08PJ 12.601,30 2.520,26 0,00 0,00 0,00 0,00 1.382,70 2.319,39 18.823,65 2.014,56 3.613,05 0,00 0,00 5.627,61 13.196,04 30/11/2020
887 272700 EUGENIO DE BARCELOS FILHO OFICIAL DO MP FRUTAL - COMARCA; FRUTAL-PJ-03PJ 8.858,43 2.657,53 0,00 0,00 0,00 0,00 927,24 1.550,00 13.993,20 1.622,56 2.762,98 0,00 0,00 4.385,54 9.607,66 30/11/2020
888 254100 EULALIA ALVES MIRANDA LUCAS OFICIAL DO MP ALMENARA - COMARCA; ALMENARA-PJ-02PJ 12.204,02 3.661,21 0,00 0,00 5.415,24 0,00 2.244,25 1.550,00 25.074,72 2.177,03 5.324,57 0,00 0,00 7.501,60 17.573,12 30/11/2020
889 615500 EUNICE BARBOSA PINTO OFICIAL DO MP OURO PRETO - COMARCA; OURO PRETO-PJ-03PJ 5.387,19 1.077,44 0,00 0,00 0,00 0,00 548,66 1.550,00 8.563,29 861,25 1.046,91 0,00 0,00 1.908,16 6.655,13 30/11/2020
890 641200 EUNICE ELVIRA DA SILVA MATOS OFICIAL DO MP BELO HORIZONTE - COMARCA; BH-14PJ DEFESA CONSUMIDOR-SECRETARIA 4.817,57 289,05 0,00 0,00 0,00 0,00 406,83 1.550,00 7.063,45 672,96 627,99 0,00 0,00 1.300,95 5.762,50 30/11/2020
891 557900 EURIPEDES JOSUE PERES OFICIAL DO MP IBIÁ - COMARCA; IBIA-PJ-UNPJ 5.387,19 538,72 0,00 0,00 0,00 0,00 560,56 1.550,00 8.036,47 783,07 872,97 0,00 0,00 1.656,04 6.380,43 30/11/2020
892 225800 EURO CESAR VIEIRA BARBOSA ANALISTA DO MP BELO HORIZONTE - COMARCA; BH-17PJ PATRIMONIO PUBLICO-SECRETARIA 18.820,14 7.528,06 0,00 0,00 0,00 0,00 2.471,77 1.550,00 30.369,97 3.530,15 7.056,47 0,00 0,00 10.586,62 19.783,35 30/11/2020
893 199400 EUSTAQUIO ADAILTON LIMA E SILVA OFICIAL DO MP MANGA - COMARCA; MANGA-PJ-01PJ 14.790,66 10.353,47 0,00 0,00 0,00 0,00 1.938,96 1.550,00 28.633,09 3.349,81 6.375,42 0,00 0,00 9.725,23 18.907,86 30/11/2020
894 548000 EVA VILMA LEAO REIS JULIO OFICIAL DO MP BELO HORIZONTE - COMARCA; BH-07PJ 01 TRIBUNAL JURI-SECRETARIA 5.930,75 1.779,23 0,00 0,00 0,00 0,00 676,74 1.550,00 9.936,72 1.016,04 1.391,33 0,00 0,00 2.407,37 7.529,35 30/11/2020
895 517000 EVALDO SENA COSTA FILHO ANALISTA DO MP CONTAGEM - COMARCA; CONTAGEM-PJ-15PJ 10.069,62 3.020,89 0,00 0,00 0,00 0,00 1.349,84 1.550,00 15.990,35 1.753,88 2.963,81 0,00 0,00 4.717,69 11.272,66 30/11/2020
896 217500 EVELANGE LEAO RABELO ASSESSOR BELO HORIZONTE - COMARCA; COORD EST DEF DIR FAM PESSOAS DEFICI IDOSOS 0,00 1.230,51 3.076,28 0,00 1.435,60 0,00 389,74 1.550,00 7.682,13 713,09 1.055,95 0,00 0,00 1.769,04 5.913,09 30/11/2020
897 679600 EVERTON BARBOSA DA SILVA ASSESSOR PROCURADOR JUSTICA BELO HORIZONTE - COMARCA; GABINETE DE PROCURADOR DE JUSTIÇA - SALA 513 0,00 0,00 7.187,72 0,00 0,00 0,00 0,00 1.550,00 8.737,72 713,09 1.213,66 0,00 0,00 1.926,75 6.810,97 30/11/2020
898 540400 EVIE SARAMELLA DE RESENDE OFICIAL DO MP BARBACENA - COMARCA; BARBACENA-PJ-05PJ 5.930,75 593,08 0,00 0,00 0,00 0,00 555,73 1.550,00 8.629,56 859,73 1.043,54 0,00 0,00 1.903,27 6.726,29 30/11/2020
899 469000 EWERTON CARDOSO DE SA RODRIGUES ANALISTA DO MP CAMPO BELO - COMARCA; CAMPO BELO-PJ-01PJ 10.069,62 1.006,96 0,00 0,00 3.692,19 0,00 1.110,51 2.319,39 18.198,67 1.484,05 3.343,72 0,00 0,00 4.827,77 13.370,90 30/11/2020
900 368900 FABIANA BARBOSA SIQUEIRA OFICIAL DO MP BELO HORIZONTE - COMARCA; CAO-ORDEM ECONOMICA E TRIBUTARIA-SECRETARIA 9.146,93 1.829,39 0,00 0,00 0,00 0,00 1.066,62 1.550,00 13.592,94 1.462,32 2.332,16 0,00 0,00 3.794,48 9.798,46 30/11/2020
901 273800 FABIANA CARNEIRO AMORIM COORDENADOR/OFICIAL BELO HORIZONTE - COMARCA; BH-23PJ CIVEL-COORD ADM CIVEL 11.085,56 3.325,67 2.363,83 0,00 5.734,56 0,00 1.666,04 1.550,00 25.725,66 1.964,83 5.724,02 0,00 4,58 7.693,43 18.032,23 30/11/2020
902 519300 FABIANA DE OLIVEIRA LOUREIRO ANALISTA DO MP BELO HORIZONTE - COMARCA; BH-09PJ AUDITORIA MILITAR-SECRETARIA 10.069,62 1.006,96 0,00 0,00 3.692,19 0,00 1.145,96 1.550,00 17.464,73 1.484,05 3.448,00 0,00 0,00 4.932,05 12.532,68 30/11/2020
903 363400 FABIANA DOURADO DUPIN VIEGAS ANALISTA DO MP BELO HORIZONTE - COMARCA; GABINETE DE PROCURADOR DE JUSTIÇA - SALA 705 15.272,02 3.054,40 0,00 0,00 6.108,81 0,00 1.640,30 1.550,00 27.625,53 2.498,63 6.317,88 0,00 0,00 8.816,51 18.809,02 30/11/2020
904 410800 FABIANA DUARTE QUITITE ANALISTA DO MP BELO HORIZONTE - COMARCA; BH-15PJ M AMB PAT HIST CULT-GAB 116PJ 13.011,52 2.602,30 0,00 0,00 0,00 0,00 1.473,20 1.550,00 18.637,02 2.098,79 3.901,19 0,00 0,00 5.999,98 12.637,04 30/11/2020
905 419500 FABIANA EULALIA DOS SANTOS ANALISTA DO MP SÃO JOÃO DEL REI - COMARCA; SAO JOAO DEL REI-PJ-01PJ 13.011,52 2.602,30 0,00 0,00 0,00 0,00 2.289,48 1.550,00 19.453,30 2.217,10 4.063,69 0,00 0,00 6.280,79 13.172,51 30/11/2020
906 376300 FABIANA MATTOSO LEMOS ANALISTA DO MP BELO HORIZONTE - COMARCA; BH-21PJ TUTELA FUNDACOES-SECRETARIA 14.324,23 2.864,85 0,00 0,00 0,00 0,00 1.370,61 1.550,00 20.109,69 2.265,23 4.274,78 0,00 0,00 6.540,01 13.569,68 30/11/2020
907 331500 FABIANA PACHECO OFICIAL DO MP GUAXUPÉ - COMARCA; GUAXUPE-PJ-01PJ 10.069,62 3.020,89 0,00 0,00 5,81 0,00 1.099,98 2.319,39 16.515,69 1.738,49 2.967,62 0,00 0,00 4.706,11 11.809,58 30/11/2020
908 510700 FABIANA PEREIRA SANTOS BORGES ANALISTA DO MP BELO HORIZONTE - COMARCA; DIRETORIA DE SISTEMAS DE INFORMACAO 10.069,62 1.006,96 0,00 0,00 3.692,19 0,00 3.417,67 2.488,54 20.674,98 1.484,05 4.114,43 0,00 0,00 5.598,48 15.076,50 30/11/2020
909 181700 FABIANA SOUZA FERREIRA OFICIAL DO MP BELO HORIZONTE - COMARCA; BH-19PJ SAUDE-SECRETARIA 150PJ 6.123,79 2.449,52 0,00 0,00 2.857,77 0,00 707,44 1.550,00 13.688,52 1.148,65 2.425,12 0,00 0,00 3.573,77 10.114,75 30/11/2020
910 272900 FABIANA STOCKLER LEITE OFICIAL DO MP LAJINHA - COMARCA; LAJINHA-PJ-SECRETARIA 10.069,62 5.034,81 0,00 0,00 0,00 0,00 1.406,00 2.319,39 18.829,82 2.072,28 3.737,81 0,00 0,00 5.810,09 13.019,73 30/11/2020
911 225500 FABIANE DE FATIMA PORTELLA ANALISTA DO MP BELO HORIZONTE - COMARCA; BH-18PJ DIREITOS HUMANOS-SECRETARIA 18.820,14 5.646,04 0,00 0,00 0,00 0,00 2.200,33 1.550,00 28.216,51 3.278,00 6.424,19 0,00 0,00 9.702,19 18.514,32 30/11/2020
912 433800 FABIANE DINIZ MATTOS ANALISTA DO MP BELO HORIZONTE - COMARCA; BH-23PJ INFRACIONAL-ASS JURIDICA 13.011,52 2.602,30 0,00 0,00 0,00 0,00 2.951,06 3.088,78 21.653,66 2.326,78 4.307,72 0,00 0,00 6.634,50 15.019,16 30/11/2020
913 455000 FABIANO CARVALHO DA SILVA ANALISTA DO MP LAVRAS - COMARCA; LAVRAS-PJ-05PJ 10.069,62 1.006,96 0,00 0,00 0,00 0,00 1.115,97 1.550,00 13.742,55 1.484,05 2.432,64 0,00 0,00 3.916,69 9.825,86 30/11/2020
914 498800 FABIANO FURTADO PESSOA COELHO ANALISTA DO MP BELO HORIZONTE - COMARCA; DIRETORIA DE REDES E BANCOS DE DADOS 10.069,62 1.006,96 0,00 0,00 0,00 0,00 1.007,18 1.550,00 13.633,76 1.484,05 2.380,51 0,00 0,00 3.864,56 9.769,20 30/11/2020
915 663000 FABIANO MARQUES CORREA ASSESSOR BELO HORIZONTE - COMARCA; DIRETORIA DE SUPORTE E MANUTENCAO 0,00 0,00 5.136,32 0,00 0,00 0,00 379,19 1.550,00 7.065,51 713,09 957,46 0,00 0,00 1.670,55 5.394,96 30/11/2020
916 394600 FABIANO PALHARES SILVA ANALISTA DO MP BELO HORIZONTE - COMARCA; CENTRAL DE APOIO TECN-SETOR DE MEIO AMBIENTE 14.324,23 2.864,85 0,00 0,00 0,00 0,00 1.483,84 1.550,00 20.222,92 2.315,44 4.230,36 0,00 0,00 6.545,80 13.677,12 30/11/2020
917 676600 FABIANO RESENDE VELOSO ASSESSOR PROCURADOR JUSTICA BELO HORIZONTE - COMARCA; GABINETE DE PROCURADOR DE JUSTIÇA - SALA 1002 0,00 0,00 7.187,72 0,00 0,00 0,00 0,00 1.550,00 8.737,72 713,09 1.213,66 0,00 0,00 1.926,75 6.810,97 30/11/2020
918 444400 FABIANO SARAIVA MEDEIROS ANALISTA DO MP BETIM - COMARCA; BETIM-PJ-11PJ 12.601,30 2.520,26 0,00 0,00 0,00 0,00 1.276,84 2.319,39 18.717,79 2.151,47 3.910,95 0,00 0,00 6.062,42 12.655,37 30/11/2020
919 408700 FABIANO SOARES PORTILHO ANALISTA DO MP VIÇOSA - COMARCA; VICOSA-PJ-02PJ 13.011,52 2.602,30 0,00 0,00 140,46 0,00 1.354,97 1.550,00 18.659,25 2.128,77 3.867,16 0,00 0,00 5.995,93 12.663,32 30/11/2020
920 442600 FABIO CARVALHO VIEIRA ANALISTA DO MP MONTES CLAROS - COMARCA; MONTES CLAROS-PJ-06PJ 9.752,14 1.950,43 0,00 0,00 0,00 0,00 1.068,06 1.550,00 14.320,63 1.559,07 2.675,07 0,00 0,00 4.234,14 10.086,49 30/11/2020
921 240101 FABIO JUNQUEIRA DE ASSIS FONSECA OFICIAL DO MP BELO HORIZONTE - COMARCA; BH-17PJ PATRIMONIO PUBLICO-SECRETARIA 8.170,49 1.634,10 0,00 0,00 9,74 0,00 910,51 1.550,00 12.274,84 1.394,97 2.297,71 0,00 0,00 3.692,68 8.582,16 30/11/2020
922 271500 FABIO LUIZ VIEIRA OFICIAL DO MP SANTA VITÓRIA - COMARCA; SANTA VITORIA-PJ-UNPJ 10.069,62 3.020,89 0,00 0,00 4.363,50 0,00 2.642,80 1.626,60 21.723,41 1.901,98 4.458,24 0,00 0,00 6.360,22 15.363,19 30/11/2020
923 213100 FABIO PRATES GONCALVES ASSESSOR BELO HORIZONTE - COMARCA; CENTRO CERIMONIAL 0,00 4.159,01 10.397,52 0,00 4.852,18 0,00 1.215,10 2.319,39 22.943,20 713,09 5.290,72 0,00 0,00 6.003,81 16.939,39 30/11/2020
924 436700 FABIO SANTIAGO DE CARVALHO OFICIAL DO MP POÇO FUNDO - COMARCA; POCO FUNDO-PJ-UNPJ 8.579,10 1.715,82 0,00 0,00 3.436,25 0,00 908,04 1.550,00 16.189,21 1.390,69 3.231,87 0,00 0,00 4.622,56 11.566,65 30/11/2020
925 208400 FABIOLA DE SOUSA CARDOSO ASSESSOR/ANALISTA BELO HORIZONTE - COMARCA; ASSESS TECNICA DA CORREGEDORIA-GERAL DO MP 18.820,14 7.528,06 2.520,26 0,00 9.869,11 0,00 2.665,26 1.550,00 42.952,83 3.530,15 10.475,67 0,00 0,00 14.005,82 28.947,01 30/11/2020
926 392200 FABIOLA LEROY COSTA ANALISTA DO MP ESMERALDAS - COMARCA; ESMERALDAS-PJ-01PJ 10.069,62 2.013,92 0,00 0,00 0,00 0,00 1.944,67 2.319,39 16.347,60 1.715,43 2.947,46 0,00 0,00 4.662,89 11.684,71 30/11/2020
927 409000 FABIOLA MONTEIRO DE CARVALHO CASTRO ANALISTA DO MP BOM SUCESSO - COMARCA; BOM SUCESSO-PJ-UNPJ 11.085,56 2.217,11 0,00 0,00 4.547,60 0,00 1.127,86 1.550,00 20.528,13 1.772,25 4.293,30 0,00 0,00 6.065,55 14.462,58 30/11/2020
928 525800 FABRICIA ALVES DANTAS OFICIAL DO MP MONTES CLAROS - COMARCA; MONTES CLAROS-PJ-01PJ 7.421,79 742,18 0,00 0,00 0,00 0,00 737,40 1.550,00 10.451,37 1.099,72 1.522,65 0,00 0,00 2.622,37 7.829,00 30/11/2020
929 263400 FABRICIA PINTO TEIXEIRA SANTIAGO OFICIAL DO MP BELO HORIZONTE - COMARCA; CAO-FUNDACOES-SECRETARIA 12.601,30 3.780,39 0,00 0,00 5.460,56 0,00 1.366,55 1.550,00 24.758,80 2.330,76 5.713,97 0,00 0,00 8.044,73 16.714,07 30/11/2020
930 420800 FABRICIO BERNARDES DE OLIVEIRA OFICIAL DO MP ITURAMA - COMARCA; ITURAMA-PJ-02PJ 8.579,10 1.715,82 0,00 0,00 3.436,66 0,00 929,56 1.700,23 16.361,37 1.390,69 3.179,73 0,00 0,00 4.570,42 11.790,95 30/11/2020
931 474000 FABRICIO DE FREITAS SALES ANALISTA DO MP MONTES CLAROS - COMARCA; COORD REG PATRI PUB ORD TRIB-NORTE MINAS 10.069,62 1.006,96 0,00 0,00 3.692,19 0,00 1.111,02 1.550,00 17.429,79 1.484,05 3.448,00 0,00 0,00 4.932,05 12.497,74 30/11/2020
932 510100 FABRICIO FURTADO ASSIS DO CARMO ANALISTA DO MP BELO HORIZONTE - COMARCA; SERVICO MEDICO-DEPTO PERIC MEDICA SAUDE OCUP 10.069,62 1.006,96 0,00 0,00 0,00 0,00 2.052,49 2.319,39 15.448,46 1.484,05 2.755,38 0,00 0,00 4.239,43 11.209,03 30/11/2020
933 519600 FABRICIO GONTIJO SALVATI ANALISTA DO MP JUIZ DE FORA - COMARCA; JUIZ DE FORA-CAO ESPECIALIZADO-SECRETARIA 10.069,62 1.006,96 0,00 0,00 0,00 0,00 1.026,74 1.550,00 13.653,32 1.484,05 2.432,64 0,00 0,00 3.916,69 9.736,63 30/11/2020
934 637400 FABRICIO HENRIQUE DA SILVA PASSOS ASSESSOR/ANALISTA BELO HORIZONTE - COMARCA; CENTRO PUBLICIDADE E DESIGN GRAFICO 0,00 1.039,75 10.397,52 0,00 0,00 0,00 988,94 1.550,00 13.976,21 1.336,17 2.591,56 0,00 3,28 3.931,01 10.045,20 30/11/2020
935 428200 FABRICIO ORZIL VIANA ANALISTA DO MP SANTA LUZIA - COMARCA; SANTA LUZIA-PJ-04PJ 10.069,62 2.013,92 0,00 0,00 0,00 0,00 1.772,16 1.550,00 15.405,70 1.683,14 2.875,64 0,00 0,00 4.558,78 10.846,92 30/11/2020
936 455600 FABRICIO PAIVA DA ROCHA ANALISTA DO MP SÃO JOÃO DEL REI - COMARCA; SAO JOAO DEL REI-PJ-06PJ 10.069,62 1.006,96 0,00 0,00 0,00 0,00 1.032,35 2.319,39 14.428,32 1.484,05 2.380,51 0,00 0,00 3.864,56 10.563,76 30/11/2020
937 511500 FABRICIO RENE CARDOSO DE PADUA ANALISTA DO MP SÃO SEBASTIÃO DO PARAÍSO - COMARCA; SAO SEBASTIAO DO PARAISO-PJ-03PJ 10.069,62 1.006,96 0,00 0,00 3.692,19 0,00 1.009,41 1.550,00 17.328,18 1.484,05 3.521,78 0,00 0,00 5.005,83 12.322,35 30/11/2020
938 496100 FABRICIO RESENDE GONCALVES OFICIAL DO MP ENTRE-RIOS DE MINAS - COMARCA; ENTRE RIOS DE MINAS-PJ-UNPJ 7.421,79 742,18 0,00 0,00 0,00 0,00 708,93 2.319,39 11.192,29 1.099,72 1.577,52 0,00 0,00 2.677,24 8.515,05 30/11/2020
939 650300 FABRICIO ROBERTO AZEVEDO OFICIAL DO MP NOVA SERRANA - COMARCA; NOVA SERRANA-PJ-04PJ 4.376,03 262,56 0,00 0,00 1.551,48 0,00 360,03 1.550,00 8.100,10 659,98 1.024,29 0,00 0,00 1.684,27 6.415,83 30/11/2020
940 514900 FADUA MARIA DRUMOND CHEQUER ANALISTA DO MP DIVINÓPOLIS - COMARCA; DIVINOPOLIS-PJ-12PJ 10.069,62 1.006,96 0,00 0,00 0,00 0,00 1.081,18 3.088,78 15.246,54 1.484,05 2.328,37 0,00 0,00 3.812,42 11.434,12 30/11/2020
941 282500 FANNY FERREIRA MELO OFICIAL DO MP ARAXÁ - COMARCA; ARAXA-PJ-03PJ 8.436,53 2.530,96 0,00 0,00 0,00 0,00 1.068,14 1.550,00 13.585,63 1.469,43 2.400,13 0,00 0,00 3.869,56 9.716,07 30/11/2020
942 692500 FARID JUNIOR NUNES DA SILVA ASSESSOR PROCURADOR JUSTICA BELO HORIZONTE - COMARCA; GABINETE DE PROCURADOR DE JUSTIÇA - SALA 902 0,00 0,00 6.708,54 0,00 0,00 0,00 0,00 1.550,00 8.258,54 713,09 1.081,89 0,00 0,00 1.794,98 6.463,56 30/11/2020
943 540100 FATIMA CRISTINA POVOA DA COSTA ASSESSOR/OFICIAL BELO HORIZONTE - COMARCA; BH-18PJ VIOLENCIA DOMESTICA-SECRETARIA 0,00 3.119,26 10.397,52 55,98 4.505,59 1.308,03 1.337,58 1.550,00 22.273,96 1.172,24 4.895,90 0,00 0,00 6.068,14 16.205,82 30/11/2020
944 382800 FATIMA DE OLIVEIRA COELHO E SILVA OFICIAL DO MP BELO HORIZONTE - COMARCA; DIRETORIA DE ADMINISTRACAO FINANCEIRA 7.187,72 2.156,32 0,00 0,00 0,00 0,00 849,84 1.550,00 11.743,88 1.231,39 1.818,34 0,00 0,00 3.049,73 8.694,15 30/11/2020
945 398601 FELIPE ANTONIO HORTA DE PAULA ANALISTA DO MP BELO HORIZONTE - COMARCA; PROC. JUSTICA DIR. DIFUSOS E COLETIVOS-SEC 9.146,93 914,69 0,00 0,00 0,00 0,00 828,17 1.550,00 12.439,79 1.329,32 2.150,20 0,00 0,00 3.479,52 8.960,27 30/11/2020
946 430900 FELIPE BOY VIEIRA ANALISTA DO MP BELO HORIZONTE - COMARCA; DIRETORIA DE SEGURANCA 12.204,02 2.440,80 0,00 0,00 0,00 0,00 1.332,47 1.550,00 17.527,29 1.929,94 3.424,76 0,00 0,00 5.354,70 12.172,59 30/11/2020
947 631700 FELIPE DE MORAIS SIMOES COELHO ANALISTA DO MP BELO HORIZONTE - COMARCA; BH-18PJ VIOLENCIA DOMESTICA-SECRETARIA 7.663,37 766,34 0,00 0,00 0,00 0,00 660,11 1.550,00 10.639,82 1.199,37 1.799,23 0,00 0,00 2.998,60 7.641,22 30/11/2020
948 549100 FELIPE FERNANDES ALVIM ANALISTA DO MP LAJINHA - COMARCA; LAJINHA-PJ-UNPJ 9.146,93 914,69 0,00 0,00 3.353,87 0,00 1.328,86 1.550,00 16.294,35 1.371,70 3.166,80 0,00 0,00 4.538,50 11.755,85 30/11/2020
949 487300 FELIPE FERNANDES SILVEIRA ASSESSOR BELO HORIZONTE - COMARCA; DIVISAO DE MANUTENCAO PREDIAL 0,00 0,00 3.076,28 0,00 0,00 0,00 280,00 1.550,00 4.906,28 713,09 293,98 0,00 0,00 1.007,07 3.899,21 30/11/2020
950 693100 FELIPE FROIS DO AMARAL ASSESSOR PROMOTOR JUSTICA RIBEIRÃO DAS NEVES - COMARCA; RIBEIRAO NEVES-SEC PJ EXECUCAO PENAL 0,00 0,00 6.708,54 0,00 0,00 0,00 0,00 1.550,00 8.258,54 713,09 1.081,89 0,00 0,00 1.794,98 6.463,56 30/11/2020
951 620100 FELIPE GOMES DE AZEVEDO ASSESSOR/OFICIAL BELO HORIZONTE - COMARCA; DIVISAO DE SERVICOS 0,00 817,05 8.170,49 0,00 0,00 0,00 530,13 1.550,00 11.067,67 817,43 1.913,48 0,00 0,00 2.730,91 8.336,76 30/11/2020
952 601600 FELIPE RODRIGUES DE SIQUEIRA ANALISTA DO MP BELO HORIZONTE - COMARCA; BH-02PJ FAMILIA-SECRETARIA 9.146,93 914,69 0,00 0,00 0,00 0,00 1.486,16 1.550,00 13.097,78 1.393,87 1.948,98 0,00 0,00 3.342,85 9.754,93 30/11/2020
953 628900 FELIX FERNANDO JUNIO VIEIRA ANALISTA DO MP CAETÉ - COMARCA; CAETE-PJ-02PJ 8.436,53 843,65 0,00 0,00 3.176,84 0,00 780,12 1.550,00 14.787,14 1.236,35 2.680,05 0,00 0,00 3.916,40 10.870,74 30/11/2020
954 544500 FELLIPE LEMOS MARCONDES BUENO ANALISTA DO MP SÃO SEBASTIÃO DO PARAÍSO - COMARCA; SAO SEBASTIAO DO PARAISO-PJ-04PJ 9.146,93 914,69 0,00 0,00 81,67 0,00 928,52 1.550,00 12.621,81 1.329,32 2.088,39 0,00 0,00 3.417,71 9.204,10 30/11/2020
955 688500 FELLIPE TADEU DE ANDRADE RAMOS ASSESSOR PROCURADOR JUSTICA BELO HORIZONTE - COMARCA; GABINETE DE PROCURADOR DE JUSTIÇA - SALA 907 0,00 0,00 7.187,72 0,00 0,00 0,00 0,00 1.550,00 8.737,72 713,09 1.213,66 0,00 0,00 1.926,75 6.810,97 30/11/2020
956 612600 FERNANDA ADRIANA DE PAULA GUIDO ANALISTA DO MP PARACATU - COMARCA; PARACATU-PJ-02PJ 8.436,53 843,65 0,00 0,00 0,00 0,00 888,54 2.319,39 12.488,11 1.236,35 1.881,51 0,00 0,00 3.117,86 9.370,25 30/11/2020
957 508400 FERNANDA AGANETTI MATTOS DE OLIVEIRA ANALISTA DO MP BELO HORIZONTE - COMARCA; BH-07PJ 02 TRIBUNAL DO JURI-GAB 061PJ 10.069,62 1.006,96 0,00 0,00 3.692,19 0,00 994,72 3.088,78 18.852,27 1.484,05 3.448,00 0,00 0,00 4.932,05 13.920,22 30/11/2020
958 453600 FERNANDA ALBERNAZ RABELO ANALISTA DO MP BELO HORIZONTE - COMARCA; GABINETE DE PROCURADOR DE JUSTIÇA - SALA 616 10.069,62 1.006,96 0,00 0,00 0,00 0,00 977,19 1.550,00 13.603,77 1.484,05 2.432,64 0,00 0,00 3.916,69 9.687,08 30/11/2020
959 255600 FERNANDA ALINA DE ALMEIDA ANDRADE OFICIAL DO MP BELO HORIZONTE - COMARCA; LABORATORIO TECNOLOGIA INTELIGENCIA 10.069,62 3.020,89 0,00 0,00 104,65 0,00 1.059,98 1.550,00 15.805,14 1.725,11 2.969,02 0,00 0,00 4.694,13 11.111,01 30/11/2020
960 443200 FERNANDA ALMEIDA LOPES ANALISTA DO MP CONTAGEM - COMARCA; CONTAGEM-PJ-23PJ 12.601,30 2.520,26 0,00 0,00 0,00 0,00 1.296,79 3.088,78 19.507,13 2.014,56 3.606,33 0,00 0,00 5.620,89 13.886,24 30/11/2020
961 281100 FERNANDA ANANIAS MEIRA ANALISTA DO MP BELO HORIZONTE - COMARCA; BH-23PJ INFRACIONAL-ASS JURIDICA 16.750,82 5.025,25 0,00 0,00 0,00 0,00 5.083,22 1.550,00 28.409,29 3.241,04 6.341,95 0,00 0,00 9.582,99 18.826,30 30/11/2020
962 539000 FERNANDA BARBOSA ALVES ANALISTA DO MP UBERABA - COMARCA; UBERABA-PJ-04PJ 9.146,93 914,69 0,00 0,00 0,00 0,00 810,63 2.319,39 13.191,64 1.329,32 2.088,39 0,00 0,00 3.417,71 9.773,93 30/11/2020
963 451200 FERNANDA BLOISE PRADO OFICIAL DO MP BELO HORIZONTE - COMARCA; DIVISAO DE MATERIAIS 8.170,49 1.634,10 0,00 0,00 71,78 0,00 816,16 1.550,00 12.242,53 1.300,55 2.024,37 0,00 0,00 3.324,92 8.917,61 30/11/2020
964 427900 FERNANDA BRAGA CARNEIRO BICALHO ANALISTA DO MP PEÇANHA - COMARCA; PECANHA-PJ-SECRETARIA 10.069,62 2.013,92 0,00 0,00 0,00 0,00 1.033,21 2.319,39 15.436,14 1.618,96 2.680,69 0,00 0,00 4.299,65 11.136,49 30/11/2020
965 507100 FERNANDA CABRINI VAZ MOTA ANALISTA DO MP BELO HORIZONTE - COMARCA; BH-14PJ DEFESA CONSUMIDOR-GAB 005PJ 10.069,62 1.006,96 0,00 0,00 0,00 0,00 1.115,92 2.319,39 14.511,89 1.484,05 2.432,64 0,00 0,00 3.916,69 10.595,20 30/11/2020
966 259800 FERNANDA CALZAVARA DE SOUSA COORDENADOR/OFICIAL BELO HORIZONTE - COMARCA; DIRET DE FORMACAO, APERFEIC. E POS-GRADUACAO 12.601,30 3.780,39 2.687,03 -159,94 6.356,24 0,00 2.625,05 2.319,39 30.209,46 2.220,83 6.400,79 0,00 342,90 8.964,52 21.244,94 30/11/2020
967 494400 FERNANDA CAMPOS BARATA OFICIAL DO MP JUIZ DE FORA - COMARCA; JUIZ DE FORA-PJ-08PJ 6.123,79 612,38 0,00 0,00 3,30 0,00 546,47 1.550,00 8.835,94 887,72 1.105,81 0,00 0,00 1.993,53 6.842,41 30/11/2020
968 555600 FERNANDA CAROLINE RIBEIRO ANALISTA DO MP BELO HORIZONTE - COMARCA; DIRETORIA GESTAO CONTRATOS CONVENIOS 9.146,93 914,69 0,00 0,00 0,00 0,00 1.087,86 1.550,00 12.699,48 1.381,05 2.198,32 0,00 4,11 3.583,48 9.116,00 30/11/2020
969 692000 FERNANDA CESAR SILVA ASSESSOR PROCURADOR JUSTICA BELO HORIZONTE - COMARCA; ASSESS TECNICO-JUR JUNTO AS PROC. DE JUST 0,00 0,00 6.708,54 0,00 0,00 0,00 0,00 1.550,00 8.258,54 713,09 1.081,89 0,00 0,00 1.794,98 6.463,56 30/11/2020
970 294500 FERNANDA COSTA FLORES OFICIAL DO MP PARÁ DE MINAS - COMARCA; PARA DE MINAS-PJ-04PJ 10.069,62 3.020,89 0,00 0,00 0,00 0,00 1.284,44 1.550,00 15.924,95 1.753,88 3.033,02 0,00 0,00 4.786,90 11.138,05 30/11/2020
971 344500 FERNANDA CRISTINA DE SOUZA PAZ ASSESSOR BELO HORIZONTE - COMARCA; CENTRAL DE APOIO TECN-SETOR DE MEIO AMBIENTE 0,00 0,00 5.136,32 0,00 0,00 0,00 453,51 1.550,00 7.139,83 713,09 853,18 0,00 0,00 1.566,27 5.573,56 30/11/2020
972 538100 FERNANDA CRISTINA DOS SANTOS ROSA OFICIAL DO MP RIBEIRÃO DAS NEVES - COMARCA; RIBEIRAO DAS NEVES-PJ-09PJ 5.930,75 1.779,23 0,00 0,00 0,00 0,00 618,57 1.550,00 9.878,55 1.016,04 1.391,33 0,00 0,00 2.407,37 7.471,18 30/11/2020
973 337800 FERNANDA CRISTINA ROLAND CLIMACO MENDES COORDENADOR/OFICIAL BELO HORIZONTE - COMARCA; DIRETORIA DE PAGAMENTO DE PESSOAL-DPAG 0,00 4.030,55 13.435,16 -44,69 5.821,90 0,00 1.567,31 1.550,00 26.360,23 1.971,85 5.915,36 0,00 113,81 8.001,02 18.359,21 30/11/2020
974 545400 FERNANDA CUNHA GUIMARAES ANALISTA DO MP BELO HORIZONTE - COMARCA; COORD EST DEF DIR FAM PESSOAS DEFICI IDOSOS 9.146,93 914,69 0,00 0,00 0,00 0,00 918,52 1.550,00 12.530,14 1.329,32 2.088,39 0,00 0,00 3.417,71 9.112,43 30/11/2020
975 429801 FERNANDA CUNHA PINHEIRO DA SILVA ANALISTA DO MP BELO HORIZONTE - COMARCA; ASSESSORIA DE COMUNICACAO INTEGRADA 10.069,62 1.006,96 0,00 0,00 0,00 0,00 998,83 1.550,00 13.625,41 1.484,05 2.380,51 0,00 0,00 3.864,56 9.760,85 30/11/2020
976 408000 FERNANDA DAS NEVES RAMOS ANALISTA DO MP BELO HORIZONTE - COMARCA; CENTRAL DE APOIO TECNICO-SETOR CONTABIL 13.011,52 2.602,30 0,00 0,00 5.345,07 0,00 1.486,55 2.319,39 24.764,83 2.128,77 5.298,43 0,00 0,00 7.427,20 17.337,63 30/11/2020
977 496000 FERNANDA DE ALMEIDA VIANA ANALISTA DO MP BELO HORIZONTE - COMARCA; PROC JUST RECURSOS ESP E EXTRAORD CRIMINAIS 10.069,62 1.006,96 0,00 0,00 3.692,19 0,00 1.077,95 2.319,39 18.166,11 1.484,05 3.469,65 0,00 0,00 4.953,70 13.212,41 30/11/2020
978 266700 FERNANDA DE CASTRO LUCAS COORDENADOR/OFICIAL BELO HORIZONTE - COMARCA; DIRET DE DESENV DE RECURSOS HUMANOS-DDRH 12.601,30 3.780,39 2.687,03 -159,94 6.536,19 0,00 1.752,80 2.319,39 29.517,16 2.182,45 6.484,72 0,00 319,88 8.987,05 20.530,11 30/11/2020
979 433200 FERNANDA DE FIGUEIREDO NORTE ANALISTA DO MP BELO HORIZONTE - COMARCA; ASSESS JUR DO CONS SUPERIOR DO MINISTERIO PUB 13.011,52 2.602,30 0,00 0,00 0,00 0,00 1.396,75 2.319,39 19.329,96 2.128,77 3.762,89 0,00 0,00 5.891,66 13.438,30 30/11/2020
980 419200 FERNANDA DE MIRANDA MARTINS SIMOES ANALISTA DO MP UBERLÂNDIA - COMARCA; UBERLANDIA-PJ-17PJ 13.011,52 2.602,30 0,00 0,00 5.337,69 0,00 1.485,08 2.319,39 24.755,98 2.080,14 5.190,23 0,00 0,00 7.270,37 17.485,61 30/11/2020
981 441400 FERNANDA DE MORAIS PINTO ANALISTA DO MP BELO HORIZONTE - COMARCA; PROC. JUSTICA DIR. DIFUSOS E COLETIVOS-SEC 12.601,30 2.520,26 0,00 0,00 0,00 0,00 1.136,06 1.550,00 17.807,62 2.151,47 3.917,67 0,00 0,00 6.069,14 11.738,48 30/11/2020
982 432200 FERNANDA DE MOURA GUIMARAES ANALISTA DO MP BELO HORIZONTE - COMARCA; BH-26 CRIME CONT CRIAN ADOL-SECRETARIA 12.601,30 2.520,26 0,00 0,00 0,00 0,00 1.387,61 2.319,39 18.828,56 2.014,56 3.613,05 0,00 0,00 5.627,61 13.200,95 30/11/2020
983 461800 FERNANDA DE OLIVEIRA SANTOS ANALISTA DO MP JUIZ DE FORA - COMARCA; JUIZ DE FORA-PJ-21PJ 10.069,62 1.006,96 0,00 0,00 0,00 0,00 1.119,25 2.319,39 14.515,22 1.484,05 2.506,43 0,00 0,00 3.990,48 10.524,74 30/11/2020
984 432500 FERNANDA DE PAULA PINTO ANALISTA DO MP BELO HORIZONTE - COMARCA; PROC JUST RECURSOS ESP E EXTRAORD CRIMINAIS 12.601,30 2.520,26 0,00 0,00 127,27 0,00 1.318,86 1.550,00 18.117,69 2.151,47 3.917,67 0,00 0,00 6.069,14 12.048,55 30/11/2020
985 431600 FERNANDA DIAS BARBOSA PEREIRA ANALISTA DO MP OURO BRANCO - COMARCA; OURO BRANCO-PJ-UNPJ 12.601,30 2.520,26 0,00 0,00 0,00 0,00 1.283,44 2.319,39 18.724,39 2.014,56 3.508,77 0,00 0,00 5.523,33 13.201,06 30/11/2020
986 162200 FERNANDA FERNANDES MONTEIRO ASSESSOR BELO HORIZONTE - COMARCA; BH-12PJ JUIZO CRIMINAL-SECRETARIA 0,00 2.054,53 5.136,32 0,00 0,00 0,00 722,73 1.550,00 9.463,58 713,09 1.593,49 0,00 0,00 2.306,58 7.157,00 30/11/2020
987 512800 FERNANDA FERREIRA BARBOSA MOREIRA ANALISTA DO MP IPATINGA - COMARCA; IPATINGA-PJ-05PJ 10.069,62 1.006,96 0,00 0,00 3.692,19 0,00 1.107,02 2.319,39 18.195,18 1.484,05 3.448,00 0,00 0,00 4.932,05 13.263,13 30/11/2020
988 329200 FERNANDA GABRIEL GUZELLA OFICIAL DO MP BELO HORIZONTE - COMARCA; DIRET DE PLANOS PROJETOS E PROGRAMAS INST 9.752,14 2.925,64 0,00 0,00 0,00 0,00 983,65 1.550,00 15.211,43 1.666,34 2.913,75 0,00 0,00 4.580,09 10.631,34 30/11/2020
989 324200 FERNANDA GEORGIA NEVES ZAHAN OFICIAL DO MP IPANEMA - COMARCA; IPANEMA-PJ-SECRETARIA 8.436,53 5.905,57 0,00 0,00 0,00 0,00 1.209,38 1.550,00 17.101,48 1.921,57 3.501,66 0,00 0,00 5.423,23 11.678,25 30/11/2020
990 548200 FERNANDA GONCALVES DE CARVALHO ZUZA OFICIAL DO MP TUPACIGUARA - COMARCA; TUPACIGUARA-PJ-UNPJ 5.930,75 593,08 0,00 0,00 2.174,61 0,00 560,14 1.550,00 10.808,58 848,84 1.617,33 0,00 0,00 2.466,17 8.342,41 30/11/2020
991 355400 FERNANDA HELENA BASQUES OFICIAL DO MP SABARÁ - COMARCA; SABARA-PJ-01PJ 9.146,93 1.829,39 0,00 0,00 0,00 0,00 1.566,84 1.550,00 14.093,16 1.517,34 2.506,72 0,00 0,00 4.024,06 10.069,10 30/11/2020
992 454800 FERNANDA IATAROLA BARBOSA DIAS ANALISTA DO MP BARBACENA - COMARCA; BARBACENA-PJ-05PJ 10.736,08 1.073,61 0,00 0,00 4.034,14 0,00 2.207,50 1.550,00 19.601,33 1.728,53 4.007,03 0,00 0,00 5.735,56 13.865,77 30/11/2020
993 515500 FERNANDA LILIANE MARUGEIRO ANALISTA DO MP BELO HORIZONTE - COMARCA; BH-18PJ VIOLENCIA DOMESTICA-SECRETARIA 10.069,62 1.006,96 0,00 0,00 0,00 0,00 1.007,98 2.319,39 14.403,95 1.484,05 2.380,51 0,00 0,00 3.864,56 10.539,39 30/11/2020
994 392900 FERNANDA MAGALHAES SILVA ANALISTA DO MP BELO HORIZONTE - COMARCA; CENTRO JORNALISMO 14.324,23 2.864,85 0,00 0,00 0,00 0,00 1.436,66 1.550,00 20.175,74 2.265,23 4.358,90 0,00 0,00 6.624,13 13.551,61 30/11/2020
995 409200 FERNANDA MAIA SANTIAGO CARDOSO ANALISTA DO MP PIRAPORA - COMARCA; PIRAPORA-PJ-02PJ 10.069,62 2.013,92 0,00 0,00 0,00 0,00 1.046,38 2.319,39 15.449,31 1.657,82 2.819,30 0,00 0,00 4.477,12 10.972,19 30/11/2020
996 556500 FERNANDA OTERO COSTA ANALISTA DO MP BELO HORIZONTE - COMARCA; ASSESS TECNICO-JUR JUNTO AS PROC. DE JUST 10.069,62 1.006,96 0,00 0,00 3.692,19 0,00 1.467,79 1.550,00 17.786,56 1.508,45 3.569,31 0,00 0,00 5.077,76 12.708,80 30/11/2020
997 615300 FERNANDA PATRICIA RIBEIRO MOTA OFICIAL DO MP UBERABA - COMARCA; UBERABA-PJ-05PJ 4.974,42 497,44 0,00 0,00 0,00 0,00 450,26 1.550,00 7.472,12 728,99 752,64 0,00 0,00 1.481,63 5.990,49 30/11/2020
998 619800 FERNANDA PINTO PEREIRA ANALISTA DO MP UBERLÂNDIA - COMARCA; UBERLANDIA-PJ-20PJ 8.436,53 843,65 0,00 0,00 13,54 0,00 762,12 2.319,39 12.375,23 1.236,35 1.889,24 0,00 0,00 3.125,59 9.249,64 30/11/2020
999 412900 FERNANDA PORTELA ROSA ANALISTA DO MP BELO HORIZONTE - COMARCA; BH-08PJ JUIZADO ESPECIAL-SECRETARIA 13.011,52 2.602,30 0,00 0,00 0,00 0,00 1.528,40 2.319,39 19.461,61 2.092,58 3.786,63 0,00 0,00 5.879,21 13.582,40 30/11/2020
1000 274301 FERNANDA QUEIROZ PARREIRA ANALISTA DO MP PATOS DE MINAS - COMARCA; GAECO REGIONAL DE PATOS DE MINAS 10.069,62 1.006,96 0,00 0,00 3.692,19 0,00 987,57 1.550,00 17.306,34 1.484,05 3.448,00 0,00 0,00 4.932,05 12.374,29 30/11/2020
1001 467900 FERNANDA QUEIROZ SIMOES GANNAM ANALISTA DO MP SÃO LOURENÇO - COMARCA; SAO LOURENCO-PJ-02PJ 10.069,62 1.006,96 0,00 0,00 0,00 0,00 964,98 2.319,39 14.360,95 1.484,05 2.380,51 0,00 0,00 3.864,56 10.496,39 30/11/2020
1002 681000 FERNANDA ROCHA DE MATOS TEIXEIRA ASSESSOR PROMOTOR JUSTICA PIRANGA - COMARCA; PIRANGA-PJ-UNPJ 0,00 0,00 7.187,72 0,00 0,00 0,00 0,00 2.319,39 9.507,11 713,09 1.161,52 0,00 0,00 1.874,61 7.632,50 30/11/2020
1003 255500 FERNANDA SIMOES LOPES MENDES ANALISTA DO MP BELO HORIZONTE - COMARCA; BH-17PJ PATRIMONIO PUBLICO-SECRETARIA 18.103,37 5.431,01 0,00 0,00 0,00 0,00 2.085,26 1.564,13 27.183,77 3.131,66 5.994,31 0,00 0,00 9.125,97 18.057,80 30/11/2020
1004 481700 FERNANDA VIANA FROES DA SILVA OFICIAL DO MP GOVERNADOR VALADARES - COMARCA; GOVERNADOR VALADARES-PJ-09PJ 7.663,37 766,34 0,00 0,00 0,00 0,00 710,65 1.550,00 10.690,36 1.123,05 1.683,81 0,00 0,00 2.806,86 7.883,50 30/11/2020
1005 123900 FERNANDO ANTONIO FARIA DE ABREU DIRETOR/ANALISTA BELO HORIZONTE - COMARCA; SUPERINTENDÊNCIA DE ENGENHARIA E ARQUITETURA 26.471,31 23.824,17 4.875,89 0,00 11.820,74 3.900,84 0,00 1.550,00 72.442,95 3.900,84 13.940,13 19.709,15 0,00 37.550,12 34.892,83 30/11/2020
1006 416900 FERNANDO APARECIDO DA SILVA ANALISTA DO MP BOM DESPACHO - COMARCA; BOM DESPACHO-PJ-02PJ 12.601,30 8.820,91 0,00 0,00 0,00 0,00 1.796,07 1.050,00 24.268,28 2.853,97 5.376,45 0,00 0,00 8.230,42 16.037,86 30/11/2020
1007 380500 FERNANDO BONES COSTA OFICIAL DO MP BELO HORIZONTE - COMARCA; DIVISAO DE MATERIAIS 6.123,79 1.224,76 0,00 0,00 0,00 0,00 642,81 1.550,00 9.541,36 984,56 1.370,25 0,00 0,00 2.354,81 7.186,55 30/11/2020
1008 500100 FERNANDO CEZAR PINTO OFICIAL DO MP SANTA LUZIA - COMARCA; SANTA LUZIA-PJ-04PJ 7.663,37 766,34 0,00 0,00 2.809,90 0,00 997,36 1.550,00 13.786,97 1.199,37 2.510,56 0,00 11,86 3.721,79 10.065,18 30/11/2020
1009 346100 FERNANDO EUSTAQUIO CAMPOS UTSCH MOREIRA ANALISTA DO MP BELO HORIZONTE - COMARCA; DIRETORIA DE SISTEMAS DE INFORMACAO 15.272,02 3.054,40 0,00 0,00 0,00 0,00 1.851,61 1.550,00 21.728,03 2.441,53 4.458,78 0,00 0,00 6.900,31 14.827,72 30/11/2020
1010 103500 FERNANDO LUIZ DA SILVA JUNIOR OFICIAL DO MP BELO HORIZONTE - COMARCA; DIVISAO DE ATENDIMENTO E CONSULTA JURIDICA 18.820,14 9.410,07 0,00 0,00 0,00 0,00 2.603,46 1.550,00 32.383,67 3.782,30 7.546,27 0,00 0,00 11.328,57 21.055,10 30/11/2020
1011 287300 FERNANDO MARCIO ALVES MARTINS OFICIAL DO MP LEOPOLDINA - COMARCA; LEOPOLDINA-PJ-01PJ 8.579,10 2.573,73 0,00 0,00 3.808,05 0,00 1.010,31 1.550,00 17.521,19 1.506,58 3.348,71 0,00 0,00 4.855,29 12.665,90 30/11/2020
1012 262200 FERNANDO MARCIO RESENDE PEREIRA OFICIAL DO MP BELO HORIZONTE - COMARCA; DIR ESTRUTURA E PROCESSOS ORGANIZACIONAIS 10.069,62 3.020,89 0,00 111,14 0,00 1.954,14 1.130,83 1.550,00 17.836,62 1.753,88 3.515,34 0,00 0,00 5.269,22 12.567,40 30/11/2020
1013 472900 FERNANDO RODRIGUES DE FREITAS ANALISTA DO MP BELO HORIZONTE - COMARCA; BH-15PJ M AMB PAT HIST CULT-ASS TECNICA 10.069,62 1.006,96 0,00 0,00 3.692,19 0,00 975,67 1.550,00 17.294,44 1.484,05 3.448,00 0,00 0,00 4.932,05 12.362,39 30/11/2020
1014 421400 FERNANDO TEODORO MACIEL ANALISTA DO MP SANTA VITÓRIA - COMARCA; SANTA VITORIA-PJ-UNPJ 11.085,56 2.217,11 0,00 0,00 4.434,22 0,00 2.648,68 2.319,39 22.704,96 1.922,77 4.523,93 0,00 0,00 6.446,70 16.258,26 30/11/2020
1015 446300 FERNANDO VITOR DE OLIVEIRA ANALISTA DO MP MONTES CLAROS - COMARCA; COORD REG BACIA RIOS VERDE GRANDE E PARDO 12.601,30 2.520,26 0,00 0,00 0,00 0,00 1.331,39 1.590,19 18.043,14 2.014,56 3.710,60 0,00 0,00 5.725,16 12.317,98 30/11/2020
1016 639300 FILIPE ALMEIDA RODRIGUES ANALISTA DO MP TIMÓTEO - COMARCA; TIMOTEO-PJ-04PJ 8.170,49 817,05 0,00 0,00 69,24 0,00 810,38 1.550,00 11.417,16 1.177,29 1.750,11 0,00 0,00 2.927,40 8.489,76 30/11/2020
1017 692600 FILIPPE WAGNER MAGALHAES ALAMY REIS ASSESSOR PROCURADOR JUSTICA BELO HORIZONTE - COMARCA; GABINETE DE PROCURADOR DE JUSTIÇA - SALA 604 0,00 0,00 6.708,54 0,00 0,00 0,00 0,00 1.550,00 8.258,54 713,09 1.081,89 0,00 0,00 1.794,98 6.463,56 30/11/2020
1018 398400 FLAVIA ALVARES GUIMARAES COORDENADOR/OFICIAL BELO HORIZONTE - COMARCA; CGMP-DIVIS DE APOIO FISC ORIENTACAO FUNCIONAL 0,00 2.363,83 11.819,15 -35,12 0,00 0,00 1.406,21 1.550,00 17.104,07 1.472,56 3.491,87 0,00 79,80 5.044,23 12.059,84 30/11/2020
1019 398200 FLAVIA ALVES DE ASSUNCAO RODRIGUES ANALISTA DO MP DIVINÓPOLIS - COMARCA; COORD REG DO MA DA BACIA DO ALTO SAO FRANC 12.601,30 2.520,26 0,00 0,00 0,00 0,00 1.448,17 2.319,39 18.889,12 2.014,56 3.560,91 0,00 0,00 5.575,47 13.313,65 30/11/2020
1020 318500 FLAVIA BEATRIZ NUNES CRUZ VIEIRA ANALISTA DO MP BARBACENA - COMARCA; BARBACENA-PJ-SECRETARIA 16.750,82 5.025,25 0,00 0,00 0,00 0,00 1.640,10 1.550,00 24.966,17 2.935,30 5.557,42 0,00 0,00 8.492,72 16.473,45 30/11/2020
1021 496500 FLAVIA CARAM BORLIDO ANALISTA DO MP BELO HORIZONTE - COMARCA; DIRETORIA GESTAO CONTRATOS CONVENIOS 12.204,02 1.220,40 0,00 0,00 0,00 0,00 1.072,75 1.550,00 16.047,17 1.808,32 3.154,16 0,00 0,00 4.962,48 11.084,69 30/11/2020
1022 534800 FLAVIA CONDE SOARES ANALISTA DO MP BELO HORIZONTE - COMARCA; BH-13PJ JUÍZO DE TÓXICOS-ASSESSORIA JURIDICA 9.146,93 914,69 0,00 0,00 3.353,87 0,00 812,96 1.550,00 15.778,45 1.329,32 3.010,70 0,00 0,00 4.340,02 11.438,43 30/11/2020
1023 219500 FLAVIA CRISTINA ANCELMO OFICIAL DO MP BELO HORIZONTE - COMARCA; CAO-DH CONT EXT ATIV POLIC E AP COMUNIT 10.069,62 3.020,89 0,00 0,00 4.363,50 0,00 1.098,92 1.550,00 20.102,93 1.836,75 4.417,36 0,00 0,00 6.254,11 13.848,82 30/11/2020
1024 329600 FLAVIA CRISTINA DE MATOS XAVIER ANALISTA DO MP UBERABA - COMARCA; UBERABA-PJ-15PJ 16.750,82 5.025,25 0,00 0,00 0,00 0,00 1.929,40 1.550,00 25.255,47 2.935,30 5.557,42 0,00 0,00 8.492,72 16.762,75 30/11/2020
1025 207600 FLAVIA DE ANDRADE MANCINI ANALISTA DO MP BELO HORIZONTE - COMARCA; ASSESSORIA JURIDICO-ADMINISTRATIVA 18.820,14 7.528,06 0,00 0,00 9.007,52 0,00 2.455,53 1.550,00 39.361,25 3.530,15 9.244,07 0,00 0,00 12.774,22 26.587,03 30/11/2020
1026 402801 FLAVIA MARIA DE RESENDE NASCIMENTO ANALISTA DO MP SÃO JOÃO DEL REI - COMARCA; SAO JOAO DEL REI-PJ-04PJ 10.069,62 1.006,96 0,00 0,00 3.692,19 0,00 1.131,25 2.319,39 18.219,41 1.484,05 3.448,00 0,00 0,00 4.932,05 13.287,36 30/11/2020
1027 437500 FLAVIA MARIA TORRES MARCHETTI ANALISTA DO MP BELO HORIZONTE - COMARCA; BH-18PJ VIOLENCIA DOMESTICA-SECRETARIA 11.085,56 2.217,11 0,00 0,00 4.546,93 0,00 1.173,76 1.550,00 20.573,36 1.813,69 4.281,23 0,00 0,00 6.094,92 14.478,44 30/11/2020
1028 386000 FLAVIA NEVES BRIGIDO ASSESSOR/OFICIAL BELO HORIZONTE - COMARCA; PROMOT ESTADUAL DE DEF PATRI CULT E TUR DE MG 0,00 2.079,50 10.397,52 -35,12 4.159,01 0,00 1.240,22 2.319,39 20.160,52 1.431,65 4.033,09 0,00 79,80 5.544,54 14.615,98 30/11/2020
1029 488600 FLAVIA PEREIRA COSTA ANALISTA DO MP BELO HORIZONTE - COMARCA; CENTRAL DE APOIO TECNICO 10.069,62 1.006,96 0,00 0,00 0,00 0,00 1.054,73 2.319,39 14.450,70 1.484,05 2.432,64 0,00 0,00 3.916,69 10.534,01 30/11/2020
1030 365400 FLAVIA PEREIRA DA SILVA AMARAL OFICIAL DO MP BELO HORIZONTE - COMARCA; BH-15PJ M AMB PAT HIST CULT-GAB 115PJ 9.752,14 1.950,43 0,00 0,00 3.999,01 0,00 1.081,51 1.550,00 18.333,09 1.665,03 3.908,06 0,00 0,00 5.573,09 12.760,00 30/11/2020
1031 515400 FLAVIA RODRIGUES DE OLIVEIRA E SILVA PAIVA ANALISTA DO MP CARATINGA - COMARCA; CARATINGA-PJ-05PJ 10.069,62 1.006,96 0,00 0,00 0,00 0,00 1.066,91 1.550,00 13.693,49 1.484,05 2.350,02 0,00 0,00 3.834,07 9.859,42 30/11/2020
1032 621600 FLAVIA SARMENTO RODRIGUES ANALISTA DO MP BELO HORIZONTE - COMARCA; DIV FISCAL ADM CONT TERCEIRIZACAO 8.436,53 843,65 0,00 0,00 13,54 0,00 821,82 1.550,00 11.665,54 1.236,35 1.935,75 0,00 0,00 3.172,10 8.493,44 30/11/2020
1033 535800 FLAVIA SILVA VALADAO OFICIAL DO MP TRÊS CORACOES - COMARCA; TRES CORACOES-PJ-02PJ 5.387,19 538,72 0,00 0,00 1.975,30 0,00 534,43 1.550,00 9.985,64 783,07 1.400,49 0,00 0,00 2.183,56 7.802,08 30/11/2020
1034 515300 FLAVIA VIEIRA OLIVEIRA GOMES ANALISTA DO MP BELO HORIZONTE - COMARCA; ASSESS TECNICO-JUR JUNTO AS PROC. DE JUST 10.069,62 1.006,96 0,00 0,00 0,00 0,00 1.447,98 1.550,00 14.074,56 1.484,05 2.506,43 0,00 0,00 3.990,48 10.084,08 30/11/2020
1035 377500 FLAVIANA GONCALVES DE OLIVEIRA ANALISTA DO MP IPATINGA - COMARCA; IPATINGA-PJ-02PJ 14.324,23 2.864,85 0,00 0,00 0,00 0,00 1.324,19 1.550,00 20.063,27 2.315,44 4.282,50 0,00 0,00 6.597,94 13.465,33 30/11/2020
1036 273100 FLAVIANE DOS SANTOS CASTRO OFICIAL DO MP CAXAMBU - COMARCA; CAXAMBU-PJ-SECRETARIA 10.069,62 3.020,89 0,00 0,00 0,00 0,00 1.139,55 1.550,00 15.780,06 1.753,88 2.928,74 0,00 0,00 4.682,62 11.097,44 30/11/2020
1037 310600 FLAVIANE NAVES ALCANTARA OFICIAL DO MP BELO HORIZONTE - COMARCA; COMB CRIMES PRAT POR AG POL MUN-SECRETARIA 11.085,56 3.325,67 0,00 0,00 4.803,74 0,00 1.316,89 1.550,00 22.081,86 1.919,93 4.723,52 0,00 0,00 6.643,45 15.438,41 30/11/2020
1038 378201 FLAVIANE RIBEIRO BORGES FERNANDES OFICIAL DO MP SÃO GONÇALO DO SAPUCAÍ - COMARCA; SAO GONCALO DO SAPUCAI-PJ-02PJ 5.743,70 574,37 0,00 0,00 0,00 0,00 1.014,12 1.550,00 8.882,19 894,24 1.120,33 0,00 0,00 2.014,57 6.867,62 30/11/2020
1039 455800 FLAVIO ANTONIO RIBEIRO OFICIAL DO MP BELO HORIZONTE - COMARCA; GRUPO ESP PROM JUST DEF PROB ADM PAT PUB 6.123,79 612,38 0,00 0,00 0,00 0,00 601,47 1.550,00 8.887,64 902,51 1.183,61 0,00 0,00 2.086,12 6.801,52 30/11/2020
1040 458200 FLAVIO AUGUSTO BRAGA SOARES ANALISTA DO MP BELO HORIZONTE - COMARCA; DIVISAO DE CONTROLE IMOBILIARIO 12.601,30 1.260,13 0,00 0,00 0,00 0,00 1.281,64 1.550,00 16.693,07 1.972,18 3.518,75 0,00 0,00 5.490,93 11.202,14 30/11/2020
1041 516500 FLAVIO AUGUSTO RODRIGUES CORREA ANALISTA DO MP BELO HORIZONTE - COMARCA; COORD REG BACIAS RIO VELHAS E PARAOPEBA 10.069,62 1.006,96 0,00 0,00 0,00 0,00 1.092,24 2.319,39 14.488,21